Osage River (Missouri), Saint Thomas (06926510)

StateMissouriLatestUnknown (29900 cfs)
RiverOsage RiverRatingObservedEstimated
Updated2026-05-10 9:45 (1 hour ago)Flood - The river is flooding. Obstacles can be treacherous or deadly. The river should be avoided at this stage for casual trips and definitely for the inexperienced. Trips should be attempted only with protective gear and equipment.Flood(none)(none)
Discharge29900 cfs (median: 17400 cfs)High - The river is high and potentially dangerous, especially for the young and / or inexperienced. Normal stream obstacles are sometimes difficult to navigate. Extended distances can be attempted, but canoe travel may not be advisable.High(none)(none)
Height11.79 feetGood - Conditions are ideal for a canoe or kayak. Boats typically will drag on fewer than one-quarter of riffles, if at all, and portages are unnecessary or rare. Normal float lengths can be attempted without a problem.Good(none)(none)
TrendSteady (falling over 24 hours)Low - River is low but can still be floated. Some riffles are okay but most come with significant dragging and might need a portage. Float lengths should be reduced to accommodate low flow, dragging, and portages.Low(none)(none)
USGSExternal icon USGS Site (External icon Duck Duck Go Maps)Poor - River is too low to float comfortably. Most or all riffles will drag or must be portaged and some obstacles (such as slick shelf rock) cause undue problems. Avoid the river at this stage for casual paddling trips.Poor(none)(none)

Trending Data

Plot Image

Trips for Osage River (Missouri), Saint Thomas (06926510)

DateStartEndDistanceConditionDischargeHeightFishingDetails

A total of 0 rows are displayed.

Condition Descriptions

Fishing Conditions

Fish Species

Notes

Classic Trip List

The classic River Trips application is still available for use. It is updated with the new system using a data retrofit. It is no longer maintained. The original River Trips application is no longer updated (as of 1 Dec 2016) but can be checked for errors or for the condition of the data before it was converted to the new system.

Gauge Data Table

ObservationHeightDischargeMaximum
Discharge
Minimum
Discharge
Mean
Discharge
P05P10P20P25P50
(Median)
P75P80P90P95
2026-05-10 10:45 11.73 29700 54600 (2009) 697 (2005) 21300 932 1490 2240 3000 17400 36400 38800 47900 52600
2026-05-10 09:45 11.79 29900 54600 (2009) 697 (2005) 21300 932 1490 2240 3000 17400 36400 38800 47900 52600
2026-05-10 08:45 11.78 29900 54600 (2009) 697 (2005) 21300 932 1490 2240 3000 17400 36400 38800 47900 52600
2026-05-10 07:45 11.76 29800 54600 (2009) 697 (2005) 21300 932 1490 2240 3000 17400 36400 38800 47900 52600
2026-05-10 06:45 11.68 29500 54600 (2009) 697 (2005) 21300 932 1490 2240 3000 17400 36400 38800 47900 52600
2026-05-10 05:45 11.53 29000 54600 (2009) 697 (2005) 21300 932 1490 2240 3000 17400 36400 38800 47900 52600
2026-05-10 04:45 11.42 28600 54600 (2009) 697 (2005) 21300 932 1490 2240 3000 17400 36400 38800 47900 52600
2026-05-10 03:45 11.32 28200 54600 (2009) 697 (2005) 21300 932 1490 2240 3000 17400 36400 38800 47900 52600
2026-05-10 02:45 11.16 27600 54600 (2009) 697 (2005) 21300 932 1490 2240 3000 17400 36400 38800 47900 52600
2026-05-10 01:45 11.05 27200 54600 (2009) 697 (2005) 21300 932 1490 2240 3000 17400 36400 38800 47900 52600
2026-05-10 00:45 10.96 26900 54600 (2009) 697 (2005) 21300 932 1490 2240 3000 17400 36400 38800 47900 52600
2026-05-09 23:45 10.96 26900 54600 (2009) 697 (2005) 21300 932 1490 2240 3000 17400 36400 38800 47900 52600
2026-05-09 22:45 11.01 27100 61400 (2009) 718 (2005) 23200 1040 1720 2420 4200 22900 35900 39400 53800 59200
2026-05-09 21:45 11.08 27300 61400 (2009) 718 (2005) 23200 1040 1720 2420 4200 22900 35900 39400 53800 59200
2026-05-09 20:45 11.21 27800 61400 (2009) 718 (2005) 23200 1040 1720 2420 4200 22900 35900 39400 53800 59200
2026-05-09 19:45 11.34 28300 61400 (2009) 718 (2005) 23200 1040 1720 2420 4200 22900 35900 39400 53800 59200
2026-05-09 18:45 11.48 28800 61400 (2009) 718 (2005) 23200 1040 1720 2420 4200 22900 35900 39400 53800 59200
2026-05-09 17:45 11.63 29400 61400 (2009) 718 (2005) 23200 1040 1720 2420 4200 22900 35900 39400 53800 59200
2026-05-09 16:45 11.81 30000 61400 (2009) 718 (2005) 23200 1040 1720 2420 4200 22900 35900 39400 53800 59200
2026-05-09 15:45 11.96 30600 61400 (2009) 718 (2005) 23200 1040 1720 2420 4200 22900 35900 39400 53800 59200
2026-05-09 14:45 12.18 31400 61400 (2009) 718 (2005) 23200 1040 1720 2420 4200 22900 35900 39400 53800 59200
2026-05-09 13:45 12.39 32300 61400 (2009) 718 (2005) 23200 1040 1720 2420 4200 22900 35900 39400 53800 59200
2026-05-09 12:45 12.57 32900 61400 (2009) 718 (2005) 23200 1040 1720 2420 4200 22900 35900 39400 53800 59200
2026-05-09 11:45 12.75 33700 61400 (2009) 718 (2005) 23200 1040 1720 2420 4200 22900 35900 39400 53800 59200
2026-05-09 10:45 12.90 34200 61400 (2009) 718 (2005) 23200 1040 1720 2420 4200 22900 35900 39400 53800 59200
2026-05-09 09:45 13.05 34900 61400 (2009) 718 (2005) 23200 1040 1720 2420 4200 22900 35900 39400 53800 59200
2026-05-09 08:45 13.16 35300 61400 (2009) 718 (2005) 23200 1040 1720 2420 4200 22900 35900 39400 53800 59200
2026-05-09 07:45 13.32 35900 61400 (2009) 718 (2005) 23200 1040 1720 2420 4200 22900 35900 39400 53800 59200
2026-05-09 06:45 13.47 36600 61400 (2009) 718 (2005) 23200 1040 1720 2420 4200 22900 35900 39400 53800 59200
2026-05-09 05:45 13.54 36800 61400 (2009) 718 (2005) 23200 1040 1720 2420 4200 22900 35900 39400 53800 59200
2026-05-09 04:45 13.64 37300 61400 (2009) 718 (2005) 23200 1040 1720 2420 4200 22900 35900 39400 53800 59200
2026-05-09 03:45 13.67 37400 61400 (2009) 718 (2005) 23200 1040 1720 2420 4200 22900 35900 39400 53800 59200
2026-05-09 02:45 13.67 37400 61400 (2009) 718 (2005) 23200 1040 1720 2420 4200 22900 35900 39400 53800 59200
2026-05-09 01:45 13.63 37200 61400 (2009) 718 (2005) 23200 1040 1720 2420 4200 22900 35900 39400 53800 59200
2026-05-09 00:45 13.64 37300 61400 (2009) 718 (2005) 23200 1040 1720 2420 4200 22900 35900 39400 53800 59200
2026-05-08 23:45 13.63 37200 61400 (2009) 718 (2005) 23200 1040 1720 2420 4200 22900 35900 39400 53800 59200
2026-05-08 22:45 13.62 37200 57000 (2024) 737 (2005) 23000 782 1420 1810 2190 28000 36200 39700 45700 55900
2026-05-08 21:45 13.60 37100 57000 (2024) 737 (2005) 23000 782 1420 1810 2190 28000 36200 39700 45700 55900
2026-05-08 20:45 13.57 37000 57000 (2024) 737 (2005) 23000 782 1420 1810 2190 28000 36200 39700 45700 55900
2026-05-08 19:45 13.55 36900 57000 (2024) 737 (2005) 23000 782 1420 1810 2190 28000 36200 39700 45700 55900
2026-05-08 18:45 13.49 36600 57000 (2024) 737 (2005) 23000 782 1420 1810 2190 28000 36200 39700 45700 55900
2026-05-08 17:45 13.53 36800 57000 (2024) 737 (2005) 23000 782 1420 1810 2190 28000 36200 39700 45700 55900
2026-05-08 16:45 13.48 36600 57000 (2024) 737 (2005) 23000 782 1420 1810 2190 28000 36200 39700 45700 55900
2026-05-08 15:45 13.47 36600 57000 (2024) 737 (2005) 23000 782 1420 1810 2190 28000 36200 39700 45700 55900
2026-05-08 14:45 13.45 36500 57000 (2024) 737 (2005) 23000 782 1420 1810 2190 28000 36200 39700 45700 55900
2026-05-08 13:45 13.41 36300 57000 (2024) 737 (2005) 23000 782 1420 1810 2190 28000 36200 39700 45700 55900
2026-05-08 12:45 13.42 36300 57000 (2024) 737 (2005) 23000 782 1420 1810 2190 28000 36200 39700 45700 55900
2026-05-08 11:45 13.40 36300 57000 (2024) 737 (2005) 23000 782 1420 1810 2190 28000 36200 39700 45700 55900
2026-05-08 10:45 13.34 36000 57000 (2024) 737 (2005) 23000 782 1420 1810 2190 28000 36200 39700 45700 55900
2026-05-08 09:45 13.36 36100 57000 (2024) 737 (2005) 23000 782 1420 1810 2190 28000 36200 39700 45700 55900
2026-05-08 08:45 13.33 36000 57000 (2024) 737 (2005) 23000 782 1420 1810 2190 28000 36200 39700 45700 55900
2026-05-08 07:45 13.33 36000 57000 (2024) 737 (2005) 23000 782 1420 1810 2190 28000 36200 39700 45700 55900
2026-05-08 06:45 13.31 35900 57000 (2024) 737 (2005) 23000 782 1420 1810 2190 28000 36200 39700 45700 55900
2026-05-08 05:45 13.30 35800 57000 (2024) 737 (2005) 23000 782 1420 1810 2190 28000 36200 39700 45700 55900
2026-05-08 04:45 13.29 35800 57000 (2024) 737 (2005) 23000 782 1420 1810 2190 28000 36200 39700 45700 55900
2026-05-08 03:45 13.31 35900 57000 (2024) 737 (2005) 23000 782 1420 1810 2190 28000 36200 39700 45700 55900
2026-05-08 02:45 13.32 35900 57000 (2024) 737 (2005) 23000 782 1420 1810 2190 28000 36200 39700 45700 55900
2026-05-08 01:45 13.31 35900 57000 (2024) 737 (2005) 23000 782 1420 1810 2190 28000 36200 39700 45700 55900
2026-05-08 00:45 13.36 36100 57000 (2024) 737 (2005) 23000 782 1420 1810 2190 28000 36200 39700 45700 55900
2026-05-07 23:45 13.32 35900 57000 (2024) 737 (2005) 23000 782 1420 1810 2190 28000 36200 39700 45700 55900
2026-05-07 22:45 13.35 36100 49100 (2009) 772 (2005) 22000 778 1210 1660 2210 25500 35700 36300 48600 48900
2026-05-07 21:45 13.32 35900 49100 (2009) 772 (2005) 22000 778 1210 1660 2210 25500 35700 36300 48600 48900
2026-05-07 20:45 13.32 35900 49100 (2009) 772 (2005) 22000 778 1210 1660 2210 25500 35700 36300 48600 48900
2026-05-07 19:45 13.34 36000 49100 (2009) 772 (2005) 22000 778 1210 1660 2210 25500 35700 36300 48600 48900
2026-05-07 18:45 13.35 36100 49100 (2009) 772 (2005) 22000 778 1210 1660 2210 25500 35700 36300 48600 48900
2026-05-07 17:45 13.38 36200 49100 (2009) 772 (2005) 22000 778 1210 1660 2210 25500 35700 36300 48600 48900
2026-05-07 16:45 13.41 36300 49100 (2009) 772 (2005) 22000 778 1210 1660 2210 25500 35700 36300 48600 48900
2026-05-07 15:45 13.48 36600 49100 (2009) 772 (2005) 22000 778 1210 1660 2210 25500 35700 36300 48600 48900
2026-05-07 14:45 13.50 36700 49100 (2009) 772 (2005) 22000 778 1210 1660 2210 25500 35700 36300 48600 48900
2026-05-07 13:45 13.50 36700 49100 (2009) 772 (2005) 22000 778 1210 1660 2210 25500 35700 36300 48600 48900
2026-05-07 12:45 13.56 36900 49100 (2009) 772 (2005) 22000 778 1210 1660 2210 25500 35700 36300 48600 48900
2026-05-07 11:45 13.54 36800 49100 (2009) 772 (2005) 22000 778 1210 1660 2210 25500 35700 36300 48600 48900
2026-05-07 10:45 13.58 37000 49100 (2009) 772 (2005) 22000 778 1210 1660 2210 25500 35700 36300 48600 48900
2026-05-07 09:45 13.54 36800 49100 (2009) 772 (2005) 22000 778 1210 1660 2210 25500 35700 36300 48600 48900
2026-05-07 08:45 13.57 37000 49100 (2009) 772 (2005) 22000 778 1210 1660 2210 25500 35700 36300 48600 48900
2026-05-07 07:45 13.55 36900 49100 (2009) 772 (2005) 22000 778 1210 1660 2210 25500 35700 36300 48600 48900
2026-05-07 06:45 13.55 36900 49100 (2009) 772 (2005) 22000 778 1210 1660 2210 25500 35700 36300 48600 48900
2026-05-07 05:45 13.56 36900 49100 (2009) 772 (2005) 22000 778 1210 1660 2210 25500 35700 36300 48600 48900
2026-05-07 04:45 13.52 36800 49100 (2009) 772 (2005) 22000 778 1210 1660 2210 25500 35700 36300 48600 48900
2026-05-07 03:45 13.53 36800 49100 (2009) 772 (2005) 22000 778 1210 1660 2210 25500 35700 36300 48600 48900
2026-05-07 02:45 13.51 36700 49100 (2009) 772 (2005) 22000 778 1210 1660 2210 25500 35700 36300 48600 48900
2026-05-07 01:45 13.49 36600 49100 (2009) 772 (2005) 22000 778 1210 1660 2210 25500 35700 36300 48600 48900
2026-05-07 00:45 13.50 36700 49100 (2009) 772 (2005) 22000 778 1210 1660 2210 25500 35700 36300 48600 48900
2026-05-06 23:45 13.47 36600 49100 (2009) 772 (2005) 22000 778 1210 1660 2210 25500 35700 36300 48600 48900
2026-05-06 22:45 13.45 36500 62500 (2022) 644 (2000) 22700 735 1340 2050 2330 26100 34100 35200 47200 57300
2026-05-06 21:45 13.45 36500 62500 (2022) 644 (2000) 22700 735 1340 2050 2330 26100 34100 35200 47200 57300
2026-05-06 20:45 13.39 36200 62500 (2022) 644 (2000) 22700 735 1340 2050 2330 26100 34100 35200 47200 57300
2026-05-06 19:45 13.39 36200 62500 (2022) 644 (2000) 22700 735 1340 2050 2330 26100 34100 35200 47200 57300
2026-05-06 18:45 13.34 36000 62500 (2022) 644 (2000) 22700 735 1340 2050 2330 26100 34100 35200 47200 57300
2026-05-06 17:45 13.32 35900 62500 (2022) 644 (2000) 22700 735 1340 2050 2330 26100 34100 35200 47200 57300
2026-05-06 16:45 13.27 35800 62500 (2022) 644 (2000) 22700 735 1340 2050 2330 26100 34100 35200 47200 57300
2026-05-06 15:45 13.23 35600 62500 (2022) 644 (2000) 22700 735 1340 2050 2330 26100 34100 35200 47200 57300
2026-05-06 14:45 13.23 35600 62500 (2022) 644 (2000) 22700 735 1340 2050 2330 26100 34100 35200 47200 57300
2026-05-06 13:45 13.19 35400 62500 (2022) 644 (2000) 22700 735 1340 2050 2330 26100 34100 35200 47200 57300
2026-05-06 12:45 13.13 35200 62500 (2022) 644 (2000) 22700 735 1340 2050 2330 26100 34100 35200 47200 57300
2026-05-06 11:45 13.11 35100 62500 (2022) 644 (2000) 22700 735 1340 2050 2330 26100 34100 35200 47200 57300
2026-05-06 10:45 13.06 34900 62500 (2022) 644 (2000) 22700 735 1340 2050 2330 26100 34100 35200 47200 57300
2026-05-06 09:45 13.00 34600 62500 (2022) 644 (2000) 22700 735 1340 2050 2330 26100 34100 35200 47200 57300
2026-05-06 08:45 12.95 34400 62500 (2022) 644 (2000) 22700 735 1340 2050 2330 26100 34100 35200 47200 57300
2026-05-06 07:45 12.93 34400 62500 (2022) 644 (2000) 22700 735 1340 2050 2330 26100 34100 35200 47200 57300
2026-05-06 06:45 12.89 34200 62500 (2022) 644 (2000) 22700 735 1340 2050 2330 26100 34100 35200 47200 57300
2026-05-06 05:45 12.84 34000 62500 (2022) 644 (2000) 22700 735 1340 2050 2330 26100 34100 35200 47200 57300
2026-05-06 04:45 12.85 34100 62500 (2022) 644 (2000) 22700 735 1340 2050 2330 26100 34100 35200 47200 57300
2026-05-06 03:45 12.86 34100 62500 (2022) 644 (2000) 22700 735 1340 2050 2330 26100 34100 35200 47200 57300
2026-05-06 02:45 12.92 34300 62500 (2022) 644 (2000) 22700 735 1340 2050 2330 26100 34100 35200 47200 57300
2026-05-06 01:45 13.00 34600 62500 (2022) 644 (2000) 22700 735 1340 2050 2330 26100 34100 35200 47200 57300
2026-05-06 00:45 13.12 35100 62500 (2022) 644 (2000) 22700 735 1340 2050 2330 26100 34100 35200 47200 57300
2026-05-05 23:45 13.23 35600 62500 (2022) 644 (2000) 22700 735 1340 2050 2330 26100 34100 35200 47200 57300
2026-05-05 22:45 13.34 36000 58000 (2017) 673 (2000) 23500 888 1440 2100 3220 27900 34400 37800 52100 57100
2026-05-05 21:45 13.39 36200 58000 (2017) 673 (2000) 23500 888 1440 2100 3220 27900 34400 37800 52100 57100
2026-05-05 20:45 13.41 36300 58000 (2017) 673 (2000) 23500 888 1440 2100 3220 27900 34400 37800 52100 57100
2026-05-05 19:45 13.39 36200 58000 (2017) 673 (2000) 23500 888 1440 2100 3220 27900 34400 37800 52100 57100
2026-05-05 18:45 13.38 36200 58000 (2017) 673 (2000) 23500 888 1440 2100 3220 27900 34400 37800 52100 57100
2026-05-05 17:45 13.36 36100 58000 (2017) 673 (2000) 23500 888 1440 2100 3220 27900 34400 37800 52100 57100
2026-05-05 16:45 13.36 36100 58000 (2017) 673 (2000) 23500 888 1440 2100 3220 27900 34400 37800 52100 57100
2026-05-05 15:45 13.34 36000 58000 (2017) 673 (2000) 23500 888 1440 2100 3220 27900 34400 37800 52100 57100
2026-05-05 14:45 13.33 36000 58000 (2017) 673 (2000) 23500 888 1440 2100 3220 27900 34400 37800 52100 57100
2026-05-05 13:45 13.26 35700 58000 (2017) 673 (2000) 23500 888 1440 2100 3220 27900 34400 37800 52100 57100
2026-05-05 12:45 13.23 35600 58000 (2017) 673 (2000) 23500 888 1440 2100 3220 27900 34400 37800 52100 57100
2026-05-05 11:45 13.14 35200 58000 (2017) 673 (2000) 23500 888 1440 2100 3220 27900 34400 37800 52100 57100
2026-05-05 10:45 13.10 35100 58000 (2017) 673 (2000) 23500 888 1440 2100 3220 27900 34400 37800 52100 57100
2026-05-05 09:45 13.07 34900 58000 (2017) 673 (2000) 23500 888 1440 2100 3220 27900 34400 37800 52100 57100
2026-05-05 08:45 13.01 34700 58000 (2017) 673 (2000) 23500 888 1440 2100 3220 27900 34400 37800 52100 57100
2026-05-05 07:45 12.94 34400 58000 (2017) 673 (2000) 23500 888 1440 2100 3220 27900 34400 37800 52100 57100
2026-05-05 06:45 12.85 34100 58000 (2017) 673 (2000) 23500 888 1440 2100 3220 27900 34400 37800 52100 57100
2026-05-05 05:45 12.78 33800 58000 (2017) 673 (2000) 23500 888 1440 2100 3220 27900 34400 37800 52100 57100
2026-05-05 04:45 12.66 33300 58000 (2017) 673 (2000) 23500 888 1440 2100 3220 27900 34400 37800 52100 57100
2026-05-05 03:45 12.57 32900 58000 (2017) 673 (2000) 23500 888 1440 2100 3220 27900 34400 37800 52100 57100
2026-05-05 02:45 12.46 32500 58000 (2017) 673 (2000) 23500 888 1440 2100 3220 27900 34400 37800 52100 57100
2026-05-05 01:45 12.28 31800 58000 (2017) 673 (2000) 23500 888 1440 2100 3220 27900 34400 37800 52100 57100
2026-05-05 00:45 12.12 31200 58000 (2017) 673 (2000) 23500 888 1440 2100 3220 27900 34400 37800 52100 57100
2026-05-04 23:45 11.95 30600 58000 (2017) 673 (2000) 23500 888 1440 2100 3220 27900 34400 37800 52100 57100
2026-05-04 22:45 11.70 29600 77300 (2017) 934 (2000) 23400 1160 1800 2860 3610 27000 33900 38500 41400 64400
2026-05-04 21:45 11.49 28800 77300 (2017) 934 (2000) 23400 1160 1800 2860 3610 27000 33900 38500 41400 64400
2026-05-04 20:45 11.20 27800 77300 (2017) 934 (2000) 23400 1160 1800 2860 3610 27000 33900 38500 41400 64400
2026-05-04 19:45 10.95 26800 77300 (2017) 934 (2000) 23400 1160 1800 2860 3610 27000 33900 38500 41400 64400
2026-05-04 18:45 10.64 25800 77300 (2017) 934 (2000) 23400 1160 1800 2860 3610 27000 33900 38500 41400 64400
2026-05-04 17:45 10.39 24900 77300 (2017) 934 (2000) 23400 1160 1800 2860 3610 27000 33900 38500 41400 64400
2026-05-04 16:45 10.10 23900 77300 (2017) 934 (2000) 23400 1160 1800 2860 3610 27000 33900 38500 41400 64400
2026-05-04 15:45 9.86 23100 77300 (2017) 934 (2000) 23400 1160 1800 2860 3610 27000 33900 38500 41400 64400
2026-05-04 14:45 9.67 22400 77300 (2017) 934 (2000) 23400 1160 1800 2860 3610 27000 33900 38500 41400 64400
2026-05-04 13:45 9.52 21900 77300 (2017) 934 (2000) 23400 1160 1800 2860 3610 27000 33900 38500 41400 64400
2026-05-04 12:45 9.44 21600 77300 (2017) 934 (2000) 23400 1160 1800 2860 3610 27000 33900 38500 41400 64400
2026-05-04 11:45 9.37 21300 77300 (2017) 934 (2000) 23400 1160 1800 2860 3610 27000 33900 38500 41400 64400
2026-05-04 10:45 9.34 21200 77300 (2017) 934 (2000) 23400 1160 1800 2860 3610 27000 33900 38500 41400 64400
2026-05-04 09:45 9.34 21200 77300 (2017) 934 (2000) 23400 1160 1800 2860 3610 27000 33900 38500 41400 64400
2026-05-04 08:45 9.35 21200 77300 (2017) 934 (2000) 23400 1160 1800 2860 3610 27000 33900 38500 41400 64400
2026-05-04 07:45 9.37 21300 77300 (2017) 934 (2000) 23400 1160 1800 2860 3610 27000 33900 38500 41400 64400
2026-05-04 06:45 9.40 21400 77300 (2017) 934 (2000) 23400 1160 1800 2860 3610 27000 33900 38500 41400 64400
2026-05-04 05:45 9.43 21500 77300 (2017) 934 (2000) 23400 1160 1800 2860 3610 27000 33900 38500 41400 64400
2026-05-04 04:45 9.44 21600 77300 (2017) 934 (2000) 23400 1160 1800 2860 3610 27000 33900 38500 41400 64400
2026-05-04 03:45 9.45 21600 77300 (2017) 934 (2000) 23400 1160 1800 2860 3610 27000 33900 38500 41400 64400
2026-05-04 02:45 9.40 21400 77300 (2017) 934 (2000) 23400 1160 1800 2860 3610 27000 33900 38500 41400 64400
2026-05-04 01:45 9.34 21200 77300 (2017) 934 (2000) 23400 1160 1800 2860 3610 27000 33900 38500 41400 64400
2026-05-04 00:45 9.27 20900 77300 (2017) 934 (2000) 23400 1160 1800 2860 3610 27000 33900 38500 41400 64400
2026-05-03 23:45 9.17 20500 77300 (2017) 934 (2000) 23400 1160 1800 2860 3610 27000 33900 38500 41400 64400
2026-05-03 22:45 9.12 20300 69400 (2017) 1310 (2000) 22900 1490 1880 3440 5060 25700 32800 36200 41900 57200
2026-05-03 21:45 9.13 20400 69400 (2017) 1310 (2000) 22900 1490 1880 3440 5060 25700 32800 36200 41900 57200
2026-05-03 20:45 9.14 20400 69400 (2017) 1310 (2000) 22900 1490 1880 3440 5060 25700 32800 36200 41900 57200
2026-05-03 19:45 9.17 20500 69400 (2017) 1310 (2000) 22900 1490 1880 3440 5060 25700 32800 36200 41900 57200
2026-05-03 18:45 9.21 20600 69400 (2017) 1310 (2000) 22900 1490 1880 3440 5060 25700 32800 36200 41900 57200
2026-05-03 17:45 9.29 21000 69400 (2017) 1310 (2000) 22900 1490 1880 3440 5060 25700 32800 36200 41900 57200
2026-05-03 16:45 9.38 21300 69400 (2017) 1310 (2000) 22900 1490 1880 3440 5060 25700 32800 36200 41900 57200
2026-05-03 15:45 9.54 22000 69400 (2017) 1310 (2000) 22900 1490 1880 3440 5060 25700 32800 36200 41900 57200
2026-05-03 14:45 9.70 22500 69400 (2017) 1310 (2000) 22900 1490 1880 3440 5060 25700 32800 36200 41900 57200
2026-05-03 13:45 9.87 23100 69400 (2017) 1310 (2000) 22900 1490 1880 3440 5060 25700 32800 36200 41900 57200
2026-05-03 12:45 10.06 23700 69400 (2017) 1310 (2000) 22900 1490 1880 3440 5060 25700 32800 36200 41900 57200
2026-05-03 11:45 10.24 24400 69400 (2017) 1310 (2000) 22900 1490 1880 3440 5060 25700 32800 36200 41900 57200
2026-05-03 10:45 10.41 25000 69400 (2017) 1310 (2000) 22900 1490 1880 3440 5060 25700 32800 36200 41900 57200
2026-05-03 09:45 10.57 25500 69400 (2017) 1310 (2000) 22900 1490 1880 3440 5060 25700 32800 36200 41900 57200
2026-05-03 08:45 10.70 26000 69400 (2017) 1310 (2000) 22900 1490 1880 3440 5060 25700 32800 36200 41900 57200
2026-05-03 07:45 10.79 26300 69400 (2017) 1310 (2000) 22900 1490 1880 3440 5060 25700 32800 36200 41900 57200
2026-05-03 06:45 10.86 26500 69400 (2017) 1310 (2000) 22900 1490 1880 3440 5060 25700 32800 36200 41900 57200
2026-05-03 05:45 10.92 26700 69400 (2017) 1310 (2000) 22900 1490 1880 3440 5060 25700 32800 36200 41900 57200
2026-05-03 04:45 11.01 27100 69400 (2017) 1310 (2000) 22900 1490 1880 3440 5060 25700 32800 36200 41900 57200
2026-05-03 03:45 11.09 27400 69400 (2017) 1310 (2000) 22900 1490 1880 3440 5060 25700 32800 36200 41900 57200
2026-05-03 02:45 11.22 27900 69400 (2017) 1310 (2000) 22900 1490 1880 3440 5060 25700 32800 36200 41900 57200
2026-05-03 01:45 11.36 28300 69400 (2017) 1310 (2000) 22900 1490 1880 3440 5060 25700 32800 36200 41900 57200
2026-05-03 00:45 11.49 28800 69400 (2017) 1310 (2000) 22900 1490 1880 3440 5060 25700 32800 36200 41900 57200
2026-05-02 23:45 11.59 29200 69400 (2017) 1310 (2000) 22900 1490 1880 3440 5060 25700 32800 36200 41900 57200
2026-05-02 22:45 11.79 29900 79000 (2017) 671 (2000) 22000 968 2400 3980 5160 21600 33400 34100 39100 63800
2026-05-02 21:45 11.97 30600 79000 (2017) 671 (2000) 22000 968 2400 3980 5160 21600 33400 34100 39100 63800
2026-05-02 20:45 12.19 31500 79000 (2017) 671 (2000) 22000 968 2400 3980 5160 21600 33400 34100 39100 63800
2026-05-02 19:45 12.36 32100 79000 (2017) 671 (2000) 22000 968 2400 3980 5160 21600 33400 34100 39100 63800
2026-05-02 18:45 12.54 32800 79000 (2017) 671 (2000) 22000 968 2400 3980 5160 21600 33400 34100 39100 63800
2026-05-02 17:45 12.65 33300 79000 (2017) 671 (2000) 22000 968 2400 3980 5160 21600 33400 34100 39100 63800
2026-05-02 16:45 12.75 33700 79000 (2017) 671 (2000) 22000 968 2400 3980 5160 21600 33400 34100 39100 63800
2026-05-02 15:45 12.85 34100 79000 (2017) 671 (2000) 22000 968 2400 3980 5160 21600 33400 34100 39100 63800
2026-05-02 14:45 12.79 33800 79000 (2017) 671 (2000) 22000 968 2400 3980 5160 21600 33400 34100 39100 63800
2026-05-02 13:45 12.78 33800 79000 (2017) 671 (2000) 22000 968 2400 3980 5160 21600 33400 34100 39100 63800
2026-05-02 12:45 12.69 33400 79000 (2017) 671 (2000) 22000 968 2400 3980 5160 21600 33400 34100 39100 63800
2026-05-02 11:45 12.63 33200 79000 (2017) 671 (2000) 22000 968 2400 3980 5160 21600 33400 34100 39100 63800
2026-05-02 10:45 12.48 32600 79000 (2017) 671 (2000) 22000 968 2400 3980 5160 21600 33400 34100 39100 63800
2026-05-02 09:45 12.31 31900 79000 (2017) 671 (2000) 22000 968 2400 3980 5160 21600 33400 34100 39100 63800
2026-05-02 08:45 12.12 31200 79000 (2017) 671 (2000) 22000 968 2400 3980 5160 21600 33400 34100 39100 63800
2026-05-02 07:45 11.98 30700 79000 (2017) 671 (2000) 22000 968 2400 3980 5160 21600 33400 34100 39100 63800
2026-05-02 06:45 11.80 30000 79000 (2017) 671 (2000) 22000 968 2400 3980 5160 21600 33400 34100 39100 63800
2026-05-02 05:45 11.59 29200 79000 (2017) 671 (2000) 22000 968 2400 3980 5160 21600 33400 34100 39100 63800
2026-05-02 04:45 11.45 28700 79000 (2017) 671 (2000) 22000 968 2400 3980 5160 21600 33400 34100 39100 63800
2026-05-02 03:45 11.30 28100 79000 (2017) 671 (2000) 22000 968 2400 3980 5160 21600 33400 34100 39100 63800
2026-05-02 02:45 11.19 27700 79000 (2017) 671 (2000) 22000 968 2400 3980 5160 21600 33400 34100 39100 63800
2026-05-02 01:45 11.11 27400 79000 (2017) 671 (2000) 22000 968 2400 3980 5160 21600 33400 34100 39100 63800
2026-05-02 00:45 11.11 27400 79000 (2017) 671 (2000) 22000 968 2400 3980 5160 21600 33400 34100 39100 63800
2026-05-01 23:45 11.17 27700 79000 (2017) 671 (2000) 22000 968 2400 3980 5160 21600 33400 34100 39100 63800
2026-05-01 22:45 11.28 28000 90600 (2017) 607 (2000) 22000 1140 2270 3790 4010 21000 32400 33700 46400 72200
2026-05-01 21:45 11.42 28600 90600 (2017) 607 (2000) 22000 1140 2270 3790 4010 21000 32400 33700 46400 72200
2026-05-01 20:45 11.57 29100 90600 (2017) 607 (2000) 22000 1140 2270 3790 4010 21000 32400 33700 46400 72200
2026-05-01 19:45 11.70 29600 90600 (2017) 607 (2000) 22000 1140 2270 3790 4010 21000 32400 33700 46400 72200
2026-05-01 18:45 11.83 30100 90600 (2017) 607 (2000) 22000 1140 2270 3790 4010 21000 32400 33700 46400 72200
2026-05-01 17:45 11.90 30400 90600 (2017) 607 (2000) 22000 1140 2270 3790 4010 21000 32400 33700 46400 72200
2026-05-01 16:45 11.98 30700 90600 (2017) 607 (2000) 22000 1140 2270 3790 4010 21000 32400 33700 46400 72200
2026-05-01 15:45 12.04 30900 90600 (2017) 607 (2000) 22000 1140 2270 3790 4010 21000 32400 33700 46400 72200
2026-05-01 14:45 12.05 31000 90600 (2017) 607 (2000) 22000 1140 2270 3790 4010 21000 32400 33700 46400 72200
2026-05-01 13:45 12.02 30800 90600 (2017) 607 (2000) 22000 1140 2270 3790 4010 21000 32400 33700 46400 72200
2026-05-01 12:45 11.99 30700 90600 (2017) 607 (2000) 22000 1140 2270 3790 4010 21000 32400 33700 46400 72200
2026-05-01 11:45 11.88 30300 90600 (2017) 607 (2000) 22000 1140 2270 3790 4010 21000 32400 33700 46400 72200
2026-05-01 10:45 11.75 29800 90600 (2017) 607 (2000) 22000 1140 2270 3790 4010 21000 32400 33700 46400 72200
2026-05-01 09:45 11.62 29300 90600 (2017) 607 (2000) 22000 1140 2270 3790 4010 21000 32400 33700 46400 72200
2026-05-01 08:45 11.51 28900 90600 (2017) 607 (2000) 22000 1140 2270 3790 4010 21000 32400 33700 46400 72200
2026-05-01 07:45 11.40 28500 90600 (2017) 607 (2000) 22000 1140 2270 3790 4010 21000 32400 33700 46400 72200
2026-05-01 06:45 11.31 28200 90600 (2017) 607 (2000) 22000 1140 2270 3790 4010 21000 32400 33700 46400 72200
2026-05-01 05:45 11.21 27800 90600 (2017) 607 (2000) 22000 1140 2270 3790 4010 21000 32400 33700 46400 72200
2026-05-01 04:45 11.09 27400 90600 (2017) 607 (2000) 22000 1140 2270 3790 4010 21000 32400 33700 46400 72200
2026-05-01 03:45 10.98 27000 90600 (2017) 607 (2000) 22000 1140 2270 3790 4010 21000 32400 33700 46400 72200
2026-05-01 02:45 10.92 26700 90600 (2017) 607 (2000) 22000 1140 2270 3790 4010 21000 32400 33700 46400 72200
2026-05-01 01:45 10.80 26300 90600 (2017) 607 (2000) 22000 1140 2270 3790 4010 21000 32400 33700 46400 72200
2026-05-01 00:45 10.75 26200 90600 (2017) 607 (2000) 22000 1140 2270 3790 4010 21000 32400 33700 46400 72200
2026-04-30 23:45 10.72 26000 90600 (2017) 607 (2000) 22000 1140 2270 3790 4010 21000 32400 33700 46400 72200
2026-04-30 22:45 10.70 26000 77400 (2017) 599 (2000) 20900 1460 2810 5400 6060 17000 33400 35900 42700 64600
2026-04-30 21:45 10.74 26100 77400 (2017) 599 (2000) 20900 1460 2810 5400 6060 17000 33400 35900 42700 64600
2026-04-30 20:45 10.80 26300 77400 (2017) 599 (2000) 20900 1460 2810 5400 6060 17000 33400 35900 42700 64600
2026-04-30 19:45 10.88 26600 77400 (2017) 599 (2000) 20900 1460 2810 5400 6060 17000 33400 35900 42700 64600
2026-04-30 18:45 10.91 26700 77400 (2017) 599 (2000) 20900 1460 2810 5400 6060 17000 33400 35900 42700 64600
2026-04-30 17:45 10.93 26800 77400 (2017) 599 (2000) 20900 1460 2810 5400 6060 17000 33400 35900 42700 64600
2026-04-30 16:45 10.94 26800 77400 (2017) 599 (2000) 20900 1460 2810 5400 6060 17000 33400 35900 42700 64600
2026-04-30 15:45 10.94 26800 77400 (2017) 599 (2000) 20900 1460 2810 5400 6060 17000 33400 35900 42700 64600
2026-04-30 14:45 10.95 26800 77400 (2017) 599 (2000) 20900 1460 2810 5400 6060 17000 33400 35900 42700 64600
2026-04-30 13:45 10.94 26800 77400 (2017) 599 (2000) 20900 1460 2810 5400 6060 17000 33400 35900 42700 64600
2026-04-30 12:45 10.95 26800 77400 (2017) 599 (2000) 20900 1460 2810 5400 6060 17000 33400 35900 42700 64600
2026-04-30 11:45 10.92 26700 77400 (2017) 599 (2000) 20900 1460 2810 5400 6060 17000 33400 35900 42700 64600
2026-04-30 10:45 10.89 26600 77400 (2017) 599 (2000) 20900 1460 2810 5400 6060 17000 33400 35900 42700 64600
2026-04-30 09:45 10.81 26400 77400 (2017) 599 (2000) 20900 1460 2810 5400 6060 17000 33400 35900 42700 64600
2026-04-30 08:45 10.75 26200 77400 (2017) 599 (2000) 20900 1460 2810 5400 6060 17000 33400 35900 42700 64600
2026-04-30 07:45 10.70 26000 77400 (2017) 599 (2000) 20900 1460 2810 5400 6060 17000 33400 35900 42700 64600
2026-04-30 06:45 10.62 25700 77400 (2017) 599 (2000) 20900 1460 2810 5400 6060 17000 33400 35900 42700 64600
2026-04-30 05:45 10.48 25200 77400 (2017) 599 (2000) 20900 1460 2810 5400 6060 17000 33400 35900 42700 64600
2026-04-30 04:45 10.32 24600 77400 (2017) 599 (2000) 20900 1460 2810 5400 6060 17000 33400 35900 42700 64600
2026-04-30 03:45 10.17 24100 77400 (2017) 599 (2000) 20900 1460 2810 5400 6060 17000 33400 35900 42700 64600
2026-04-30 02:45 10.04 23600 77400 (2017) 599 (2000) 20900 1460 2810 5400 6060 17000 33400 35900 42700 64600
2026-04-30 01:45 9.98 23500 77400 (2017) 599 (2000) 20900 1460 2810 5400 6060 17000 33400 35900 42700 64600
2026-04-30 00:45 10.03 23600 77400 (2017) 599 (2000) 20900 1460 2810 5400 6060 17000 33400 35900 42700 64600
2026-04-29 23:45 10.13 24000 77400 (2017) 599 (2000) 20900 1460 2810 5400 6060 17000 33400 35900 42700 64600
2026-04-29 22:45 10.29 24500 49700 (2008) 582 (2000) 19300 815 3240 3950 4360 14400 33600 36800 42700 46600
2026-04-29 21:45 10.47 25100 49700 (2008) 582 (2000) 19300 815 3240 3950 4360 14400 33600 36800 42700 46600
2026-04-29 20:45 10.65 25800 49700 (2008) 582 (2000) 19300 815 3240 3950 4360 14400 33600 36800 42700 46600
2026-04-29 19:45 10.86 26500 49700 (2008) 582 (2000) 19300 815 3240 3950 4360 14400 33600 36800 42700 46600
2026-04-29 18:45 11.09 27400 49700 (2008) 582 (2000) 19300 815 3240 3950 4360 14400 33600 36800 42700 46600
2026-04-29 17:45 11.30 28100 49700 (2008) 582 (2000) 19300 815 3240 3950 4360 14400 33600 36800 42700 46600
2026-04-29 16:45 11.50 28900 49700 (2008) 582 (2000) 19300 815 3240 3950 4360 14400 33600 36800 42700 46600
2026-04-29 15:45 11.71 29600 49700 (2008) 582 (2000) 19300 815 3240 3950 4360 14400 33600 36800 42700 46600
2026-04-29 14:45 11.88 30300 49700 (2008) 582 (2000) 19300 815 3240 3950 4360 14400 33600 36800 42700 46600
2026-04-29 13:45 12.04 30900 49700 (2008) 582 (2000) 19300 815 3240 3950 4360 14400 33600 36800 42700 46600
2026-04-29 12:45 12.22 31600 49700 (2008) 582 (2000) 19300 815 3240 3950 4360 14400 33600 36800 42700 46600
2026-04-29 11:45 12.37 32200 49700 (2008) 582 (2000) 19300 815 3240 3950 4360 14400 33600 36800 42700 46600
2026-04-29 10:45 12.56 32900 49700 (2008) 582 (2000) 19300 815 3240 3950 4360 14400 33600 36800 42700 46600
2026-04-29 09:45 12.75 33700 49700 (2008) 582 (2000) 19300 815 3240 3950 4360 14400 33600 36800 42700 46600
2026-04-29 08:45 12.99 34600 49700 (2008) 582 (2000) 19300 815 3240 3950 4360 14400 33600 36800 42700 46600
2026-04-29 07:45 13.30 35800 49700 (2008) 582 (2000) 19300 815 3240 3950 4360 14400 33600 36800 42700 46600
2026-04-29 06:45 13.56 36900 49700 (2008) 582 (2000) 19300 815 3240 3950 4360 14400 33600 36800 42700 46600
2026-04-29 05:45 13.86 38200 49700 (2008) 582 (2000) 19300 815 3240 3950 4360 14400 33600 36800 42700 46600
2026-04-29 04:45 14.07 39100 49700 (2008) 582 (2000) 19300 815 3240 3950 4360 14400 33600 36800 42700 46600
2026-04-29 03:45 14.27 39900 49700 (2008) 582 (2000) 19300 815 3240 3950 4360 14400 33600 36800 42700 46600
2026-04-29 02:45 14.39 40400 49700 (2008) 582 (2000) 19300 815 3240 3950 4360 14400 33600 36800 42700 46600
2026-04-29 01:45 14.42 40500 49700 (2008) 582 (2000) 19300 815 3240 3950 4360 14400 33600 36800 42700 46600
2026-04-29 00:45 14.44 40600 49700 (2008) 582 (2000) 19300 815 3240 3950 4360 14400 33600 36800 42700 46600
2026-04-28 23:45 14.44 40600 49700 (2008) 582 (2000) 19300 815 3240 3950 4360 14400 33600 36800 42700 46600
2026-04-28 22:45 14.42 40500 50100 (2008) 606 (2000) 17800 614 1080 3360 3650 11300 32500 32800 39100 45600
2026-04-28 21:45 14.41 40500 50100 (2008) 606 (2000) 17800 614 1080 3360 3650 11300 32500 32800 39100 45600
2026-04-28 20:45 14.40 40500 50100 (2008) 606 (2000) 17800 614 1080 3360 3650 11300 32500 32800 39100 45600
2026-04-28 19:45 14.44 40600 50100 (2008) 606 (2000) 17800 614 1080 3360 3650 11300 32500 32800 39100 45600
2026-04-28 18:45 14.42 40500 50100 (2008) 606 (2000) 17800 614 1080 3360 3650 11300 32500 32800 39100 45600
2026-04-28 17:45 14.44 40600 50100 (2008) 606 (2000) 17800 614 1080 3360 3650 11300 32500 32800 39100 45600
2026-04-28 16:45 14.44 40600 50100 (2008) 606 (2000) 17800 614 1080 3360 3650 11300 32500 32800 39100 45600
2026-04-28 15:45 14.47 40800 50100 (2008) 606 (2000) 17800 614 1080 3360 3650 11300 32500 32800 39100 45600
2026-04-28 14:45 14.48 40800 50100 (2008) 606 (2000) 17800 614 1080 3360 3650 11300 32500 32800 39100 45600
2026-04-28 13:45 14.45 40700 50100 (2008) 606 (2000) 17800 614 1080 3360 3650 11300 32500 32800 39100 45600
2026-04-28 12:45 14.52 40900 50100 (2008) 606 (2000) 17800 614 1080 3360 3650 11300 32500 32800 39100 45600
2026-04-28 11:45 14.56 41100 50100 (2008) 606 (2000) 17800 614 1080 3360 3650 11300 32500 32800 39100 45600
2026-04-28 10:45 14.60 41300 50100 (2008) 606 (2000) 17800 614 1080 3360 3650 11300 32500 32800 39100 45600
2026-04-28 09:45 14.63 41400 50100 (2008) 606 (2000) 17800 614 1080 3360 3650 11300 32500 32800 39100 45600
2026-04-28 08:45 14.67 41600 50100 (2008) 606 (2000) 17800 614 1080 3360 3650 11300 32500 32800 39100 45600
2026-04-28 07:45 14.80 42200 50100 (2008) 606 (2000) 17800 614 1080 3360 3650 11300 32500 32800 39100 45600
2026-04-28 06:45 14.88 42500 50100 (2008) 606 (2000) 17800 614 1080 3360 3650 11300 32500 32800 39100 45600
2026-04-28 05:45 14.96 42800 50100 (2008) 606 (2000) 17800 614 1080 3360 3650 11300 32500 32800 39100 45600
2026-04-28 04:45 15.04 43200 50100 (2008) 606 (2000) 17800 614 1080 3360 3650 11300 32500 32800 39100 45600
2026-04-28 03:45 15.13 43600 50100 (2008) 606 (2000) 17800 614 1080 3360 3650 11300 32500 32800 39100 45600
2026-04-28 02:45 15.21 44000 50100 (2008) 606 (2000) 17800 614 1080 3360 3650 11300 32500 32800 39100 45600
2026-04-28 01:45 15.24 44100 50100 (2008) 606 (2000) 17800 614 1080 3360 3650 11300 32500 32800 39100 45600
2026-04-28 00:45 15.33 44500 50100 (2008) 606 (2000) 17800 614 1080 3360 3650 11300 32500 32800 39100 45600
2026-04-27 23:45 15.36 44600 50100 (2008) 606 (2000) 17800 614 1080 3360 3650 11300 32500 32800 39100 45600
2026-04-27 22:45 15.33 44500 50800 (2008) 624 (2000) 17600 641 1560 3860 4120 11700 30100 31600 39100 49500
2026-04-27 21:45 15.27 44200 50800 (2008) 624 (2000) 17600 641 1560 3860 4120 11700 30100 31600 39100 49500
2026-04-27 20:45 15.27 44200 50800 (2008) 624 (2000) 17600 641 1560 3860 4120 11700 30100 31600 39100 49500
2026-04-27 19:45 15.22 44000 50800 (2008) 624 (2000) 17600 641 1560 3860 4120 11700 30100 31600 39100 49500
2026-04-27 18:45 15.15 43700 50800 (2008) 624 (2000) 17600 641 1560 3860 4120 11700 30100 31600 39100 49500
2026-04-27 17:45 15.08 43400 50800 (2008) 624 (2000) 17600 641 1560 3860 4120 11700 30100 31600 39100 49500
2026-04-27 16:45 15.06 43300 50800 (2008) 624 (2000) 17600 641 1560 3860 4120 11700 30100 31600 39100 49500
2026-04-27 15:45 14.97 42900 50800 (2008) 624 (2000) 17600 641 1560 3860 4120 11700 30100 31600 39100 49500
2026-04-27 14:45 14.85 42400 50800 (2008) 624 (2000) 17600 641 1560 3860 4120 11700 30100 31600 39100 49500
2026-04-27 13:45 14.78 42100 50800 (2008) 624 (2000) 17600 641 1560 3860 4120 11700 30100 31600 39100 49500
2026-04-27 12:45 14.64 41500 50800 (2008) 624 (2000) 17600 641 1560 3860 4120 11700 30100 31600 39100 49500
2026-04-27 11:45 14.52 40900 50800 (2008) 624 (2000) 17600 641 1560 3860 4120 11700 30100 31600 39100 49500
2026-04-27 10:45 14.36 40300 50800 (2008) 624 (2000) 17600 641 1560 3860 4120 11700 30100 31600 39100 49500
2026-04-27 09:45 14.19 39500 50800 (2008) 624 (2000) 17600 641 1560 3860 4120 11700 30100 31600 39100 49500
2026-04-27 08:45 13.97 38600 50800 (2008) 624 (2000) 17600 641 1560 3860 4120 11700 30100 31600 39100 49500
2026-04-27 07:45 13.75 37700 50800 (2008) 624 (2000) 17600 641 1560 3860 4120 11700 30100 31600 39100 49500
2026-04-27 06:45 13.45 36500 50800 (2008) 624 (2000) 17600 641 1560 3860 4120 11700 30100 31600 39100 49500
2026-04-27 05:45 13.15 35300 50800 (2008) 624 (2000) 17600 641 1560 3860 4120 11700 30100 31600 39100 49500
2026-04-27 04:45 12.84 34000 50800 (2008) 624 (2000) 17600 641 1560 3860 4120 11700 30100 31600 39100 49500
2026-04-27 03:45 12.51 32700 50800 (2008) 624 (2000) 17600 641 1560 3860 4120 11700 30100 31600 39100 49500
2026-04-27 02:45 12.19 31500 50800 (2008) 624 (2000) 17600 641 1560 3860 4120 11700 30100 31600 39100 49500
2026-04-27 01:45 11.95 30600 50800 (2008) 624 (2000) 17600 641 1560 3860 4120 11700 30100 31600 39100 49500
2026-04-27 00:45 11.80 30000 50800 (2008) 624 (2000) 17600 641 1560 3860 4120 11700 30100 31600 39100 49500
2026-04-26 23:45 11.73 29700 50800 (2008) 624 (2000) 17600 641 1560 3860 4120 11700 30100 31600 39100 49500
2026-04-26 22:45 11.71 29600 53000 (2008) 617 (2000) 16800 673 1650 3320 4820 11600 31200 34300 37600 48300
2026-04-26 21:45 11.80 30000 53000 (2008) 617 (2000) 16800 673 1650 3320 4820 11600 31200 34300 37600 48300
2026-04-26 20:45 11.92 30500 53000 (2008) 617 (2000) 16800 673 1650 3320 4820 11600 31200 34300 37600 48300
2026-04-26 19:45 12.09 31100 53000 (2008) 617 (2000) 16800 673 1650 3320 4820 11600 31200 34300 37600 48300
2026-04-26 18:45 12.30 31900 53000 (2008) 617 (2000) 16800 673 1650 3320 4820 11600 31200 34300 37600 48300
2026-04-26 17:45 12.52 32700 53000 (2008) 617 (2000) 16800 673 1650 3320 4820 11600 31200 34300 37600 48300
2026-04-26 16:45 12.67 33300 53000 (2008) 617 (2000) 16800 673 1650 3320 4820 11600 31200 34300 37600 48300
2026-04-26 15:45 12.72 33500 53000 (2008) 617 (2000) 16800 673 1650 3320 4820 11600 31200 34300 37600 48300
2026-04-26 14:45 12.73 33600 53000 (2008) 617 (2000) 16800 673 1650 3320 4820 11600 31200 34300 37600 48300
2026-04-26 13:45 12.68 33400 53000 (2008) 617 (2000) 16800 673 1650 3320 4820 11600 31200 34300 37600 48300
2026-04-26 12:45 12.63 33200 53000 (2008) 617 (2000) 16800 673 1650 3320 4820 11600 31200 34300 37600 48300
2026-04-26 11:45 12.54 32800 53000 (2008) 617 (2000) 16800 673 1650 3320 4820 11600 31200 34300 37600 48300
2026-04-26 10:45 12.44 32500 53000 (2008) 617 (2000) 16800 673 1650 3320 4820 11600 31200 34300 37600 48300
2026-04-26 09:45 12.36 32100 53000 (2008) 617 (2000) 16800 673 1650 3320 4820 11600 31200 34300 37600 48300
2026-04-26 08:45 12.26 31700 53000 (2008) 617 (2000) 16800 673 1650 3320 4820 11600 31200 34300 37600 48300
2026-04-26 07:45 12.16 31400 53000 (2008) 617 (2000) 16800 673 1650 3320 4820 11600 31200 34300 37600 48300
2026-04-26 06:45 12.07 31000 53000 (2008) 617 (2000) 16800 673 1650 3320 4820 11600 31200 34300 37600 48300
2026-04-26 05:45 11.99 30700 53000 (2008) 617 (2000) 16800 673 1650 3320 4820 11600 31200 34300 37600 48300
2026-04-26 04:45 11.90 30400 53000 (2008) 617 (2000) 16800 673 1650 3320 4820 11600 31200 34300 37600 48300
2026-04-26 03:45 11.84 30100 53000 (2008) 617 (2000) 16800 673 1650 3320 4820 11600 31200 34300 37600 48300
2026-04-26 02:45 11.76 29800 53000 (2008) 617 (2000) 16800 673 1650 3320 4820 11600 31200 34300 37600 48300
2026-04-26 01:45 11.67 29500 53000 (2008) 617 (2000) 16800 673 1650 3320 4820 11600 31200 34300 37600 48300
2026-04-26 00:45 11.54 29000 53000 (2008) 617 (2000) 16800 673 1650 3320 4820 11600 31200 34300 37600 48300
2026-04-25 23:45 11.49 28800 53000 (2008) 617 (2000) 16800 673 1650 3320 4820 11600 31200 34300 37600 48300
2026-04-25 22:45 11.42 28600 52000 (2008) 636 (2000) 17300 740 1480 3790 4520 13800 31700 31800 36800 45800
2026-04-25 21:45 11.37 28400 52000 (2008) 636 (2000) 17300 740 1480 3790 4520 13800 31700 31800 36800 45800
2026-04-25 20:45 11.35 28300 52000 (2008) 636 (2000) 17300 740 1480 3790 4520 13800 31700 31800 36800 45800
2026-04-25 19:45 11.31 28200 52000 (2008) 636 (2000) 17300 740 1480 3790 4520 13800 31700 31800 36800 45800
2026-04-25 18:45 11.22 27900 52000 (2008) 636 (2000) 17300 740 1480 3790 4520 13800 31700 31800 36800 45800
2026-04-25 17:45 11.13 27500 52000 (2008) 636 (2000) 17300 740 1480 3790 4520 13800 31700 31800 36800 45800
2026-04-25 16:45 11.03 27100 52000 (2008) 636 (2000) 17300 740 1480 3790 4520 13800 31700 31800 36800 45800
2026-04-25 15:45 10.94 26800 52000 (2008) 636 (2000) 17300 740 1480 3790 4520 13800 31700 31800 36800 45800
2026-04-25 14:45 10.90 26700 52000 (2008) 636 (2000) 17300 740 1480 3790 4520 13800 31700 31800 36800 45800
2026-04-25 13:45 10.90 26700 52000 (2008) 636 (2000) 17300 740 1480 3790 4520 13800 31700 31800 36800 45800
2026-04-25 12:45 10.98 27000 52000 (2008) 636 (2000) 17300 740 1480 3790 4520 13800 31700 31800 36800 45800
2026-04-25 11:45 11.09 27400 52000 (2008) 636 (2000) 17300 740 1480 3790 4520 13800 31700 31800 36800 45800
2026-04-25 10:45 11.20 27800 52000 (2008) 636 (2000) 17300 740 1480 3790 4520 13800 31700 31800 36800 45800
2026-04-25 09:45 11.31 28200 52000 (2008) 636 (2000) 17300 740 1480 3790 4520 13800 31700 31800 36800 45800
2026-04-25 08:45 11.36 28300 52000 (2008) 636 (2000) 17300 740 1480 3790 4520 13800 31700 31800 36800 45800
2026-04-25 07:45 11.38 28400 52000 (2008) 636 (2000) 17300 740 1480 3790 4520 13800 31700 31800 36800 45800
2026-04-25 06:45 11.36 28300 52000 (2008) 636 (2000) 17300 740 1480 3790 4520 13800 31700 31800 36800 45800
2026-04-25 05:45 11.37 28400 52000 (2008) 636 (2000) 17300 740 1480 3790 4520 13800 31700 31800 36800 45800
2026-04-25 04:45 11.37 28400 52000 (2008) 636 (2000) 17300 740 1480 3790 4520 13800 31700 31800 36800 45800
2026-04-25 03:45 11.38 28400 52000 (2008) 636 (2000) 17300 740 1480 3790 4520 13800 31700 31800 36800 45800
2026-04-25 02:45 11.41 28500 52000 (2008) 636 (2000) 17300 740 1480 3790 4520 13800 31700 31800 36800 45800
2026-04-25 01:45 11.42 28600 52000 (2008) 636 (2000) 17300 740 1480 3790 4520 13800 31700 31800 36800 45800
2026-04-25 00:45 11.44 28600 52000 (2008) 636 (2000) 17300 740 1480 3790 4520 13800 31700 31800 36800 45800
2026-04-24 23:45 11.44 28600 52000 (2008) 636 (2000) 17300 740 1480 3790 4520 13800 31700 31800 36800 45800
2026-04-24 22:45 11.47 28800 50200 (2008) 633 (2000) 16700 785 1310 3310 4410 9240 31000 32200 35400 44900
2026-04-24 21:45 11.52 29000 50200 (2008) 633 (2000) 16700 785 1310 3310 4410 9240 31000 32200 35400 44900
2026-04-24 20:45 11.54 29000 50200 (2008) 633 (2000) 16700 785 1310 3310 4410 9240 31000 32200 35400 44900
2026-04-24 19:45 11.58 29200 50200 (2008) 633 (2000) 16700 785 1310 3310 4410 9240 31000 32200 35400 44900
2026-04-24 18:45 11.63 29400 50200 (2008) 633 (2000) 16700 785 1310 3310 4410 9240 31000 32200 35400 44900
2026-04-24 17:45 11.63 29400 50200 (2008) 633 (2000) 16700 785 1310 3310 4410 9240 31000 32200 35400 44900
2026-04-24 16:45 11.72 29700 50200 (2008) 633 (2000) 16700 785 1310 3310 4410 9240 31000 32200 35400 44900
2026-04-24 15:45 11.80 30000 50200 (2008) 633 (2000) 16700 785 1310 3310 4410 9240 31000 32200 35400 44900
2026-04-24 14:45 11.87 30300 50200 (2008) 633 (2000) 16700 785 1310 3310 4410 9240 31000 32200 35400 44900
2026-04-24 13:45 11.96 30600 50200 (2008) 633 (2000) 16700 785 1310 3310 4410 9240 31000 32200 35400 44900
2026-04-24 12:45 12.07 31000 50200 (2008) 633 (2000) 16700 785 1310 3310 4410 9240 31000 32200 35400 44900
2026-04-24 11:45 12.22 31600 50200 (2008) 633 (2000) 16700 785 1310 3310 4410 9240 31000 32200 35400 44900
2026-04-24 10:45 12.36 32100 50200 (2008) 633 (2000) 16700 785 1310 3310 4410 9240 31000 32200 35400 44900
2026-04-24 09:45 12.41 32300 50200 (2008) 633 (2000) 16700 785 1310 3310 4410 9240 31000 32200 35400 44900
2026-04-24 08:45 12.57 32900 50200 (2008) 633 (2000) 16700 785 1310 3310 4410 9240 31000 32200 35400 44900
2026-04-24 07:45 12.61 33100 50200 (2008) 633 (2000) 16700 785 1310 3310 4410 9240 31000 32200 35400 44900
2026-04-24 06:45 12.67 33300 50200 (2008) 633 (2000) 16700 785 1310 3310 4410 9240 31000 32200 35400 44900
2026-04-24 05:45 12.72 33500 50200 (2008) 633 (2000) 16700 785 1310 3310 4410 9240 31000 32200 35400 44900
2026-04-24 04:45 12.70 33500 50200 (2008) 633 (2000) 16700 785 1310 3310 4410 9240 31000 32200 35400 44900
2026-04-24 03:45 12.72 33500 50200 (2008) 633 (2000) 16700 785 1310 3310 4410 9240 31000 32200 35400 44900
2026-04-24 02:45 12.69 33400 50200 (2008) 633 (2000) 16700 785 1310 3310 4410 9240 31000 32200 35400 44900
2026-04-24 01:45 12.66 33300 50200 (2008) 633 (2000) 16700 785 1310 3310 4410 9240 31000 32200 35400 44900
2026-04-24 00:45 12.70 33500 50200 (2008) 633 (2000) 16700 785 1310 3310 4410 9240 31000 32200 35400 44900
2026-04-23 23:45 12.69 33400 50200 (2008) 633 (2000) 16700 785 1310 3310 4410 9240 31000 32200 35400 44900
2026-04-23 22:45 12.67 33300 49600 (2008) 635 (2000) 16200 644 1230 3130 4020 8500 30000 32800 34900 43400
2026-04-23 21:45 12.67 33300 49600 (2008) 635 (2000) 16200 644 1230 3130 4020 8500 30000 32800 34900 43400
2026-04-23 20:45 12.70 33500 49600 (2008) 635 (2000) 16200 644 1230 3130 4020 8500 30000 32800 34900 43400
2026-04-23 19:45 12.72 33500 49600 (2008) 635 (2000) 16200 644 1230 3130 4020 8500 30000 32800 34900 43400
2026-04-23 18:45 12.74 33600 49600 (2008) 635 (2000) 16200 644 1230 3130 4020 8500 30000 32800 34900 43400
2026-04-23 17:45 12.77 33700 49600 (2008) 635 (2000) 16200 644 1230 3130 4020 8500 30000 32800 34900 43400
2026-04-23 16:45 12.79 33800 49600 (2008) 635 (2000) 16200 644 1230 3130 4020 8500 30000 32800 34900 43400
2026-04-23 15:45 12.83 34000 49600 (2008) 635 (2000) 16200 644 1230 3130 4020 8500 30000 32800 34900 43400
2026-04-23 14:45 12.84 34000 49600 (2008) 635 (2000) 16200 644 1230 3130 4020 8500 30000 32800 34900 43400
2026-04-23 13:45 12.90 34200 49600 (2008) 635 (2000) 16200 644 1230 3130 4020 8500 30000 32800 34900 43400
2026-04-23 12:45 12.92 34300 49600 (2008) 635 (2000) 16200 644 1230 3130 4020 8500 30000 32800 34900 43400
2026-04-23 11:45 12.99 34600 49600 (2008) 635 (2000) 16200 644 1230 3130 4020 8500 30000 32800 34900 43400
2026-04-23 10:45 13.02 34700 49600 (2008) 635 (2000) 16200 644 1230 3130 4020 8500 30000 32800 34900 43400
2026-04-23 09:45 13.08 35000 49600 (2008) 635 (2000) 16200 644 1230 3130 4020 8500 30000 32800 34900 43400
2026-04-23 08:45 13.11 35100 49600 (2008) 635 (2000) 16200 644 1230 3130 4020 8500 30000 32800 34900 43400
2026-04-23 07:45 13.13 35200 49600 (2008) 635 (2000) 16200 644 1230 3130 4020 8500 30000 32800 34900 43400
2026-04-23 06:45 13.18 35400 49600 (2008) 635 (2000) 16200 644 1230 3130 4020 8500 30000 32800 34900 43400
2026-04-23 05:45 13.18 35400 49600 (2008) 635 (2000) 16200 644 1230 3130 4020 8500 30000 32800 34900 43400
2026-04-23 04:45 13.23 35600 49600 (2008) 635 (2000) 16200 644 1230 3130 4020 8500 30000 32800 34900 43400
2026-04-23 03:45 13.24 35600 49600 (2008) 635 (2000) 16200 644 1230 3130 4020 8500 30000 32800 34900 43400
2026-04-23 02:45 13.22 35600 49600 (2008) 635 (2000) 16200 644 1230 3130 4020 8500 30000 32800 34900 43400
2026-04-23 01:45 13.20 35500 49600 (2008) 635 (2000) 16200 644 1230 3130 4020 8500 30000 32800 34900 43400
2026-04-23 00:45 13.24 35600 49600 (2008) 635 (2000) 16200 644 1230 3130 4020 8500 30000 32800 34900 43400
2026-04-22 23:45 13.24 35600 49600 (2008) 635 (2000) 16200 644 1230 3130 4020 8500 30000 32800 34900 43400
2026-04-22 22:45 13.21 35500 49100 (2008) 552 (2006) 16500 611 697 3440 3930 11100 31600 32400 36800 43600
2026-04-22 21:45 13.21 35500 49100 (2008) 552 (2006) 16500 611 697 3440 3930 11100 31600 32400 36800 43600
2026-04-22 20:45 13.22 35600 49100 (2008) 552 (2006) 16500 611 697 3440 3930 11100 31600 32400 36800 43600
2026-04-22 19:45 13.21 35500 49100 (2008) 552 (2006) 16500 611 697 3440 3930 11100 31600 32400 36800 43600
2026-04-22 18:45 13.23 35600 49100 (2008) 552 (2006) 16500 611 697 3440 3930 11100 31600 32400 36800 43600
2026-04-22 17:45 13.19 35400 49100 (2008) 552 (2006) 16500 611 697 3440 3930 11100 31600 32400 36800 43600
2026-04-22 16:45 13.19 35400 49100 (2008) 552 (2006) 16500 611 697 3440 3930 11100 31600 32400 36800 43600
2026-04-22 15:45 13.21 35500 49100 (2008) 552 (2006) 16500 611 697 3440 3930 11100 31600 32400 36800 43600
2026-04-22 14:45 13.19 35400 49100 (2008) 552 (2006) 16500 611 697 3440 3930 11100 31600 32400 36800 43600
2026-04-22 13:45 13.16 35300 49100 (2008) 552 (2006) 16500 611 697 3440 3930 11100 31600 32400 36800 43600
2026-04-22 12:45 13.14 35200 49100 (2008) 552 (2006) 16500 611 697 3440 3930 11100 31600 32400 36800 43600
2026-04-22 11:45 13.19 35400 49100 (2008) 552 (2006) 16500 611 697 3440 3930 11100 31600 32400 36800 43600
2026-04-22 10:45 13.17 35300 49100 (2008) 552 (2006) 16500 611 697 3440 3930 11100 31600 32400 36800 43600
2026-04-22 09:45 13.17 35300 49100 (2008) 552 (2006) 16500 611 697 3440 3930 11100 31600 32400 36800 43600
2026-04-22 08:45 13.17 35300 49100 (2008) 552 (2006) 16500 611 697 3440 3930 11100 31600 32400 36800 43600
2026-04-22 07:45 13.16 35300 49100 (2008) 552 (2006) 16500 611 697 3440 3930 11100 31600 32400 36800 43600
2026-04-22 06:45 13.15 35300 49100 (2008) 552 (2006) 16500 611 697 3440 3930 11100 31600 32400 36800 43600
2026-04-22 05:45 13.14 35200 49100 (2008) 552 (2006) 16500 611 697 3440 3930 11100 31600 32400 36800 43600
2026-04-22 04:45 13.11 35100 49100 (2008) 552 (2006) 16500 611 697 3440 3930 11100 31600 32400 36800 43600
2026-04-22 03:45 13.12 35100 49100 (2008) 552 (2006) 16500 611 697 3440 3930 11100 31600 32400 36800 43600
2026-04-22 02:45 13.07 34900 49100 (2008) 552 (2006) 16500 611 697 3440 3930 11100 31600 32400 36800 43600
2026-04-22 01:45 13.07 34900 49100 (2008) 552 (2006) 16500 611 697 3440 3930 11100 31600 32400 36800 43600
2026-04-22 00:45 13.09 35000 49100 (2008) 552 (2006) 16500 611 697 3440 3930 11100 31600 32400 36800 43600
2026-04-21 23:45 13.05 34900 49100 (2008) 552 (2006) 16500 611 697 3440 3930 11100 31600 32400 36800 43600
2026-04-21 22:45 13.04 34800 49200 (2008) 550 (2006) 17700 627 1060 3740 3980 17100 32600 33800 37900 44700
2026-04-21 21:45 13.01 34700 49200 (2008) 550 (2006) 17700 627 1060 3740 3980 17100 32600 33800 37900 44700
2026-04-21 20:45 12.99 34600 49200 (2008) 550 (2006) 17700 627 1060 3740 3980 17100 32600 33800 37900 44700
2026-04-21 19:45 12.97 34500 49200 (2008) 550 (2006) 17700 627 1060 3740 3980 17100 32600 33800 37900 44700
2026-04-21 18:45 12.94 34400 49200 (2008) 550 (2006) 17700 627 1060 3740 3980 17100 32600 33800 37900 44700
2026-04-21 17:45 12.91 34300 49200 (2008) 550 (2006) 17700 627 1060 3740 3980 17100 32600 33800 37900 44700
2026-04-21 16:45 12.91 34300 49200 (2008) 550 (2006) 17700 627 1060 3740 3980 17100 32600 33800 37900 44700
2026-04-21 15:45 12.86 34100 49200 (2008) 550 (2006) 17700 627 1060 3740 3980 17100 32600 33800 37900 44700
2026-04-21 14:45 12.86 34100 49200 (2008) 550 (2006) 17700 627 1060 3740 3980 17100 32600 33800 37900 44700
2026-04-21 13:45 12.81 33900 49200 (2008) 550 (2006) 17700 627 1060 3740 3980 17100 32600 33800 37900 44700
2026-04-21 12:45 12.85 34100 49200 (2008) 550 (2006) 17700 627 1060 3740 3980 17100 32600 33800 37900 44700
2026-04-21 11:45 12.80 33900 49200 (2008) 550 (2006) 17700 627 1060 3740 3980 17100 32600 33800 37900 44700
2026-04-21 10:45 12.78 33800 49200 (2008) 550 (2006) 17700 627 1060 3740 3980 17100 32600 33800 37900 44700
2026-04-21 09:45 12.72 33500 49200 (2008) 550 (2006) 17700 627 1060 3740 3980 17100 32600 33800 37900 44700
2026-04-21 08:45 12.67 33300 49200 (2008) 550 (2006) 17700 627 1060 3740 3980 17100 32600 33800 37900 44700
2026-04-21 07:45 12.59 33000 49200 (2008) 550 (2006) 17700 627 1060 3740 3980 17100 32600 33800 37900 44700
2026-04-21 06:45 12.49 32600 49200 (2008) 550 (2006) 17700 627 1060 3740 3980 17100 32600 33800 37900 44700
2026-04-21 05:45 12.37 32200 49200 (2008) 550 (2006) 17700 627 1060 3740 3980 17100 32600 33800 37900 44700
2026-04-21 04:45 12.27 31800 49200 (2008) 550 (2006) 17700 627 1060 3740 3980 17100 32600 33800 37900 44700
2026-04-21 03:45 12.15 31300 49200 (2008) 550 (2006) 17700 627 1060 3740 3980 17100 32600 33800 37900 44700
2026-04-21 02:45 12.02 30800 49200 (2008) 550 (2006) 17700 627 1060 3740 3980 17100 32600 33800 37900 44700
2026-04-21 01:45 11.89 30300 49200 (2008) 550 (2006) 17700 627 1060 3740 3980 17100 32600 33800 37900 44700
2026-04-21 00:45 11.75 29800 49200 (2008) 550 (2006) 17700 627 1060 3740 3980 17100 32600 33800 37900 44700
2026-04-20 23:45 11.56 29100 49200 (2008) 550 (2006) 17700 627 1060 3740 3980 17100 32600 33800 37900 44700
2026-04-20 22:45 11.44 28600 49200 (2008) 567 (2006) 17300 652 1010 3850 4320 16100 29000 31100 37800 44600
2026-04-20 21:45 11.29 28100 49200 (2008) 567 (2006) 17300 652 1010 3850 4320 16100 29000 31100 37800 44600
2026-04-20 20:45 11.12 27500 49200 (2008) 567 (2006) 17300 652 1010 3850 4320 16100 29000 31100 37800 44600
2026-04-20 19:45 10.94 26800 49200 (2008) 567 (2006) 17300 652 1010 3850 4320 16100 29000 31100 37800 44600
2026-04-20 18:45 10.76 26200 49200 (2008) 567 (2006) 17300 652 1010 3850 4320 16100 29000 31100 37800 44600
2026-04-20 17:45 10.61 25600 49200 (2008) 567 (2006) 17300 652 1010 3850 4320 16100 29000 31100 37800 44600
2026-04-20 16:45 10.49 25200 49200 (2008) 567 (2006) 17300 652 1010 3850 4320 16100 29000 31100 37800 44600
2026-04-20 15:45 10.45 25100 49200 (2008) 567 (2006) 17300 652 1010 3850 4320 16100 29000 31100 37800 44600
2026-04-20 14:45 10.45 25100 49200 (2008) 567 (2006) 17300 652 1010 3850 4320 16100 29000 31100 37800 44600
2026-04-20 13:45 10.60 25600 49200 (2008) 567 (2006) 17300 652 1010 3850 4320 16100 29000 31100 37800 44600
2026-04-20 12:45 10.78 26300 49200 (2008) 567 (2006) 17300 652 1010 3850 4320 16100 29000 31100 37800 44600
2026-04-20 11:45 11.01 27100 49200 (2008) 567 (2006) 17300 652 1010 3850 4320 16100 29000 31100 37800 44600
2026-04-20 10:45 11.29 28100 49200 (2008) 567 (2006) 17300 652 1010 3850 4320 16100 29000 31100 37800 44600
2026-04-20 09:45 11.53 29000 49200 (2008) 567 (2006) 17300 652 1010 3850 4320 16100 29000 31100 37800 44600
2026-04-20 08:45 11.75 29800 49200 (2008) 567 (2006) 17300 652 1010 3850 4320 16100 29000 31100 37800 44600
2026-04-20 07:45 11.99 30700 49200 (2008) 567 (2006) 17300 652 1010 3850 4320 16100 29000 31100 37800 44600
2026-04-20 06:45 12.16 31400 49200 (2008) 567 (2006) 17300 652 1010 3850 4320 16100 29000 31100 37800 44600
2026-04-20 05:45 12.28 31800 49200 (2008) 567 (2006) 17300 652 1010 3850 4320 16100 29000 31100 37800 44600
2026-04-20 04:45 12.37 32200 49200 (2008) 567 (2006) 17300 652 1010 3850 4320 16100 29000 31100 37800 44600
2026-04-20 03:45 12.36 32100 49200 (2008) 567 (2006) 17300 652 1010 3850 4320 16100 29000 31100 37800 44600
2026-04-20 02:45 12.40 32300 49200 (2008) 567 (2006) 17300 652 1010 3850 4320 16100 29000 31100 37800 44600
2026-04-20 01:45 12.39 32300 49200 (2008) 567 (2006) 17300 652 1010 3850 4320 16100 29000 31100 37800 44600
2026-04-20 00:45 12.42 32400 49200 (2008) 567 (2006) 17300 652 1010 3850 4320 16100 29000 31100 37800 44600
2026-04-19 23:45 12.45 32500 49200 (2008) 567 (2006) 17300 652 1010 3850 4320 16100 29000 31100 37800 44600
2026-04-19 22:45 12.55 32900 49100 (2008) 593 (2006) 16600 719 955 4060 4280 11400 28000 31200 34400 44200
2026-04-19 21:45 12.66 33300 49100 (2008) 593 (2006) 16600 719 955 4060 4280 11400 28000 31200 34400 44200
2026-04-19 20:45 12.78 33800 49100 (2008) 593 (2006) 16600 719 955 4060 4280 11400 28000 31200 34400 44200
2026-04-19 19:45 12.90 34200 49100 (2008) 593 (2006) 16600 719 955 4060 4280 11400 28000 31200 34400 44200
2026-04-19 18:45 13.05 34900 49100 (2008) 593 (2006) 16600 719 955 4060 4280 11400 28000 31200 34400 44200
2026-04-19 17:45 13.16 35300 49100 (2008) 593 (2006) 16600 719 955 4060 4280 11400 28000 31200 34400 44200
2026-04-19 16:45 13.36 36100 49100 (2008) 593 (2006) 16600 719 955 4060 4280 11400 28000 31200 34400 44200
2026-04-19 15:45 13.56 36900 49100 (2008) 593 (2006) 16600 719 955 4060 4280 11400 28000 31200 34400 44200
2026-04-19 14:45 13.78 37800 49100 (2008) 593 (2006) 16600 719 955 4060 4280 11400 28000 31200 34400 44200
2026-04-19 13:45 14.00 38800 49100 (2008) 593 (2006) 16600 719 955 4060 4280 11400 28000 31200 34400 44200
2026-04-19 12:45 14.19 39500 49100 (2008) 593 (2006) 16600 719 955 4060 4280 11400 28000 31200 34400 44200
2026-04-19 11:45 14.34 40200 49100 (2008) 593 (2006) 16600 719 955 4060 4280 11400 28000 31200 34400 44200
2026-04-19 10:45 14.47 40800 49100 (2008) 593 (2006) 16600 719 955 4060 4280 11400 28000 31200 34400 44200
2026-04-19 09:45 14.57 41200 49100 (2008) 593 (2006) 16600 719 955 4060 4280 11400 28000 31200 34400 44200
2026-04-19 08:45 14.63 41400 49100 (2008) 593 (2006) 16600 719 955 4060 4280 11400 28000 31200 34400 44200
2026-04-19 07:45 14.78 42100 49100 (2008) 593 (2006) 16600 719 955 4060 4280 11400 28000 31200 34400 44200
2026-04-19 06:45 14.85 42400 49100 (2008) 593 (2006) 16600 719 955 4060 4280 11400 28000 31200 34400 44200
2026-04-19 05:45 14.99 43000 49100 (2008) 593 (2006) 16600 719 955 4060 4280 11400 28000 31200 34400 44200
2026-04-19 04:45 15.14 43700 49100 (2008) 593 (2006) 16600 719 955 4060 4280 11400 28000 31200 34400 44200
2026-04-19 03:45 15.25 44200 49100 (2008) 593 (2006) 16600 719 955 4060 4280 11400 28000 31200 34400 44200
2026-04-19 02:45 15.39 44700 49100 (2008) 593 (2006) 16600 719 955 4060 4280 11400 28000 31200 34400 44200
2026-04-19 01:45 15.53 45400 49100 (2008) 593 (2006) 16600 719 955 4060 4280 11400 28000 31200 34400 44200
2026-04-19 00:45 15.57 45600 49100 (2008) 593 (2006) 16600 719 955 4060 4280 11400 28000 31200 34400 44200
2026-04-18 23:45 15.66 46000 49100 (2008) 593 (2006) 16600 719 955 4060 4280 11400 28000 31200 34400 44200
2026-04-18 22:45 15.72 46300 48900 (2008) 586 (2006) 16500 943 2440 3860 4030 9650 29800 32100 39100 46000
2026-04-18 21:45 15.78 46500 48900 (2008) 586 (2006) 16500 943 2440 3860 4030 9650 29800 32100 39100 46000
2026-04-18 20:45 15.88 47000 48900 (2008) 586 (2006) 16500 943 2440 3860 4030 9650 29800 32100 39100 46000
2026-04-18 19:45 15.94 47200 48900 (2008) 586 (2006) 16500 943 2440 3860 4030 9650 29800 32100 39100 46000
2026-04-18 18:45 16.03 47700 48900 (2008) 586 (2006) 16500 943 2440 3860 4030 9650 29800 32100 39100 46000
2026-04-18 17:45 16.08 47900 48900 (2008) 586 (2006) 16500 943 2440 3860 4030 9650 29800 32100 39100 46000
2026-04-18 16:45 16.13 48100 48900 (2008) 586 (2006) 16500 943 2440 3860 4030 9650 29800 32100 39100 46000
2026-04-18 15:45 16.15 48200 48900 (2008) 586 (2006) 16500 943 2440 3860 4030 9650 29800 32100 39100 46000
2026-04-18 14:45 16.12 48100 48900 (2008) 586 (2006) 16500 943 2440 3860 4030 9650 29800 32100 39100 46000
2026-04-18 13:45 16.05 47800 48900 (2008) 586 (2006) 16500 943 2440 3860 4030 9650 29800 32100 39100 46000
2026-04-18 12:45 16.04 47700 48900 (2008) 586 (2006) 16500 943 2440 3860 4030 9650 29800 32100 39100 46000
2026-04-18 11:45 15.94 47200 48900 (2008) 586 (2006) 16500 943 2440 3860 4030 9650 29800 32100 39100 46000
2026-04-18 10:45 15.80 46600 48900 (2008) 586 (2006) 16500 943 2440 3860 4030 9650 29800 32100 39100 46000
2026-04-18 09:45 15.64 45900 48900 (2008) 586 (2006) 16500 943 2440 3860 4030 9650 29800 32100 39100 46000
2026-04-18 08:45 15.45 45000 48900 (2008) 586 (2006) 16500 943 2440 3860 4030 9650 29800 32100 39100 46000
2026-04-18 07:45 15.20 43900 48900 (2008) 586 (2006) 16500 943 2440 3860 4030 9650 29800 32100 39100 46000
2026-04-18 06:45 14.92 42700 48900 (2008) 586 (2006) 16500 943 2440 3860 4030 9650 29800 32100 39100 46000
2026-04-18 05:45 14.54 41000 48900 (2008) 586 (2006) 16500 943 2440 3860 4030 9650 29800 32100 39100 46000
2026-04-18 04:45 14.15 39400 48900 (2008) 586 (2006) 16500 943 2440 3860 4030 9650 29800 32100 39100 46000
2026-04-18 03:45 13.71 37500 48900 (2008) 586 (2006) 16500 943 2440 3860 4030 9650 29800 32100 39100 46000
2026-04-18 02:45 13.27 35800 48900 (2008) 586 (2006) 16500 943 2440 3860 4030 9650 29800 32100 39100 46000
2026-04-18 01:45 12.93 34400 48900 (2008) 586 (2006) 16500 943 2440 3860 4030 9650 29800 32100 39100 46000
2026-04-18 00:45 12.75 33700 48900 (2008) 586 (2006) 16500 943 2440 3860 4030 9650 29800 32100 39100 46000
2026-04-17 23:45 12.63 33200 48900 (2008) 586 (2006) 16500 943 2440 3860 4030 9650 29800 32100 39100 46000
2026-04-17 22:45 12.56 32900 48700 (2008) 587 (2006) 15900 763 1670 3880 4070 9950 28200 30100 36800 43400
2026-04-17 21:45 12.50 32700 48700 (2008) 587 (2006) 15900 763 1670 3880 4070 9950 28200 30100 36800 43400
2026-04-17 20:45 12.48 32600 48700 (2008) 587 (2006) 15900 763 1670 3880 4070 9950 28200 30100 36800 43400
2026-04-17 19:45 12.40 32300 48700 (2008) 587 (2006) 15900 763 1670 3880 4070 9950 28200 30100 36800 43400
2026-04-17 18:45 12.38 32200 48700 (2008) 587 (2006) 15900 763 1670 3880 4070 9950 28200 30100 36800 43400
2026-04-17 17:45 12.38 32200 48700 (2008) 587 (2006) 15900 763 1670 3880 4070 9950 28200 30100 36800 43400
2026-04-17 16:45 12.40 32300 48700 (2008) 587 (2006) 15900 763 1670 3880 4070 9950 28200 30100 36800 43400
2026-04-17 15:45 12.42 32400 48700 (2008) 587 (2006) 15900 763 1670 3880 4070 9950 28200 30100 36800 43400
2026-04-17 14:45 12.44 32500 48700 (2008) 587 (2006) 15900 763 1670 3880 4070 9950 28200 30100 36800 43400
2026-04-17 13:45 12.50 32700 48700 (2008) 587 (2006) 15900 763 1670 3880 4070 9950 28200 30100 36800 43400
2026-04-17 12:45 12.52 32700 48700 (2008) 587 (2006) 15900 763 1670 3880 4070 9950 28200 30100 36800 43400
2026-04-17 11:45 12.56 32900 48700 (2008) 587 (2006) 15900 763 1670 3880 4070 9950 28200 30100 36800 43400
2026-04-17 10:45 12.62 33100 48700 (2008) 587 (2006) 15900 763 1670 3880 4070 9950 28200 30100 36800 43400
2026-04-17 09:45 12.63 33200 48700 (2008) 587 (2006) 15900 763 1670 3880 4070 9950 28200 30100 36800 43400
2026-04-17 08:45 12.65 33300 48700 (2008) 587 (2006) 15900 763 1670 3880 4070 9950 28200 30100 36800 43400
2026-04-17 07:45 12.69 33400 48700 (2008) 587 (2006) 15900 763 1670 3880 4070 9950 28200 30100 36800 43400
2026-04-17 06:45 12.63 33200 48700 (2008) 587 (2006) 15900 763 1670 3880 4070 9950 28200 30100 36800 43400
2026-04-17 05:45 12.57 32900 48700 (2008) 587 (2006) 15900 763 1670 3880 4070 9950 28200 30100 36800 43400
2026-04-17 04:45 12.50 32700 48700 (2008) 587 (2006) 15900 763 1670 3880 4070 9950 28200 30100 36800 43400
2026-04-17 03:45 12.36 32100 48700 (2008) 587 (2006) 15900 763 1670 3880 4070 9950 28200 30100 36800 43400
2026-04-17 02:45 12.23 31600 48700 (2008) 587 (2006) 15900 763 1670 3880 4070 9950 28200 30100 36800 43400
2026-04-17 01:45 12.05 31000 48700 (2008) 587 (2006) 15900 763 1670 3880 4070 9950 28200 30100 36800 43400
2026-04-17 00:45 11.86 30200 48700 (2008) 587 (2006) 15900 763 1670 3880 4070 9950 28200 30100 36800 43400
2026-04-16 23:45 11.66 29400 48700 (2008) 587 (2006) 15900 763 1670 3880 4070 9950 28200 30100 36800 43400
2026-04-16 22:45 11.46 28700 48200 (2008) 601 (2006) 15700 785 1050 4530 4880 8170 28300 29500 37700 44500
2026-04-16 21:45 11.25 27900 48200 (2008) 601 (2006) 15700 785 1050 4530 4880 8170 28300 29500 37700 44500
2026-04-16 20:45 10.95 26800 48200 (2008) 601 (2006) 15700 785 1050 4530 4880 8170 28300 29500 37700 44500
2026-04-16 19:45 10.66 25800 48200 (2008) 601 (2006) 15700 785 1050 4530 4880 8170 28300 29500 37700 44500
2026-04-16 18:45 10.44 25000 48200 (2008) 601 (2006) 15700 785 1050 4530 4880 8170 28300 29500 37700 44500
2026-04-16 17:45 10.17 24100 48200 (2008) 601 (2006) 15700 785 1050 4530 4880 8170 28300 29500 37700 44500
2026-04-16 16:45 9.91 23200 48200 (2008) 601 (2006) 15700 785 1050 4530 4880 8170 28300 29500 37700 44500
2026-04-16 15:45 9.66 22400 48200 (2008) 601 (2006) 15700 785 1050 4530 4880 8170 28300 29500 37700 44500
2026-04-16 14:45 9.38 21300 48200 (2008) 601 (2006) 15700 785 1050 4530 4880 8170 28300 29500 37700 44500
2026-04-16 13:45 9.18 20600 48200 (2008) 601 (2006) 15700 785 1050 4530 4880 8170 28300 29500 37700 44500
2026-04-16 12:45 9.01 19900 48200 (2008) 601 (2006) 15700 785 1050 4530 4880 8170 28300 29500 37700 44500
2026-04-16 11:45 8.89 19400 48200 (2008) 601 (2006) 15700 785 1050 4530 4880 8170 28300 29500 37700 44500
2026-04-16 10:45 8.80 19000 48200 (2008) 601 (2006) 15700 785 1050 4530 4880 8170 28300 29500 37700 44500
2026-04-16 09:45 8.75 18800 48200 (2008) 601 (2006) 15700 785 1050 4530 4880 8170 28300 29500 37700 44500
2026-04-16 08:45 8.72 18700 48200 (2008) 601 (2006) 15700 785 1050 4530 4880 8170 28300 29500 37700 44500
2026-04-16 07:45 8.68 18600 48200 (2008) 601 (2006) 15700 785 1050 4530 4880 8170 28300 29500 37700 44500
2026-04-16 06:45 8.64 18400 48200 (2008) 601 (2006) 15700 785 1050 4530 4880 8170 28300 29500 37700 44500
2026-04-16 05:45 8.56 18100 48200 (2008) 601 (2006) 15700 785 1050 4530 4880 8170 28300 29500 37700 44500
2026-04-16 04:45 8.44 17700 48200 (2008) 601 (2006) 15700 785 1050 4530 4880 8170 28300 29500 37700 44500
2026-04-16 03:45 8.30 17200 48200 (2008) 601 (2006) 15700 785 1050 4530 4880 8170 28300 29500 37700 44500
2026-04-16 02:45 8.21 16900 48200 (2008) 601 (2006) 15700 785 1050 4530 4880 8170 28300 29500 37700 44500
2026-04-16 01:45 8.13 16600 48200 (2008) 601 (2006) 15700 785 1050 4530 4880 8170 28300 29500 37700 44500
2026-04-16 00:45 8.09 16500 48200 (2008) 601 (2006) 15700 785 1050 4530 4880 8170 28300 29500 37700 44500
2026-04-15 23:45 8.04 16300 48200 (2008) 601 (2006) 15700 785 1050 4530 4880 8170 28300 29500 37700 44500
2026-04-15 22:45 8.03 16300 42900 (2008) 597 (2006) 15700 681 1220 3960 4910 13400 26200 29400 34500 39800
2026-04-15 21:45 8.09 16500 42900 (2008) 597 (2006) 15700 681 1220 3960 4910 13400 26200 29400 34500 39800
2026-04-15 20:45 8.17 16800 42900 (2008) 597 (2006) 15700 681 1220 3960 4910 13400 26200 29400 34500 39800
2026-04-15 19:45 8.26 17100 42900 (2008) 597 (2006) 15700 681 1220 3960 4910 13400 26200 29400 34500 39800
2026-04-15 18:45 8.37 17500 42900 (2008) 597 (2006) 15700 681 1220 3960 4910 13400 26200 29400 34500 39800
2026-04-15 17:45 8.50 17900 42900 (2008) 597 (2006) 15700 681 1220 3960 4910 13400 26200 29400 34500 39800
2026-04-15 16:45 8.61 18300 42900 (2008) 597 (2006) 15700 681 1220 3960 4910 13400 26200 29400 34500 39800
2026-04-15 15:45 8.72 18700 42900 (2008) 597 (2006) 15700 681 1220 3960 4910 13400 26200 29400 34500 39800
2026-04-15 14:45 8.79 19000 42900 (2008) 597 (2006) 15700 681 1220 3960 4910 13400 26200 29400 34500 39800
2026-04-15 13:45 8.89 19400 42900 (2008) 597 (2006) 15700 681 1220 3960 4910 13400 26200 29400 34500 39800
2026-04-15 12:45 9.01 19900 42900 (2008) 597 (2006) 15700 681 1220 3960 4910 13400 26200 29400 34500 39800
2026-04-15 11:45 9.14 20400 42900 (2008) 597 (2006) 15700 681 1220 3960 4910 13400 26200 29400 34500 39800
2026-04-15 10:45 9.28 20900 42900 (2008) 597 (2006) 15700 681 1220 3960 4910 13400 26200 29400 34500 39800
2026-04-15 09:45 9.43 21500 42900 (2008) 597 (2006) 15700 681 1220 3960 4910 13400 26200 29400 34500 39800
2026-04-15 08:45 9.57 22100 42900 (2008) 597 (2006) 15700 681 1220 3960 4910 13400 26200 29400 34500 39800
2026-04-15 07:45 9.70 22500 42900 (2008) 597 (2006) 15700 681 1220 3960 4910 13400 26200 29400 34500 39800
2026-04-15 06:45 9.80 22900 42900 (2008) 597 (2006) 15700 681 1220 3960 4910 13400 26200 29400 34500 39800
2026-04-15 05:45 9.85 23000 42900 (2008) 597 (2006) 15700 681 1220 3960 4910 13400 26200 29400 34500 39800
2026-04-15 04:45 9.84 23000 42900 (2008) 597 (2006) 15700 681 1220 3960 4910 13400 26200 29400 34500 39800
2026-04-15 03:45 9.86 23100 42900 (2008) 597 (2006) 15700 681 1220 3960 4910 13400 26200 29400 34500 39800
2026-04-15 02:45 9.85 23000 42900 (2008) 597 (2006) 15700 681 1220 3960 4910 13400 26200 29400 34500 39800
2026-04-15 01:45 9.84 23000 42900 (2008) 597 (2006) 15700 681 1220 3960 4910 13400 26200 29400 34500 39800
2026-04-15 00:45 9.83 23000 42900 (2008) 597 (2006) 15700 681 1220 3960 4910 13400 26200 29400 34500 39800
2026-04-14 23:45 9.79 22800 42900 (2008) 597 (2006) 15700 681 1220 3960 4910 13400 26200 29400 34500 39800
2026-04-14 22:45 9.81 22900 36500 (2021) 606 (2006) 15200 696 990 3450 4510 12500 26700 28300 33500 35400
2026-04-14 21:45 9.81 22900 36500 (2021) 606 (2006) 15200 696 990 3450 4510 12500 26700 28300 33500 35400
2026-04-14 20:45 9.83 23000 36500 (2021) 606 (2006) 15200 696 990 3450 4510 12500 26700 28300 33500 35400
2026-04-14 19:45 9.84 23000 36500 (2021) 606 (2006) 15200 696 990 3450 4510 12500 26700 28300 33500 35400
2026-04-14 18:45 9.82 22900 36500 (2021) 606 (2006) 15200 696 990 3450 4510 12500 26700 28300 33500 35400
2026-04-14 17:45 9.84 23000 36500 (2021) 606 (2006) 15200 696 990 3450 4510 12500 26700 28300 33500 35400
2026-04-14 16:45 9.80 22900 36500 (2021) 606 (2006) 15200 696 990 3450 4510 12500 26700 28300 33500 35400
2026-04-14 15:45 9.81 22900 36500 (2021) 606 (2006) 15200 696 990 3450 4510 12500 26700 28300 33500 35400
2026-04-14 14:45 9.82 22900 36500 (2021) 606 (2006) 15200 696 990 3450 4510 12500 26700 28300 33500 35400
2026-04-14 13:45 9.85 23000 36500 (2021) 606 (2006) 15200 696 990 3450 4510 12500 26700 28300 33500 35400
2026-04-14 12:45 9.89 23200 36500 (2021) 606 (2006) 15200 696 990 3450 4510 12500 26700 28300 33500 35400
2026-04-14 11:45 9.93 23300 36500 (2021) 606 (2006) 15200 696 990 3450 4510 12500 26700 28300 33500 35400
2026-04-14 09:45 10.05 23700 36500 (2021) 606 (2006) 15200 696 990 3450 4510 12500 26700 28300 33500 35400
2026-04-14 08:45 10.11 23900 36500 (2021) 606 (2006) 15200 696 990 3450 4510 12500 26700 28300 33500 35400
2026-04-14 07:45 10.16 24100 36500 (2021) 606 (2006) 15200 696 990 3450 4510 12500 26700 28300 33500 35400
2026-04-14 06:45 10.18 24100 36500 (2021) 606 (2006) 15200 696 990 3450 4510 12500 26700 28300 33500 35400
2026-04-14 05:45 10.17 24100 36500 (2021) 606 (2006) 15200 696 990 3450 4510 12500 26700 28300 33500 35400
2026-04-14 04:45 10.16 24100 36500 (2021) 606 (2006) 15200 696 990 3450 4510 12500 26700 28300 33500 35400
2026-04-14 03:45 10.12 23900 36500 (2021) 606 (2006) 15200 696 990 3450 4510 12500 26700 28300 33500 35400
2026-04-14 02:45 10.01 23600 36500 (2021) 606 (2006) 15200 696 990 3450 4510 12500 26700 28300 33500 35400
2026-04-14 01:45 9.94 23300 36500 (2021) 606 (2006) 15200 696 990 3450 4510 12500 26700 28300 33500 35400
2026-04-14 00:45 9.76 22700 36500 (2021) 606 (2006) 15200 696 990 3450 4510 12500 26700 28300 33500 35400
2026-04-13 23:45 9.63 22300 36500 (2021) 606 (2006) 15200 696 990 3450 4510 12500 26700 28300 33500 35400
2026-04-13 22:45 9.43 21500 40500 (2021) 607 (2006) 14400 869 1200 3900 4280 10500 24900 27700 34000 37900
2026-04-13 21:45 9.27 20900 40500 (2021) 607 (2006) 14400 869 1200 3900 4280 10500 24900 27700 34000 37900
2026-04-13 20:45 9.07 20100 40500 (2021) 607 (2006) 14400 869 1200 3900 4280 10500 24900 27700 34000 37900
2026-04-13 19:45 8.94 19600 40500 (2021) 607 (2006) 14400 869 1200 3900 4280 10500 24900 27700 34000 37900
2026-04-13 18:45 8.82 19100 40500 (2021) 607 (2006) 14400 869 1200 3900 4280 10500 24900 27700 34000 37900
2026-04-13 17:45 8.68 18600 40500 (2021) 607 (2006) 14400 869 1200 3900 4280 10500 24900 27700 34000 37900
2026-04-13 16:45 8.58 18200 40500 (2021) 607 (2006) 14400 869 1200 3900 4280 10500 24900 27700 34000 37900
2026-04-13 15:45 8.45 17700 40500 (2021) 607 (2006) 14400 869 1200 3900 4280 10500 24900 27700 34000 37900
2026-04-13 14:45 8.31 17300 40500 (2021) 607 (2006) 14400 869 1200 3900 4280 10500 24900 27700 34000 37900
2026-04-13 13:45 8.17 16800 40500 (2021) 607 (2006) 14400 869 1200 3900 4280 10500 24900 27700 34000 37900
2026-04-13 12:45 8.05 16400 40500 (2021) 607 (2006) 14400 869 1200 3900 4280 10500 24900 27700 34000 37900
2026-04-13 11:45 7.96 16000 40500 (2021) 607 (2006) 14400 869 1200 3900 4280 10500 24900 27700 34000 37900
2026-04-13 10:45 7.90 15800 40500 (2021) 607 (2006) 14400 869 1200 3900 4280 10500 24900 27700 34000 37900
2026-04-13 09:45 7.90 15800 40500 (2021) 607 (2006) 14400 869 1200 3900 4280 10500 24900 27700 34000 37900
2026-04-13 08:45 7.93 15900 40500 (2021) 607 (2006) 14400 869 1200 3900 4280 10500 24900 27700 34000 37900
2026-04-13 07:45 7.95 16000 40500 (2021) 607 (2006) 14400 869 1200 3900 4280 10500 24900 27700 34000 37900
2026-04-13 06:45 7.99 16100 40500 (2021) 607 (2006) 14400 869 1200 3900 4280 10500 24900 27700 34000 37900
2026-04-13 05:45 8.02 16200 40500 (2021) 607 (2006) 14400 869 1200 3900 4280 10500 24900 27700 34000 37900
2026-04-13 04:45 8.07 16400 40500 (2021) 607 (2006) 14400 869 1200 3900 4280 10500 24900 27700 34000 37900
2026-04-13 03:45 8.11 16600 40500 (2021) 607 (2006) 14400 869 1200 3900 4280 10500 24900 27700 34000 37900
2026-04-13 02:45 8.14 16700 40500 (2021) 607 (2006) 14400 869 1200 3900 4280 10500 24900 27700 34000 37900
2026-04-13 01:45 8.22 16900 40500 (2021) 607 (2006) 14400 869 1200 3900 4280 10500 24900 27700 34000 37900
2026-04-13 00:45 8.26 17100 40500 (2021) 607 (2006) 14400 869 1200 3900 4280 10500 24900 27700 34000 37900
2026-04-12 23:45 8.32 17300 40500 (2021) 607 (2006) 14400 869 1200 3900 4280 10500 24900 27700 34000 37900
2026-04-12 22:45 8.39 17500 40700 (2021) 616 (2006) 15200 1100 2740 4440 5190 11600 26500 30500 33800 38500
2026-04-12 21:45 8.47 17800 40700 (2021) 616 (2006) 15200 1100 2740 4440 5190 11600 26500 30500 33800 38500
2026-04-12 20:45 8.53 18000 40700 (2021) 616 (2006) 15200 1100 2740 4440 5190 11600 26500 30500 33800 38500
2026-04-12 19:45 8.60 18300 40700 (2021) 616 (2006) 15200 1100 2740 4440 5190 11600 26500 30500 33800 38500
2026-04-12 18:45 8.67 18500 40700 (2021) 616 (2006) 15200 1100 2740 4440 5190 11600 26500 30500 33800 38500
2026-04-12 17:45 8.73 18800 40700 (2021) 616 (2006) 15200 1100 2740 4440 5190 11600 26500 30500 33800 38500
2026-04-12 16:45 8.77 18900 40700 (2021) 616 (2006) 15200 1100 2740 4440 5190 11600 26500 30500 33800 38500
2026-04-12 15:45 8.80 19000 40700 (2021) 616 (2006) 15200 1100 2740 4440 5190 11600 26500 30500 33800 38500
2026-04-12 14:45 8.81 19100 40700 (2021) 616 (2006) 15200 1100 2740 4440 5190 11600 26500 30500 33800 38500
2026-04-12 13:45 8.81 19100 40700 (2021) 616 (2006) 15200 1100 2740 4440 5190 11600 26500 30500 33800 38500
2026-04-12 12:45 8.80 19000 40700 (2021) 616 (2006) 15200 1100 2740 4440 5190 11600 26500 30500 33800 38500
2026-04-12 11:45 8.77 18900 40700 (2021) 616 (2006) 15200 1100 2740 4440 5190 11600 26500 30500 33800 38500
2026-04-12 10:45 8.72 18700 40700 (2021) 616 (2006) 15200 1100 2740 4440 5190 11600 26500 30500 33800 38500
2026-04-12 09:45 8.72 18700 40700 (2021) 616 (2006) 15200 1100 2740 4440 5190 11600 26500 30500 33800 38500
2026-04-12 08:45 8.68 18600 40700 (2021) 616 (2006) 15200 1100 2740 4440 5190 11600 26500 30500 33800 38500
2026-04-12 07:45 8.64 18400 40700 (2021) 616 (2006) 15200 1100 2740 4440 5190 11600 26500 30500 33800 38500
2026-04-12 06:45 8.60 18300 40700 (2021) 616 (2006) 15200 1100 2740 4440 5190 11600 26500 30500 33800 38500
2026-04-12 05:45 8.55 18100 40700 (2021) 616 (2006) 15200 1100 2740 4440 5190 11600 26500 30500 33800 38500
2026-04-12 04:45 8.49 17900 40700 (2021) 616 (2006) 15200 1100 2740 4440 5190 11600 26500 30500 33800 38500
2026-04-12 03:45 8.42 17600 40700 (2021) 616 (2006) 15200 1100 2740 4440 5190 11600 26500 30500 33800 38500
2026-04-12 02:45 8.38 17500 40700 (2021) 616 (2006) 15200 1100 2740 4440 5190 11600 26500 30500 33800 38500
2026-04-12 01:45 8.30 17200 40700 (2021) 616 (2006) 15200 1100 2740 4440 5190 11600 26500 30500 33800 38500
2026-04-12 00:45 8.23 17000 40700 (2021) 616 (2006) 15200 1100 2740 4440 5190 11600 26500 30500 33800 38500
2026-04-11 23:45 8.14 16700 40700 (2021) 616 (2006) 15200 1100 2740 4440 5190 11600 26500 30500 33800 38500
2026-04-11 22:45 8.03 16300 57800 (2008) 641 (2006) 16000 1200 3570 5070 6280 8210 28100 31500 38300 50700
2026-04-11 21:45 7.95 16000 57800 (2008) 641 (2006) 16000 1200 3570 5070 6280 8210 28100 31500 38300 50700
2026-04-11 20:45 7.85 15700 57800 (2008) 641 (2006) 16000 1200 3570 5070 6280 8210 28100 31500 38300 50700
2026-04-11 19:45 7.76 15400 57800 (2008) 641 (2006) 16000 1200 3570 5070 6280 8210 28100 31500 38300 50700
2026-04-11 18:45 7.69 15100 57800 (2008) 641 (2006) 16000 1200 3570 5070 6280 8210 28100 31500 38300 50700
2026-04-11 17:45 7.63 14900 57800 (2008) 641 (2006) 16000 1200 3570 5070 6280 8210 28100 31500 38300 50700
2026-04-11 16:45 7.62 14900 57800 (2008) 641 (2006) 16000 1200 3570 5070 6280 8210 28100 31500 38300 50700
2026-04-11 15:45 7.64 15000 57800 (2008) 641 (2006) 16000 1200 3570 5070 6280 8210 28100 31500 38300 50700
2026-04-11 14:45 7.70 15200 57800 (2008) 641 (2006) 16000 1200 3570 5070 6280 8210 28100 31500 38300 50700
2026-04-11 13:45 7.77 15400 57800 (2008) 641 (2006) 16000 1200 3570 5070 6280 8210 28100 31500 38300 50700
2026-04-11 12:45 7.86 15700 57800 (2008) 641 (2006) 16000 1200 3570 5070 6280 8210 28100 31500 38300 50700
2026-04-11 11:45 7.98 16100 57800 (2008) 641 (2006) 16000 1200 3570 5070 6280 8210 28100 31500 38300 50700
2026-04-11 10:45 8.05 16400 57800 (2008) 641 (2006) 16000 1200 3570 5070 6280 8210 28100 31500 38300 50700
2026-04-11 09:45 8.12 16600 57800 (2008) 641 (2006) 16000 1200 3570 5070 6280 8210 28100 31500 38300 50700
2026-04-11 08:45 8.19 16800 57800 (2008) 641 (2006) 16000 1200 3570 5070 6280 8210 28100 31500 38300 50700
2026-04-11 07:45 8.22 16900 57800 (2008) 641 (2006) 16000 1200 3570 5070 6280 8210 28100 31500 38300 50700
2026-04-11 06:45 8.20 16900 57800 (2008) 641 (2006) 16000 1200 3570 5070 6280 8210 28100 31500 38300 50700
2026-04-11 05:45 8.17 16800 57800 (2008) 641 (2006) 16000 1200 3570 5070 6280 8210 28100 31500 38300 50700
2026-04-11 04:45 8.12 16600 57800 (2008) 641 (2006) 16000 1200 3570 5070 6280 8210 28100 31500 38300 50700
2026-04-11 03:45 8.09 16500 57800 (2008) 641 (2006) 16000 1200 3570 5070 6280 8210 28100 31500 38300 50700
2026-04-11 02:45 8.09 16500 57800 (2008) 641 (2006) 16000 1200 3570 5070 6280 8210 28100 31500 38300 50700
2026-04-11 01:45 8.17 16800 57800 (2008) 641 (2006) 16000 1200 3570 5070 6280 8210 28100 31500 38300 50700
2026-04-11 00:45 8.30 17200 57800 (2008) 641 (2006) 16000 1200 3570 5070 6280 8210 28100 31500 38300 50700
2026-04-10 23:45 8.46 17800 57800 (2008) 641 (2006) 16000 1200 3570 5070 6280 8210 28100 31500 38300 50700
2026-04-10 22:45 8.64 18400 51000 (2008) 653 (2006) 15900 693 1460 4990 6130 9550 28500 32200 34800 46700
2026-04-10 21:45 8.86 19300 51000 (2008) 653 (2006) 15900 693 1460 4990 6130 9550 28500 32200 34800 46700
2026-04-10 20:45 9.06 20100 51000 (2008) 653 (2006) 15900 693 1460 4990 6130 9550 28500 32200 34800 46700
2026-04-10 19:45 9.29 21000 51000 (2008) 653 (2006) 15900 693 1460 4990 6130 9550 28500 32200 34800 46700
2026-04-10 18:45 9.49 21800 51000 (2008) 653 (2006) 15900 693 1460 4990 6130 9550 28500 32200 34800 46700
2026-04-10 17:45 9.72 22600 51000 (2008) 653 (2006) 15900 693 1460 4990 6130 9550 28500 32200 34800 46700
2026-04-10 16:45 9.90 23200 51000 (2008) 653 (2006) 15900 693 1460 4990 6130 9550 28500 32200 34800 46700
2026-04-10 15:45 10.07 23800 51000 (2008) 653 (2006) 15900 693 1460 4990 6130 9550 28500 32200 34800 46700
2026-04-10 14:45 10.24 24400 51000 (2008) 653 (2006) 15900 693 1460 4990 6130 9550 28500 32200 34800 46700
2026-04-10 13:45 10.40 24900 51000 (2008) 653 (2006) 15900 693 1460 4990 6130 9550 28500 32200 34800 46700
2026-04-10 12:45 10.51 25300 51000 (2008) 653 (2006) 15900 693 1460 4990 6130 9550 28500 32200 34800 46700
2026-04-10 11:45 10.69 25900 51000 (2008) 653 (2006) 15900 693 1460 4990 6130 9550 28500 32200 34800 46700
2026-04-10 10:45 10.87 26600 51000 (2008) 653 (2006) 15900 693 1460 4990 6130 9550 28500 32200 34800 46700
2026-04-10 09:45 11.03 27100 51000 (2008) 653 (2006) 15900 693 1460 4990 6130 9550 28500 32200 34800 46700
2026-04-10 08:45 11.27 28000 51000 (2008) 653 (2006) 15900 693 1460 4990 6130 9550 28500 32200 34800 46700
2026-04-10 07:45 11.47 28800 51000 (2008) 653 (2006) 15900 693 1460 4990 6130 9550 28500 32200 34800 46700
2026-04-10 06:45 11.59 29200 51000 (2008) 653 (2006) 15900 693 1460 4990 6130 9550 28500 32200 34800 46700
2026-04-10 05:45 11.68 29500 51000 (2008) 653 (2006) 15900 693 1460 4990 6130 9550 28500 32200 34800 46700
2026-04-10 04:45 11.67 29500 51000 (2008) 653 (2006) 15900 693 1460 4990 6130 9550 28500 32200 34800 46700
2026-04-10 03:45 11.54 29000 51000 (2008) 653 (2006) 15900 693 1460 4990 6130 9550 28500 32200 34800 46700
2026-04-10 02:45 11.42 28600 51000 (2008) 653 (2006) 15900 693 1460 4990 6130 9550 28500 32200 34800 46700
2026-04-10 01:45 11.20 27800 51000 (2008) 653 (2006) 15900 693 1460 4990 6130 9550 28500 32200 34800 46700
2026-04-10 00:45 11.05 27200 51000 (2008) 653 (2006) 15900 693 1460 4990 6130 9550 28500 32200 34800 46700
2026-04-09 23:45 10.90 26700 51000 (2008) 653 (2006) 15900 693 1460 4990 6130 9550 28500 32200 34800 46700
2026-04-09 22:45 10.80 26300 43000 (2008) 659 (2006) 16700 733 2400 3720 4280 11600 28600 32300 34700 41100
2026-04-09 21:45 10.74 26100 43000 (2008) 659 (2006) 16700 733 2400 3720 4280 11600 28600 32300 34700 41100
2026-04-09 20:45 10.76 26200 43000 (2008) 659 (2006) 16700 733 2400 3720 4280 11600 28600 32300 34700 41100
2026-04-09 19:45 10.76 26200 43000 (2008) 659 (2006) 16700 733 2400 3720 4280 11600 28600 32300 34700 41100
2026-04-09 18:45 10.81 26400 43000 (2008) 659 (2006) 16700 733 2400 3720 4280 11600 28600 32300 34700 41100
2026-04-09 17:45 10.89 26600 43000 (2008) 659 (2006) 16700 733 2400 3720 4280 11600 28600 32300 34700 41100
2026-04-09 16:45 10.98 27000 43000 (2008) 659 (2006) 16700 733 2400 3720 4280 11600 28600 32300 34700 41100
2026-04-09 15:45 11.09 27400 43000 (2008) 659 (2006) 16700 733 2400 3720 4280 11600 28600 32300 34700 41100
2026-04-09 14:45 11.17 27700 43000 (2008) 659 (2006) 16700 733 2400 3720 4280 11600 28600 32300 34700 41100
2026-04-09 13:45 11.26 28000 43000 (2008) 659 (2006) 16700 733 2400 3720 4280 11600 28600 32300 34700 41100
2026-04-09 12:45 11.30 28100 43000 (2008) 659 (2006) 16700 733 2400 3720 4280 11600 28600 32300 34700 41100
2026-04-09 11:45 11.33 28200 43000 (2008) 659 (2006) 16700 733 2400 3720 4280 11600 28600 32300 34700 41100
2026-04-09 10:45 11.33 28200 43000 (2008) 659 (2006) 16700 733 2400 3720 4280 11600 28600 32300 34700 41100
2026-04-09 09:45 11.35 28300 43000 (2008) 659 (2006) 16700 733 2400 3720 4280 11600 28600 32300 34700 41100
2026-04-09 08:45 11.34 28300 43000 (2008) 659 (2006) 16700 733 2400 3720 4280 11600 28600 32300 34700 41100
2026-04-09 07:45 11.38 28400 43000 (2008) 659 (2006) 16700 733 2400 3720 4280 11600 28600 32300 34700 41100
2026-04-09 06:45 11.37 28400 43000 (2008) 659 (2006) 16700 733 2400 3720 4280 11600 28600 32300 34700 41100
2026-04-09 05:45 11.36 28300 43000 (2008) 659 (2006) 16700 733 2400 3720 4280 11600 28600 32300 34700 41100
2026-04-09 04:45 11.37 28400 43000 (2008) 659 (2006) 16700 733 2400 3720 4280 11600 28600 32300 34700 41100
2026-04-09 03:45 11.38 28400 43000 (2008) 659 (2006) 16700 733 2400 3720 4280 11600 28600 32300 34700 41100
2026-04-09 02:45 11.38 28400 43000 (2008) 659 (2006) 16700 733 2400 3720 4280 11600 28600 32300 34700 41100
2026-04-09 01:45 11.38 28400 43000 (2008) 659 (2006) 16700 733 2400 3720 4280 11600 28600 32300 34700 41100
2026-04-09 00:45 11.37 28400 43000 (2008) 659 (2006) 16700 733 2400 3720 4280 11600 28600 32300 34700 41100
2026-04-08 23:45 11.36 28300 43000 (2008) 659 (2006) 16700 733 2400 3720 4280 11600 28600 32300 34700 41100
2026-04-08 22:45 11.45 28700 43300 (2008) 650 (2006) 17800 911 1520 4670 5170 16300 31400 33200 37900 42000
2026-04-08 21:45 11.57 29100 43300 (2008) 650 (2006) 17800 911 1520 4670 5170 16300 31400 33200 37900 42000
2026-04-08 20:45 11.73 29700 43300 (2008) 650 (2006) 17800 911 1520 4670 5170 16300 31400 33200 37900 42000
2026-04-08 19:45 11.83 30100 43300 (2008) 650 (2006) 17800 911 1520 4670 5170 16300 31400 33200 37900 42000
2026-04-08 18:45 12.03 30900 43300 (2008) 650 (2006) 17800 911 1520 4670 5170 16300 31400 33200 37900 42000
2026-04-08 17:45 12.18 31400 43300 (2008) 650 (2006) 17800 911 1520 4670 5170 16300 31400 33200 37900 42000
2026-04-08 16:45 12.31 31900 43300 (2008) 650 (2006) 17800 911 1520 4670 5170 16300 31400 33200 37900 42000
2026-04-08 15:45 12.42 32400 43300 (2008) 650 (2006) 17800 911 1520 4670 5170 16300 31400 33200 37900 42000
2026-04-08 14:45 12.52 32700 43300 (2008) 650 (2006) 17800 911 1520 4670 5170 16300 31400 33200 37900 42000
2026-04-08 13:45 12.49 32600 43300 (2008) 650 (2006) 17800 911 1520 4670 5170 16300 31400 33200 37900 42000
2026-04-08 12:45 12.50 32700 43300 (2008) 650 (2006) 17800 911 1520 4670 5170 16300 31400 33200 37900 42000
2026-04-08 11:45 12.50 32700 43300 (2008) 650 (2006) 17800 911 1520 4670 5170 16300 31400 33200 37900 42000
2026-04-08 10:45 12.34 32100 43300 (2008) 650 (2006) 17800 911 1520 4670 5170 16300 31400 33200 37900 42000
2026-04-08 09:45 12.26 31700 43300 (2008) 650 (2006) 17800 911 1520 4670 5170 16300 31400 33200 37900 42000
2026-04-08 08:45 12.11 31200 43300 (2008) 650 (2006) 17800 911 1520 4670 5170 16300 31400 33200 37900 42000
2026-04-08 07:45 11.94 30500 43300 (2008) 650 (2006) 17800 911 1520 4670 5170 16300 31400 33200 37900 42000
2026-04-08 06:45 11.79 29900 43300 (2008) 650 (2006) 17800 911 1520 4670 5170 16300 31400 33200 37900 42000
2026-04-08 05:45 11.68 29500 43300 (2008) 650 (2006) 17800 911 1520 4670 5170 16300 31400 33200 37900 42000
2026-04-08 04:45 11.51 28900 43300 (2008) 650 (2006) 17800 911 1520 4670 5170 16300 31400 33200 37900 42000
2026-04-08 03:45 11.37 28400 43300 (2008) 650 (2006) 17800 911 1520 4670 5170 16300 31400 33200 37900 42000
2026-04-08 02:45 11.22 27900 43300 (2008) 650 (2006) 17800 911 1520 4670 5170 16300 31400 33200 37900 42000
2026-04-08 01:45 11.13 27500 43300 (2008) 650 (2006) 17800 911 1520 4670 5170 16300 31400 33200 37900 42000
2026-04-08 00:45 11.06 27300 43300 (2008) 650 (2006) 17800 911 1520 4670 5170 16300 31400 33200 37900 42000
2026-04-07 23:45 11.05 27200 43300 (2008) 650 (2006) 17800 911 1520 4670 5170 16300 31400 33200 37900 42000
2026-04-07 22:45 11.11 27400 46200 (2008) 654 (2006) 17700 918 1270 3960 5360 16100 31200 32900 37400 43500
2026-04-07 21:45 11.22 27900 46200 (2008) 654 (2006) 17700 918 1270 3960 5360 16100 31200 32900 37400 43500
2026-04-07 20:45 11.40 28500 46200 (2008) 654 (2006) 17700 918 1270 3960 5360 16100 31200 32900 37400 43500
2026-04-07 19:45 11.59 29200 46200 (2008) 654 (2006) 17700 918 1270 3960 5360 16100 31200 32900 37400 43500
2026-04-07 18:45 11.79 29900 46200 (2008) 654 (2006) 17700 918 1270 3960 5360 16100 31200 32900 37400 43500
2026-04-07 17:45 11.96 30600 46200 (2008) 654 (2006) 17700 918 1270 3960 5360 16100 31200 32900 37400 43500
2026-04-07 16:45 12.13 31200 46200 (2008) 654 (2006) 17700 918 1270 3960 5360 16100 31200 32900 37400 43500
2026-04-07 15:45 12.27 31800 46200 (2008) 654 (2006) 17700 918 1270 3960 5360 16100 31200 32900 37400 43500
2026-04-07 14:45 12.35 32100 46200 (2008) 654 (2006) 17700 918 1270 3960 5360 16100 31200 32900 37400 43500
2026-04-07 13:45 12.46 32500 46200 (2008) 654 (2006) 17700 918 1270 3960 5360 16100 31200 32900 37400 43500
2026-04-07 12:45 12.51 32700 46200 (2008) 654 (2006) 17700 918 1270 3960 5360 16100 31200 32900 37400 43500
2026-04-07 11:45 12.57 32900 46200 (2008) 654 (2006) 17700 918 1270 3960 5360 16100 31200 32900 37400 43500
2026-04-07 10:45 12.62 33100 46200 (2008) 654 (2006) 17700 918 1270 3960 5360 16100 31200 32900 37400 43500
2026-04-07 09:45 12.72 33500 46200 (2008) 654 (2006) 17700 918 1270 3960 5360 16100 31200 32900 37400 43500
2026-04-07 08:45 12.83 34000 46200 (2008) 654 (2006) 17700 918 1270 3960 5360 16100 31200 32900 37400 43500
2026-04-07 07:45 12.99 34600 46200 (2008) 654 (2006) 17700 918 1270 3960 5360 16100 31200 32900 37400 43500
2026-04-07 06:45 13.14 35200 46200 (2008) 654 (2006) 17700 918 1270 3960 5360 16100 31200 32900 37400 43500
2026-04-07 05:45 13.24 35600 46200 (2008) 654 (2006) 17700 918 1270 3960 5360 16100 31200 32900 37400 43500
2026-04-07 04:45 13.30 35800 46200 (2008) 654 (2006) 17700 918 1270 3960 5360 16100 31200 32900 37400 43500
2026-04-07 03:45 13.32 35900 46200 (2008) 654 (2006) 17700 918 1270 3960 5360 16100 31200 32900 37400 43500
2026-04-07 02:45 13.33 36000 46200 (2008) 654 (2006) 17700 918 1270 3960 5360 16100 31200 32900 37400 43500
2026-04-07 01:45 13.27 35800 46200 (2008) 654 (2006) 17700 918 1270 3960 5360 16100 31200 32900 37400 43500
2026-04-07 00:45 13.22 35600 46200 (2008) 654 (2006) 17700 918 1270 3960 5360 16100 31200 32900 37400 43500
2026-04-06 23:45 13.16 35300 46200 (2008) 654 (2006) 17700 918 1270 3960 5360 16100 31200 32900 37400 43500
2026-04-06 22:45 13.13 35200 47200 (2008) 650 (2006) 18100 733 1700 4470 4740 15300 31000 34200 37800 45100
2026-04-06 21:45 13.08 35000 47200 (2008) 650 (2006) 18100 733 1700 4470 4740 15300 31000 34200 37800 45100
2026-04-06 20:45 13.02 34700 47200 (2008) 650 (2006) 18100 733 1700 4470 4740 15300 31000 34200 37800 45100
2026-04-06 19:45 12.96 34500 47200 (2008) 650 (2006) 18100 733 1700 4470 4740 15300 31000 34200 37800 45100
2026-04-06 18:45 12.89 34200 47200 (2008) 650 (2006) 18100 733 1700 4470 4740 15300 31000 34200 37800 45100
2026-04-06 17:45 12.81 33900 47200 (2008) 650 (2006) 18100 733 1700 4470 4740 15300 31000 34200 37800 45100
2026-04-06 16:45 12.71 33500 47200 (2008) 650 (2006) 18100 733 1700 4470 4740 15300 31000 34200 37800 45100
2026-04-06 15:45 12.61 33100 47200 (2008) 650 (2006) 18100 733 1700 4470 4740 15300 31000 34200 37800 45100
2026-04-06 14:45 12.55 32900 47200 (2008) 650 (2006) 18100 733 1700 4470 4740 15300 31000 34200 37800 45100
2026-04-06 13:45 12.43 32400 47200 (2008) 650 (2006) 18100 733 1700 4470 4740 15300 31000 34200 37800 45100
2026-04-06 12:45 12.33 32000 47200 (2008) 650 (2006) 18100 733 1700 4470 4740 15300 31000 34200 37800 45100
2026-04-06 11:45 12.20 31500 47200 (2008) 650 (2006) 18100 733 1700 4470 4740 15300 31000 34200 37800 45100
2026-04-06 10:45 12.07 31000 47200 (2008) 650 (2006) 18100 733 1700 4470 4740 15300 31000 34200 37800 45100
2026-04-06 09:45 11.92 30500 47200 (2008) 650 (2006) 18100 733 1700 4470 4740 15300 31000 34200 37800 45100
2026-04-06 08:45 11.77 29900 47200 (2008) 650 (2006) 18100 733 1700 4470 4740 15300 31000 34200 37800 45100
2026-04-06 07:45 11.66 29400 47200 (2008) 650 (2006) 18100 733 1700 4470 4740 15300 31000 34200 37800 45100
2026-04-06 06:45 11.54 29000 47200 (2008) 650 (2006) 18100 733 1700 4470 4740 15300 31000 34200 37800 45100
2026-04-06 05:45 11.47 28800 47200 (2008) 650 (2006) 18100 733 1700 4470 4740 15300 31000 34200 37800 45100
2026-04-06 04:45 11.40 28500 47200 (2008) 650 (2006) 18100 733 1700 4470 4740 15300 31000 34200 37800 45100
2026-04-06 03:45 11.40 28500 47200 (2008) 650 (2006) 18100 733 1700 4470 4740 15300 31000 34200 37800 45100
2026-04-06 02:45 11.40 28500 47200 (2008) 650 (2006) 18100 733 1700 4470 4740 15300 31000 34200 37800 45100
2026-04-06 01:45 11.42 28600 47200 (2008) 650 (2006) 18100 733 1700 4470 4740 15300 31000 34200 37800 45100
2026-04-06 00:45 11.44 28600 47200 (2008) 650 (2006) 18100 733 1700 4470 4740 15300 31000 34200 37800 45100
2026-04-05 23:45 11.46 28700 47200 (2008) 650 (2006) 18100 733 1700 4470 4740 15300 31000 34200 37800 45100
2026-04-05 22:45 11.52 29000 48700 (2008) 679 (2006) 18400 931 2490 5150 5630 15400 31300 34400 37300 47800
2026-04-05 21:45 11.61 29300 48700 (2008) 679 (2006) 18400 931 2490 5150 5630 15400 31300 34400 37300 47800
2026-04-05 20:45 11.64 29400 48700 (2008) 679 (2006) 18400 931 2490 5150 5630 15400 31300 34400 37300 47800
2026-04-05 19:45 11.68 29500 48700 (2008) 679 (2006) 18400 931 2490 5150 5630 15400 31300 34400 37300 47800
2026-04-05 18:45 11.70 29600 48700 (2008) 679 (2006) 18400 931 2490 5150 5630 15400 31300 34400 37300 47800
2026-04-05 17:45 11.72 29700 48700 (2008) 679 (2006) 18400 931 2490 5150 5630 15400 31300 34400 37300 47800
2026-04-05 16:45 11.73 29700 48700 (2008) 679 (2006) 18400 931 2490 5150 5630 15400 31300 34400 37300 47800
2026-04-05 15:45 11.75 29800 48700 (2008) 679 (2006) 18400 931 2490 5150 5630 15400 31300 34400 37300 47800
2026-04-05 14:45 11.81 30000 48700 (2008) 679 (2006) 18400 931 2490 5150 5630 15400 31300 34400 37300 47800
2026-04-05 13:45 11.83 30100 48700 (2008) 679 (2006) 18400 931 2490 5150 5630 15400 31300 34400 37300 47800
2026-04-05 12:45 11.85 30200 48700 (2008) 679 (2006) 18400 931 2490 5150 5630 15400 31300 34400 37300 47800
2026-04-05 11:45 11.83 30100 48700 (2008) 679 (2006) 18400 931 2490 5150 5630 15400 31300 34400 37300 47800
2026-04-05 10:45 11.89 30300 48700 (2008) 679 (2006) 18400 931 2490 5150 5630 15400 31300 34400 37300 47800
2026-04-05 09:45 11.93 30500 48700 (2008) 679 (2006) 18400 931 2490 5150 5630 15400 31300 34400 37300 47800
2026-04-05 08:45 11.96 30600 48700 (2008) 679 (2006) 18400 931 2490 5150 5630 15400 31300 34400 37300 47800
2026-04-05 07:45 12.00 30800 48700 (2008) 679 (2006) 18400 931 2490 5150 5630 15400 31300 34400 37300 47800
2026-04-05 06:45 12.02 30800 48700 (2008) 679 (2006) 18400 931 2490 5150 5630 15400 31300 34400 37300 47800
2026-04-05 05:45 12.07 31000 48700 (2008) 679 (2006) 18400 931 2490 5150 5630 15400 31300 34400 37300 47800
2026-04-05 04:45 12.08 31000 48700 (2008) 679 (2006) 18400 931 2490 5150 5630 15400 31300 34400 37300 47800
2026-04-05 03:45 12.11 31200 48700 (2008) 679 (2006) 18400 931 2490 5150 5630 15400 31300 34400 37300 47800
2026-04-05 02:45 12.14 31300 48700 (2008) 679 (2006) 18400 931 2490 5150 5630 15400 31300 34400 37300 47800
2026-04-05 01:45 12.17 31400 48700 (2008) 679 (2006) 18400 931 2490 5150 5630 15400 31300 34400 37300 47800
2026-04-05 00:45 12.17 31400 48700 (2008) 679 (2006) 18400 931 2490 5150 5630 15400 31300 34400 37300 47800
2026-04-04 23:45 12.16 31400 48700 (2008) 679 (2006) 18400 931 2490 5150 5630 15400 31300 34400 37300 47800
2026-04-04 22:45 12.21 31500 53300 (2008) 748 (2006) 18900 1230 2530 4030 4260 13800 33200 34600 38100 51900
2026-04-04 21:45 12.24 31700 53300 (2008) 748 (2006) 18900 1230 2530 4030 4260 13800 33200 34600 38100 51900
2026-04-04 20:45 12.25 31700 53300 (2008) 748 (2006) 18900 1230 2530 4030 4260 13800 33200 34600 38100 51900
2026-04-04 19:45 12.23 31600 53300 (2008) 748 (2006) 18900 1230 2530 4030 4260 13800 33200 34600 38100 51900
2026-04-04 18:45 12.23 31600 53300 (2008) 748 (2006) 18900 1230 2530 4030 4260 13800 33200 34600 38100 51900
2026-04-04 17:45 12.22 31600 53300 (2008) 748 (2006) 18900 1230 2530 4030 4260 13800 33200 34600 38100 51900
2026-04-04 16:45 12.21 31500 53300 (2008) 748 (2006) 18900 1230 2530 4030 4260 13800 33200 34600 38100 51900
2026-04-04 15:45 12.17 31400 53300 (2008) 748 (2006) 18900 1230 2530 4030 4260 13800 33200 34600 38100 51900
2026-04-04 14:45 12.13 31200 53300 (2008) 748 (2006) 18900 1230 2530 4030 4260 13800 33200 34600 38100 51900
2026-04-04 13:45 12.05 31000 53300 (2008) 748 (2006) 18900 1230 2530 4030 4260 13800 33200 34600 38100 51900
2026-04-04 12:45 12.03 30900 53300 (2008) 748 (2006) 18900 1230 2530 4030 4260 13800 33200 34600 38100 51900
2026-04-04 11:45 11.94 30500 53300 (2008) 748 (2006) 18900 1230 2530 4030 4260 13800 33200 34600 38100 51900
2026-04-04 10:45 11.88 30300 53300 (2008) 748 (2006) 18900 1230 2530 4030 4260 13800 33200 34600 38100 51900
2026-04-04 09:45 11.79 29900 53300 (2008) 748 (2006) 18900 1230 2530 4030 4260 13800 33200 34600 38100 51900
2026-04-04 08:45 11.73 29700 53300 (2008) 748 (2006) 18900 1230 2530 4030 4260 13800 33200 34600 38100 51900
2026-04-04 07:45 11.59 29200 53300 (2008) 748 (2006) 18900 1230 2530 4030 4260 13800 33200 34600 38100 51900
2026-04-04 06:45 11.45 28700 53300 (2008) 748 (2006) 18900 1230 2530 4030 4260 13800 33200 34600 38100 51900
2026-04-04 05:45 11.30 28100 53300 (2008) 748 (2006) 18900 1230 2530 4030 4260 13800 33200 34600 38100 51900
2026-04-04 04:45 11.19 27700 53300 (2008) 748 (2006) 18900 1230 2530 4030 4260 13800 33200 34600 38100 51900
2026-04-04 03:45 11.12 27500 53300 (2008) 748 (2006) 18900 1230 2530 4030 4260 13800 33200 34600 38100 51900
2026-04-04 02:45 11.02 27100 53300 (2008) 748 (2006) 18900 1230 2530 4030 4260 13800 33200 34600 38100 51900
2026-04-04 01:45 10.96 26900 53300 (2008) 748 (2006) 18900 1230 2530 4030 4260 13800 33200 34600 38100 51900
2026-04-04 00:45 10.88 26600 53300 (2008) 748 (2006) 18900 1230 2530 4030 4260 13800 33200 34600 38100 51900
2026-04-03 23:45 10.78 26300 53300 (2008) 748 (2006) 18900 1230 2530 4030 4260 13800 33200 34600 38100 51900
2026-04-03 22:45 10.69 25900 52200 (2021) 750 (2003) 18500 790 1250 4420 4720 12200 34300 34600 39100 52100
2026-04-03 21:45 10.62 25700 52200 (2021) 750 (2003) 18500 790 1250 4420 4720 12200 34300 34600 39100 52100
2026-04-03 20:45 10.53 25400 52200 (2021) 750 (2003) 18500 790 1250 4420 4720 12200 34300 34600 39100 52100
2026-04-03 19:45 10.39 24900 52200 (2021) 750 (2003) 18500 790 1250 4420 4720 12200 34300 34600 39100 52100
2026-04-03 18:45 10.26 24400 52200 (2021) 750 (2003) 18500 790 1250 4420 4720 12200 34300 34600 39100 52100
2026-04-03 17:45 10.08 23800 52200 (2021) 750 (2003) 18500 790 1250 4420 4720 12200 34300 34600 39100 52100
2026-04-03 16:45 9.92 23300 52200 (2021) 750 (2003) 18500 790 1250 4420 4720 12200 34300 34600 39100 52100
2026-04-03 15:45 9.71 22600 52200 (2021) 750 (2003) 18500 790 1250 4420 4720 12200 34300 34600 39100 52100
2026-04-03 14:45 9.48 21700 52200 (2021) 750 (2003) 18500 790 1250 4420 4720 12200 34300 34600 39100 52100
2026-04-03 13:45 9.18 20600 52200 (2021) 750 (2003) 18500 790 1250 4420 4720 12200 34300 34600 39100 52100
2026-04-03 12:45 8.90 19400 52200 (2021) 750 (2003) 18500 790 1250 4420 4720 12200 34300 34600 39100 52100
2026-04-03 11:45 8.57 18200 52200 (2021) 750 (2003) 18500 790 1250 4420 4720 12200 34300 34600 39100 52100
2026-04-03 10:45 8.20 16900 52200 (2021) 750 (2003) 18500 790 1250 4420 4720 12200 34300 34600 39100 52100
2026-04-03 09:45 7.78 15400 52200 (2021) 750 (2003) 18500 790 1250 4420 4720 12200 34300 34600 39100 52100
2026-04-03 08:45 7.34 14000 52200 (2021) 750 (2003) 18500 790 1250 4420 4720 12200 34300 34600 39100 52100
2026-04-03 07:45 6.88 12600 52200 (2021) 750 (2003) 18500 790 1250 4420 4720 12200 34300 34600 39100 52100
2026-04-03 06:45 6.41 11200 52200 (2021) 750 (2003) 18500 790 1250 4420 4720 12200 34300 34600 39100 52100
2026-04-03 05:45 5.92 9810 52200 (2021) 750 (2003) 18500 790 1250 4420 4720 12200 34300 34600 39100 52100
2026-04-03 04:45 5.43 8500 52200 (2021) 750 (2003) 18500 790 1250 4420 4720 12200 34300 34600 39100 52100
2026-04-03 03:45 4.89 7040 52200 (2021) 750 (2003) 18500 790 1250 4420 4720 12200 34300 34600 39100 52100
2026-04-03 02:45 4.27 5420 52200 (2021) 750 (2003) 18500 790 1250 4420 4720 12200 34300 34600 39100 52100
2026-04-03 01:45 3.67 3900 52200 (2021) 750 (2003) 18500 790 1250 4420 4720 12200 34300 34600 39100 52100
2026-04-03 00:45 3.28 2930 52200 (2021) 750 (2003) 18500 790 1250 4420 4720 12200 34300 34600 39100 52100
2026-04-02 23:45 3.12 2570 52200 (2021) 750 (2003) 18500 790 1250 4420 4720 12200 34300 34600 39100 52100
2026-04-02 22:45 3.09 2500 54800 (2008) 963 (2006) 18200 964 1220 2950 4060 11500 33400 34500 39800 53600
2026-04-02 21:45 3.08 2480 54800 (2008) 963 (2006) 18200 964 1220 2950 4060 11500 33400 34500 39800 53600
2026-04-02 20:45 3.09 2500 54800 (2008) 963 (2006) 18200 964 1220 2950 4060 11500 33400 34500 39800 53600
2026-04-02 19:45 3.11 2540 54800 (2008) 963 (2006) 18200 964 1220 2950 4060 11500 33400 34500 39800 53600
2026-04-02 18:45 3.12 2570 54800 (2008) 963 (2006) 18200 964 1220 2950 4060 11500 33400 34500 39800 53600
2026-04-02 17:45 3.14 2610 54800 (2008) 963 (2006) 18200 964 1220 2950 4060 11500 33400 34500 39800 53600
2026-04-02 16:45 3.14 2610 54800 (2008) 963 (2006) 18200 964 1220 2950 4060 11500 33400 34500 39800 53600
2026-04-02 15:45 3.17 2670 54800 (2008) 963 (2006) 18200 964 1220 2950 4060 11500 33400 34500 39800 53600
2026-04-02 14:45 3.18 2700 54800 (2008) 963 (2006) 18200 964 1220 2950 4060 11500 33400 34500 39800 53600
2026-04-02 13:45 3.18 2700 54800 (2008) 963 (2006) 18200 964 1220 2950 4060 11500 33400 34500 39800 53600
2026-04-02 12:45 3.17 2670 54800 (2008) 963 (2006) 18200 964 1220 2950 4060 11500 33400 34500 39800 53600
2026-04-02 11:45 3.16 2650 54800 (2008) 963 (2006) 18200 964 1220 2950 4060 11500 33400 34500 39800 53600
2026-04-02 08:45 3.12 2570 54800 (2008) 963 (2006) 18200 964 1220 2950 4060 11500 33400 34500 39800 53600
2026-04-02 07:45 3.12 2570 54800 (2008) 963 (2006) 18200 964 1220 2950 4060 11500 33400 34500 39800 53600
2026-04-02 06:45 3.10 2520 54800 (2008) 963 (2006) 18200 964 1220 2950 4060 11500 33400 34500 39800 53600
2026-04-02 05:45 3.08 2480 54800 (2008) 963 (2006) 18200 964 1220 2950 4060 11500 33400 34500 39800 53600
2026-04-02 04:45 3.06 2440 54800 (2008) 963 (2006) 18200 964 1220 2950 4060 11500 33400 34500 39800 53600
2026-04-02 03:45 3.06 2440 54800 (2008) 963 (2006) 18200 964 1220 2950 4060 11500 33400 34500 39800 53600
2026-04-02 02:45 3.04 2400 54800 (2008) 963 (2006) 18200 964 1220 2950 4060 11500 33400 34500 39800 53600
2026-04-02 01:45 3.03 2380 54800 (2008) 963 (2006) 18200 964 1220 2950 4060 11500 33400 34500 39800 53600
2026-04-02 00:45 3.01 2340 54800 (2008) 963 (2006) 18200 964 1220 2950 4060 11500 33400 34500 39800 53600
2026-04-01 23:45 2.99 2300 54800 (2008) 963 (2006) 18200 964 1220 2950 4060 11500 33400 34500 39800 53600
2026-04-01 22:45 2.97 2260 65600 (2008) 1050 (2002) 17600 1230 1840 3770 4250 6750 34100 36200 40000 59000
2026-04-01 21:45 2.95 2220 65600 (2008) 1050 (2002) 17600 1230 1840 3770 4250 6750 34100 36200 40000 59000
2026-04-01 20:45 2.92 2160 65600 (2008) 1050 (2002) 17600 1230 1840 3770 4250 6750 34100 36200 40000 59000
2026-04-01 19:45 2.89 2110 65600 (2008) 1050 (2002) 17600 1230 1840 3770 4250 6750 34100 36200 40000 59000
2026-04-01 18:45 2.85 2030 65600 (2008) 1050 (2002) 17600 1230 1840 3770 4250 6750 34100 36200 40000 59000
2026-04-01 17:45 2.81 1960 65600 (2008) 1050 (2002) 17600 1230 1840 3770 4250 6750 34100 36200 40000 59000
2026-04-01 16:45 2.77 1890 65600 (2008) 1050 (2002) 17600 1230 1840 3770 4250 6750 34100 36200 40000 59000
2026-04-01 15:45 2.73 1820 65600 (2008) 1050 (2002) 17600 1230 1840 3770 4250 6750 34100 36200 40000 59000
2026-04-01 14:45 2.69 1760 65600 (2008) 1050 (2002) 17600 1230 1840 3770 4250 6750 34100 36200 40000 59000
2026-04-01 13:45 2.67 1730 65600 (2008) 1050 (2002) 17600 1230 1840 3770 4250 6750 34100 36200 40000 59000
2026-04-01 12:45 2.66 1710 65600 (2008) 1050 (2002) 17600 1230 1840 3770 4250 6750 34100 36200 40000 59000
2026-04-01 11:45 2.65 1700 65600 (2008) 1050 (2002) 17600 1230 1840 3770 4250 6750 34100 36200 40000 59000
2026-04-01 10:45 2.63 1660 65600 (2008) 1050 (2002) 17600 1230 1840 3770 4250 6750 34100 36200 40000 59000
2026-04-01 09:45 2.63 1660 65600 (2008) 1050 (2002) 17600 1230 1840 3770 4250 6750 34100 36200 40000 59000
2026-04-01 08:45 2.62 1650 65600 (2008) 1050 (2002) 17600 1230 1840 3770 4250 6750 34100 36200 40000 59000
2026-04-01 07:45 2.59 1600 65600 (2008) 1050 (2002) 17600 1230 1840 3770 4250 6750 34100 36200 40000 59000
2026-04-01 06:45 2.55 1540 65600 (2008) 1050 (2002) 17600 1230 1840 3770 4250 6750 34100 36200 40000 59000
2026-04-01 05:45 2.56 1560 65600 (2008) 1050 (2002) 17600 1230 1840 3770 4250 6750 34100 36200 40000 59000
2026-04-01 04:45 2.56 1560 65600 (2008) 1050 (2002) 17600 1230 1840 3770 4250 6750 34100 36200 40000 59000
2026-04-01 03:45 2.57 1570 65600 (2008) 1050 (2002) 17600 1230 1840 3770 4250 6750 34100 36200 40000 59000
2026-04-01 02:45 2.55 1540 65600 (2008) 1050 (2002) 17600 1230 1840 3770 4250 6750 34100 36200 40000 59000
2026-04-01 01:45 2.55 1540 65600 (2008) 1050 (2002) 17600 1230 1840 3770 4250 6750 34100 36200 40000 59000
2026-04-01 00:45 2.55 1540 65600 (2008) 1050 (2002) 17600 1230 1840 3770 4250 6750 34100 36200 40000 59000
2026-03-31 23:45 2.55 1540 65600 (2008) 1050 (2002) 17600 1230 1840 3770 4250 6750 34100 36200 40000 59000
2026-03-31 22:45 2.55 1540 51300 (2021) 1330 (2002) 16900 1340 2390 3610 4300 7090 34000 37200 40000 46600
2026-03-31 21:45 2.55 1540 51300 (2021) 1330 (2002) 16900 1340 2390 3610 4300 7090 34000 37200 40000 46600
2026-03-31 20:45 2.56 1560 51300 (2021) 1330 (2002) 16900 1340 2390 3610 4300 7090 34000 37200 40000 46600
2026-03-31 19:45 2.56 1560 51300 (2021) 1330 (2002) 16900 1340 2390 3610 4300 7090 34000 37200 40000 46600
2026-03-31 18:45 2.56 1560 51300 (2021) 1330 (2002) 16900 1340 2390 3610 4300 7090 34000 37200 40000 46600
2026-03-31 17:45 2.56 1560 51300 (2021) 1330 (2002) 16900 1340 2390 3610 4300 7090 34000 37200 40000 46600
2026-03-31 16:45 2.56 1560 51300 (2021) 1330 (2002) 16900 1340 2390 3610 4300 7090 34000 37200 40000 46600
2026-03-31 15:45 2.56 1560 51300 (2021) 1330 (2002) 16900 1340 2390 3610 4300 7090 34000 37200 40000 46600
2026-03-31 14:45 2.57 1570 51300 (2021) 1330 (2002) 16900 1340 2390 3610 4300 7090 34000 37200 40000 46600
2026-03-31 13:45 2.57 1570 51300 (2021) 1330 (2002) 16900 1340 2390 3610 4300 7090 34000 37200 40000 46600
2026-03-31 12:45 2.57 1570 51300 (2021) 1330 (2002) 16900 1340 2390 3610 4300 7090 34000 37200 40000 46600
2026-03-31 11:45 2.58 1590 51300 (2021) 1330 (2002) 16900 1340 2390 3610 4300 7090 34000 37200 40000 46600
2026-03-31 10:45 2.58 1590 51300 (2021) 1330 (2002) 16900 1340 2390 3610 4300 7090 34000 37200 40000 46600
2026-03-31 09:45 2.59 1600 51300 (2021) 1330 (2002) 16900 1340 2390 3610 4300 7090 34000 37200 40000 46600
2026-03-31 08:45 2.60 1300 51300 (2021) 1330 (2002) 16900 1340 2390 3610 4300 7090 34000 37200 40000 46600
2026-03-31 07:45 2.61 1310 51300 (2021) 1330 (2002) 16900 1340 2390 3610 4300 7090 34000 37200 40000 46600
2026-03-31 06:45 2.61 1310 51300 (2021) 1330 (2002) 16900 1340 2390 3610 4300 7090 34000 37200 40000 46600
2026-03-31 05:45 2.62 1320 51300 (2021) 1330 (2002) 16900 1340 2390 3610 4300 7090 34000 37200 40000 46600
2026-03-31 04:45 2.62 1320 51300 (2021) 1330 (2002) 16900 1340 2390 3610 4300 7090 34000 37200 40000 46600
2026-03-31 03:45 2.64 1350 51300 (2021) 1330 (2002) 16900 1340 2390 3610 4300 7090 34000 37200 40000 46600
2026-03-31 02:45 2.65 1360 51300 (2021) 1330 (2002) 16900 1340 2390 3610 4300 7090 34000 37200 40000 46600
2026-03-31 01:45 2.67 1390 51300 (2021) 1330 (2002) 16900 1340 2390 3610 4300 7090 34000 37200 40000 46600
2026-03-31 00:45 2.68 1400 51300 (2021) 1330 (2002) 16900 1340 2390 3610 4300 7090 34000 37200 40000 46600
2026-03-30 23:45 2.70 1430 51300 (2021) 1330 (2002) 16900 1340 2390 3610 4300 7090 34000 37200 40000 46600
2026-03-30 22:45 2.74 1490 51400 (2021) 1690 (2003) 17300 2170 3110 4460 4800 10400 31500 34000 39600 46800
2026-03-30 21:45 2.75 1500 51400 (2021) 1690 (2003) 17300 2170 3110 4460 4800 10400 31500 34000 39600 46800
2026-03-30 20:45 2.77 1530 51400 (2021) 1690 (2003) 17300 2170 3110 4460 4800 10400 31500 34000 39600 46800
2026-03-30 19:45 2.80 1570 51400 (2021) 1690 (2003) 17300 2170 3110 4460 4800 10400 31500 34000 39600 46800
2026-03-30 18:45 2.84 1630 51400 (2021) 1690 (2003) 17300 2170 3110 4460 4800 10400 31500 34000 39600 46800
2026-03-30 17:45 2.88 1700 51400 (2021) 1690 (2003) 17300 2170 3110 4460 4800 10400 31500 34000 39600 46800
2026-03-30 16:45 2.93 1780 51400 (2021) 1690 (2003) 17300 2170 3110 4460 4800 10400 31500 34000 39600 46800
2026-03-30 15:45 2.96 1820 51400 (2021) 1690 (2003) 17300 2170 3110 4460 4800 10400 31500 34000 39600 46800
2026-03-30 14:45 2.99 1880 51400 (2021) 1690 (2003) 17300 2170 3110 4460 4800 10400 31500 34000 39600 46800
2026-03-30 13:45 3.06 2000 51400 (2021) 1690 (2003) 17300 2170 3110 4460 4800 10400 31500 34000 39600 46800
2026-03-30 12:45 3.10 2070 51400 (2021) 1690 (2003) 17300 2170 3110 4460 4800 10400 31500 34000 39600 46800
2026-03-30 11:45 3.15 2160 51400 (2021) 1690 (2003) 17300 2170 3110 4460 4800 10400 31500 34000 39600 46800
2026-03-30 10:45 3.20 2260 51400 (2021) 1690 (2003) 17300 2170 3110 4460 4800 10400 31500 34000 39600 46800
2026-03-30 09:45 3.26 2380 51400 (2021) 1690 (2003) 17300 2170 3110 4460 4800 10400 31500 34000 39600 46800
2026-03-30 08:45 3.33 2520 51400 (2021) 1690 (2003) 17300 2170 3110 4460 4800 10400 31500 34000 39600 46800
2026-03-30 07:45 3.38 2630 51400 (2021) 1690 (2003) 17300 2170 3110 4460 4800 10400 31500 34000 39600 46800
2026-03-30 06:45 3.44 2760 51400 (2021) 1690 (2003) 17300 2170 3110 4460 4800 10400 31500 34000 39600 46800
2026-03-30 05:45 3.51 2930 51400 (2021) 1690 (2003) 17300 2170 3110 4460 4800 10400 31500 34000 39600 46800
2026-03-30 04:45 3.58 3100 51400 (2021) 1690 (2003) 17300 2170 3110 4460 4800 10400 31500 34000 39600 46800
2026-03-30 03:45 3.66 3310 51400 (2021) 1690 (2003) 17300 2170 3110 4460 4800 10400 31500 34000 39600 46800
2026-03-30 02:45 3.73 3490 51400 (2021) 1690 (2003) 17300 2170 3110 4460 4800 10400 31500 34000 39600 46800
2026-03-30 01:45 3.81 3690 51400 (2021) 1690 (2003) 17300 2170 3110 4460 4800 10400 31500 34000 39600 46800
2026-03-30 00:45 3.89 3890 51400 (2021) 1690 (2003) 17300 2170 3110 4460 4800 10400 31500 34000 39600 46800
2026-03-29 23:45 3.96 4080 51400 (2021) 1690 (2003) 17300 2170 3110 4460 4800 10400 31500 34000 39600 46800
2026-03-29 22:45 4.04 4280 51300 (2021) 2170 (2019) 18200 2350 3510 4050 4680 12700 31800 34500 38500 47100
2026-03-29 21:45 4.11 4460 51300 (2021) 2170 (2019) 18200 2350 3510 4050 4680 12700 31800 34500 38500 47100
2026-03-29 20:45 4.18 4640 51300 (2021) 2170 (2019) 18200 2350 3510 4050 4680 12700 31800 34500 38500 47100
2026-03-29 19:45 4.26 4860 51300 (2021) 2170 (2019) 18200 2350 3510 4050 4680 12700 31800 34500 38500 47100
2026-03-29 18:45 4.33 5050 51300 (2021) 2170 (2019) 18200 2350 3510 4050 4680 12700 31800 34500 38500 47100
2026-03-29 17:45 4.39 5200 51300 (2021) 2170 (2019) 18200 2350 3510 4050 4680 12700 31800 34500 38500 47100
2026-03-29 16:45 4.44 5330 51300 (2021) 2170 (2019) 18200 2350 3510 4050 4680 12700 31800 34500 38500 47100
2026-03-29 15:45 4.50 5490 51300 (2021) 2170 (2019) 18200 2350 3510 4050 4680 12700 31800 34500 38500 47100
2026-03-29 14:45 4.54 5600 51300 (2021) 2170 (2019) 18200 2350 3510 4050 4680 12700 31800 34500 38500 47100
2026-03-29 13:45 4.56 5660 51300 (2021) 2170 (2019) 18200 2350 3510 4050 4680 12700 31800 34500 38500 47100
2026-03-29 12:45 4.59 5740 51300 (2021) 2170 (2019) 18200 2350 3510 4050 4680 12700 31800 34500 38500 47100
2026-03-29 11:45 4.59 5740 51300 (2021) 2170 (2019) 18200 2350 3510 4050 4680 12700 31800 34500 38500 47100
2026-03-29 10:45 4.59 5740 51300 (2021) 2170 (2019) 18200 2350 3510 4050 4680 12700 31800 34500 38500 47100
2026-03-29 09:45 4.57 5690 51300 (2021) 2170 (2019) 18200 2350 3510 4050 4680 12700 31800 34500 38500 47100
2026-03-29 08:45 4.53 5580 51300 (2021) 2170 (2019) 18200 2350 3510 4050 4680 12700 31800 34500 38500 47100
2026-03-29 07:45 4.49 5470 51300 (2021) 2170 (2019) 18200 2350 3510 4050 4680 12700 31800 34500 38500 47100
2026-03-29 06:45 4.45 5360 51300 (2021) 2170 (2019) 18200 2350 3510 4050 4680 12700 31800 34500 38500 47100
2026-03-29 05:45 4.40 5230 51300 (2021) 2170 (2019) 18200 2350 3510 4050 4680 12700 31800 34500 38500 47100
2026-03-29 04:45 4.35 5100 51300 (2021) 2170 (2019) 18200 2350 3510 4050 4680 12700 31800 34500 38500 47100
2026-03-29 03:45 4.32 5020 51300 (2021) 2170 (2019) 18200 2350 3510 4050 4680 12700 31800 34500 38500 47100
2026-03-29 02:45 4.31 5000 51300 (2021) 2170 (2019) 18200 2350 3510 4050 4680 12700 31800 34500 38500 47100
2026-03-29 01:45 4.32 5020 51300 (2021) 2170 (2019) 18200 2350 3510 4050 4680 12700 31800 34500 38500 47100
2026-03-29 00:45 4.34 5070 51300 (2021) 2170 (2019) 18200 2350 3510 4050 4680 12700 31800 34500 38500 47100
2026-03-28 23:45 4.35 5100 51300 (2021) 2170 (2019) 18200 2350 3510 4050 4680 12700 31800 34500 38500 47100
2026-03-28 22:45 4.36 5130 51300 (2021) 1820 (2017) 18800 2490 3370 4270 4710 16000 31300 35200 37100 47000
2026-03-28 21:45 4.34 5070 51300 (2021) 1820 (2017) 18800 2490 3370 4270 4710 16000 31300 35200 37100 47000
2026-03-28 20:45 4.31 5000 51300 (2021) 1820 (2017) 18800 2490 3370 4270 4710 16000 31300 35200 37100 47000
2026-03-28 19:45 4.25 4830 51300 (2021) 1820 (2017) 18800 2490 3370 4270 4710 16000 31300 35200 37100 47000
2026-03-28 18:45 4.18 4640 51300 (2021) 1820 (2017) 18800 2490 3370 4270 4710 16000 31300 35200 37100 47000
2026-03-28 17:45 4.08 4380 51300 (2021) 1820 (2017) 18800 2490 3370 4270 4710 16000 31300 35200 37100 47000
2026-03-28 16:45 3.98 4130 51300 (2021) 1820 (2017) 18800 2490 3370 4270 4710 16000 31300 35200 37100 47000
2026-03-28 15:45 3.89 3890 51300 (2021) 1820 (2017) 18800 2490 3370 4270 4710 16000 31300 35200 37100 47000
2026-03-28 14:45 3.83 3740 51300 (2021) 1820 (2017) 18800 2490 3370 4270 4710 16000 31300 35200 37100 47000
2026-03-28 13:45 3.81 3690 51300 (2021) 1820 (2017) 18800 2490 3370 4270 4710 16000 31300 35200 37100 47000
2026-03-28 12:45 3.81 3690 51300 (2021) 1820 (2017) 18800 2490 3370 4270 4710 16000 31300 35200 37100 47000
2026-03-28 11:45 3.82 3710 51300 (2021) 1820 (2017) 18800 2490 3370 4270 4710 16000 31300 35200 37100 47000
2026-03-28 10:45 3.83 3740 51300 (2021) 1820 (2017) 18800 2490 3370 4270 4710 16000 31300 35200 37100 47000
2026-03-28 09:45 3.84 3760 51300 (2021) 1820 (2017) 18800 2490 3370 4270 4710 16000 31300 35200 37100 47000
2026-03-28 08:45 3.86 3820 51300 (2021) 1820 (2017) 18800 2490 3370 4270 4710 16000 31300 35200 37100 47000
2026-03-28 07:45 3.87 3840 51300 (2021) 1820 (2017) 18800 2490 3370 4270 4710 16000 31300 35200 37100 47000
2026-03-28 06:45 3.89 3890 51300 (2021) 1820 (2017) 18800 2490 3370 4270 4710 16000 31300 35200 37100 47000
2026-03-28 05:45 3.91 3950 51300 (2021) 1820 (2017) 18800 2490 3370 4270 4710 16000 31300 35200 37100 47000
2026-03-28 04:45 3.93 4000 51300 (2021) 1820 (2017) 18800 2490 3370 4270 4710 16000 31300 35200 37100 47000
2026-03-28 03:45 3.94 4020 51300 (2021) 1820 (2017) 18800 2490 3370 4270 4710 16000 31300 35200 37100 47000
2026-03-28 02:45 3.96 4080 51300 (2021) 1820 (2017) 18800 2490 3370 4270 4710 16000 31300 35200 37100 47000
2026-03-28 01:45 3.98 4130 51300 (2021) 1820 (2017) 18800 2490 3370 4270 4710 16000 31300 35200 37100 47000
2026-03-28 00:45 3.99 4150 51300 (2021) 1820 (2017) 18800 2490 3370 4270 4710 16000 31300 35200 37100 47000
2026-03-27 23:45 4.00 4180 51300 (2021) 1820 (2017) 18800 2490 3370 4270 4710 16000 31300 35200 37100 47000
2026-03-27 22:45 4.01 4200 50900 (2021) 1880 (2000) 19500 1950 2140 3720 4190 14800 35000 37000 39000 46900
2026-03-27 21:45 4.02 4230 50900 (2021) 1880 (2000) 19500 1950 2140 3720 4190 14800 35000 37000 39000 46900
2026-03-27 20:45 4.02 4230 50900 (2021) 1880 (2000) 19500 1950 2140 3720 4190 14800 35000 37000 39000 46900
2026-03-27 19:45 4.02 4230 50900 (2021) 1880 (2000) 19500 1950 2140 3720 4190 14800 35000 37000 39000 46900
2026-03-27 18:45 4.02 4230 50900 (2021) 1880 (2000) 19500 1950 2140 3720 4190 14800 35000 37000 39000 46900
2026-03-27 17:45 4.03 4250 50900 (2021) 1880 (2000) 19500 1950 2140 3720 4190 14800 35000 37000 39000 46900
2026-03-27 16:45 4.05 4300 50900 (2021) 1880 (2000) 19500 1950 2140 3720 4190 14800 35000 37000 39000 46900
2026-03-27 15:45 4.04 4280 50900 (2021) 1880 (2000) 19500 1950 2140 3720 4190 14800 35000 37000 39000 46900
2026-03-27 14:45 4.05 4300 50900 (2021) 1880 (2000) 19500 1950 2140 3720 4190 14800 35000 37000 39000 46900
2026-03-27 13:45 4.05 4300 50900 (2021) 1880 (2000) 19500 1950 2140 3720 4190 14800 35000 37000 39000 46900
2026-03-27 12:45 4.06 4330 50900 (2021) 1880 (2000) 19500 1950 2140 3720 4190 14800 35000 37000 39000 46900
2026-03-27 11:45 4.06 4330 50900 (2021) 1880 (2000) 19500 1950 2140 3720 4190 14800 35000 37000 39000 46900
2026-03-27 10:45 4.03 4250 50900 (2021) 1880 (2000) 19500 1950 2140 3720 4190 14800 35000 37000 39000 46900
2026-03-27 09:45 4.00 4180 50900 (2021) 1880 (2000) 19500 1950 2140 3720 4190 14800 35000 37000 39000 46900
2026-03-27 08:45 3.95 4050 50900 (2021) 1880 (2000) 19500 1950 2140 3720 4190 14800 35000 37000 39000 46900
2026-03-27 07:45 3.92 3970 50900 (2021) 1880 (2000) 19500 1950 2140 3720 4190 14800 35000 37000 39000 46900
2026-03-27 06:45 3.88 3870 50900 (2021) 1880 (2000) 19500 1950 2140 3720 4190 14800 35000 37000 39000 46900
2026-03-27 05:45 3.85 3790 50900 (2021) 1880 (2000) 19500 1950 2140 3720 4190 14800 35000 37000 39000 46900
2026-03-27 04:45 3.79 3640 50900 (2021) 1880 (2000) 19500 1950 2140 3720 4190 14800 35000 37000 39000 46900
2026-03-27 03:45 3.81 3690 50900 (2021) 1880 (2000) 19500 1950 2140 3720 4190 14800 35000 37000 39000 46900
2026-03-27 02:45 3.79 3640 50900 (2021) 1880 (2000) 19500 1950 2140 3720 4190 14800 35000 37000 39000 46900
2026-03-27 01:45 3.78 3620 50900 (2021) 1880 (2000) 19500 1950 2140 3720 4190 14800 35000 37000 39000 46900
2026-03-27 00:45 3.79 3640 50900 (2021) 1880 (2000) 19500 1950 2140 3720 4190 14800 35000 37000 39000 46900
2026-03-26 23:45 3.80 3660 50900 (2021) 1880 (2000) 19500 1950 2140 3720 4190 14800 35000 37000 39000 46900
2026-03-26 22:45 3.84 3760 48700 (2021) 1670 (2005) 19800 1900 2420 3660 4400 14300 35700 36700 42800 46400
2026-03-26 21:45 3.86 3820 48700 (2021) 1670 (2005) 19800 1900 2420 3660 4400 14300 35700 36700 42800 46400
2026-03-26 20:45 3.90 3920 48700 (2021) 1670 (2005) 19800 1900 2420 3660 4400 14300 35700 36700 42800 46400
2026-03-26 19:45 3.92 3970 48700 (2021) 1670 (2005) 19800 1900 2420 3660 4400 14300 35700 36700 42800 46400
2026-03-26 18:45 3.94 4020 48700 (2021) 1670 (2005) 19800 1900 2420 3660 4400 14300 35700 36700 42800 46400
2026-03-26 17:45 3.97 4100 48700 (2021) 1670 (2005) 19800 1900 2420 3660 4400 14300 35700 36700 42800 46400
2026-03-26 16:45 4.00 4180 48700 (2021) 1670 (2005) 19800 1900 2420 3660 4400 14300 35700 36700 42800 46400
2026-03-26 15:45 4.03 4250 48700 (2021) 1670 (2005) 19800 1900 2420 3660 4400 14300 35700 36700 42800 46400
2026-03-26 14:45 4.05 4300 48700 (2021) 1670 (2005) 19800 1900 2420 3660 4400 14300 35700 36700 42800 46400
2026-03-26 13:45 4.08 4380 48700 (2021) 1670 (2005) 19800 1900 2420 3660 4400 14300 35700 36700 42800 46400
2026-03-26 12:45 4.09 4410 48700 (2021) 1670 (2005) 19800 1900 2420 3660 4400 14300 35700 36700 42800 46400
2026-03-26 11:45 4.11 4460 48700 (2021) 1670 (2005) 19800 1900 2420 3660 4400 14300 35700 36700 42800 46400
2026-03-26 10:45 4.12 4480 48700 (2021) 1670 (2005) 19800 1900 2420 3660 4400 14300 35700 36700 42800 46400
2026-03-26 09:45 4.13 4510 48700 (2021) 1670 (2005) 19800 1900 2420 3660 4400 14300 35700 36700 42800 46400
2026-03-26 08:45 4.13 4510 48700 (2021) 1670 (2005) 19800 1900 2420 3660 4400 14300 35700 36700 42800 46400
2026-03-26 07:45 4.12 4480 48700 (2021) 1670 (2005) 19800 1900 2420 3660 4400 14300 35700 36700 42800 46400
2026-03-26 06:45 4.12 4480 48700 (2021) 1670 (2005) 19800 1900 2420 3660 4400 14300 35700 36700 42800 46400
2026-03-26 05:45 4.13 4510 48700 (2021) 1670 (2005) 19800 1900 2420 3660 4400 14300 35700 36700 42800 46400
2026-03-26 04:45 4.13 4510 48700 (2021) 1670 (2005) 19800 1900 2420 3660 4400 14300 35700 36700 42800 46400
2026-03-26 03:45 4.15 4560 48700 (2021) 1670 (2005) 19800 1900 2420 3660 4400 14300 35700 36700 42800 46400
2026-03-26 02:45 4.17 4620 48700 (2021) 1670 (2005) 19800 1900 2420 3660 4400 14300 35700 36700 42800 46400
2026-03-26 01:45 4.20 4700 48700 (2021) 1670 (2005) 19800 1900 2420 3660 4400 14300 35700 36700 42800 46400
2026-03-26 00:45 4.23 4780 48700 (2021) 1670 (2005) 19800 1900 2420 3660 4400 14300 35700 36700 42800 46400
2026-03-25 23:45 4.25 4830 48700 (2021) 1670 (2005) 19800 1900 2420 3660 4400 14300 35700 36700 42800 46400
2026-03-25 22:45 4.28 4910 43600 (2020) 1380 (2017) 18000 1960 3210 3870 4530 13000 34100 34900 37900 41600
2026-03-25 21:45 4.29 4940 43600 (2020) 1380 (2017) 18000 1960 3210 3870 4530 13000 34100 34900 37900 41600
2026-03-25 20:45 4.29 4940 43600 (2020) 1380 (2017) 18000 1960 3210 3870 4530 13000 34100 34900 37900 41600
2026-03-25 19:45 4.29 4940 43600 (2020) 1380 (2017) 18000 1960 3210 3870 4530 13000 34100 34900 37900 41600
2026-03-25 18:45 4.27 4890 43600 (2020) 1380 (2017) 18000 1960 3210 3870 4530 13000 34100 34900 37900 41600
2026-03-25 17:45 4.26 4860 43600 (2020) 1380 (2017) 18000 1960 3210 3870 4530 13000 34100 34900 37900 41600
2026-03-25 16:45 4.24 4800 43600 (2020) 1380 (2017) 18000 1960 3210 3870 4530 13000 34100 34900 37900 41600
2026-03-25 15:45 4.22 4750 43600 (2020) 1380 (2017) 18000 1960 3210 3870 4530 13000 34100 34900 37900 41600
2026-03-25 14:45 4.22 4750 43600 (2020) 1380 (2017) 18000 1960 3210 3870 4530 13000 34100 34900 37900 41600
2026-03-25 13:45 4.20 4700 43600 (2020) 1380 (2017) 18000 1960 3210 3870 4530 13000 34100 34900 37900 41600
2026-03-25 12:45 4.19 4670 43600 (2020) 1380 (2017) 18000 1960 3210 3870 4530 13000 34100 34900 37900 41600
2026-03-25 11:45 4.19 4670 43600 (2020) 1380 (2017) 18000 1960 3210 3870 4530 13000 34100 34900 37900 41600
2026-03-25 10:45 4.19 4670 43600 (2020) 1380 (2017) 18000 1960 3210 3870 4530 13000 34100 34900 37900 41600
2026-03-25 09:45 4.19 4670 43600 (2020) 1380 (2017) 18000 1960 3210 3870 4530 13000 34100 34900 37900 41600
2026-03-25 08:45 4.18 4640 43600 (2020) 1380 (2017) 18000 1960 3210 3870 4530 13000 34100 34900 37900 41600
2026-03-25 07:45 4.17 4620 43600 (2020) 1380 (2017) 18000 1960 3210 3870 4530 13000 34100 34900 37900 41600
2026-03-25 06:45 4.17 4620 43600 (2020) 1380 (2017) 18000 1960 3210 3870 4530 13000 34100 34900 37900 41600
2026-03-25 05:45 4.18 4640 43600 (2020) 1380 (2017) 18000 1960 3210 3870 4530 13000 34100 34900 37900 41600
2026-03-25 04:45 4.18 4640 43600 (2020) 1380 (2017) 18000 1960 3210 3870 4530 13000 34100 34900 37900 41600
2026-03-25 03:45 4.20 4700 43600 (2020) 1380 (2017) 18000 1960 3210 3870 4530 13000 34100 34900 37900 41600
2026-03-25 02:45 4.22 4750 43600 (2020) 1380 (2017) 18000 1960 3210 3870 4530 13000 34100 34900 37900 41600
2026-03-25 01:45 4.25 4830 43600 (2020) 1380 (2017) 18000 1960 3210 3870 4530 13000 34100 34900 37900 41600
2026-03-25 00:45 4.28 4910 43600 (2020) 1380 (2017) 18000 1960 3210 3870 4530 13000 34100 34900 37900 41600
2026-03-24 23:45 4.31 5000 43600 (2020) 1380 (2017) 18000 1960 3210 3870 4530 13000 34100 34900 37900 41600
2026-03-24 22:45 4.34 5070 40200 (2020) 956 (2003) 17000 1150 1510 3890 4000 13500 30000 31300 38000 40200
2026-03-24 21:45 4.38 5180 40200 (2020) 956 (2003) 17000 1150 1510 3890 4000 13500 30000 31300 38000 40200
2026-03-24 20:45 4.41 5260 40200 (2020) 956 (2003) 17000 1150 1510 3890 4000 13500 30000 31300 38000 40200
2026-03-24 19:45 4.44 5330 40200 (2020) 956 (2003) 17000 1150 1510 3890 4000 13500 30000 31300 38000 40200
2026-03-24 18:45 4.47 5410 40200 (2020) 956 (2003) 17000 1150 1510 3890 4000 13500 30000 31300 38000 40200
2026-03-24 17:45 4.50 5490 40200 (2020) 956 (2003) 17000 1150 1510 3890 4000 13500 30000 31300 38000 40200
2026-03-24 16:45 4.53 5580 40200 (2020) 956 (2003) 17000 1150 1510 3890 4000 13500 30000 31300 38000 40200
2026-03-24 15:45 4.55 5630 40200 (2020) 956 (2003) 17000 1150 1510 3890 4000 13500 30000 31300 38000 40200
2026-03-24 14:45 4.58 5710 40200 (2020) 956 (2003) 17000 1150 1510 3890 4000 13500 30000 31300 38000 40200
2026-03-24 13:45 4.60 5770 40200 (2020) 956 (2003) 17000 1150 1510 3890 4000 13500 30000 31300 38000 40200
2026-03-24 12:45 4.62 5830 40200 (2020) 956 (2003) 17000 1150 1510 3890 4000 13500 30000 31300 38000 40200
2026-03-24 11:45 4.63 5850 40200 (2020) 956 (2003) 17000 1150 1510 3890 4000 13500 30000 31300 38000 40200
2026-03-24 10:45 4.64 5880 40200 (2020) 956 (2003) 17000 1150 1510 3890 4000 13500 30000 31300 38000 40200
2026-03-24 09:45 4.63 5850 40200 (2020) 956 (2003) 17000 1150 1510 3890 4000 13500 30000 31300 38000 40200
2026-03-24 08:45 4.61 5800 40200 (2020) 956 (2003) 17000 1150 1510 3890 4000 13500 30000 31300 38000 40200
2026-03-24 07:45 4.59 5740 40200 (2020) 956 (2003) 17000 1150 1510 3890 4000 13500 30000 31300 38000 40200
2026-03-24 06:45 4.56 5660 40200 (2020) 956 (2003) 17000 1150 1510 3890 4000 13500 30000 31300 38000 40200
2026-03-24 05:45 4.52 5550 40200 (2020) 956 (2003) 17000 1150 1510 3890 4000 13500 30000 31300 38000 40200
2026-03-24 04:45 4.49 5470 40200 (2020) 956 (2003) 17000 1150 1510 3890 4000 13500 30000 31300 38000 40200
2026-03-24 03:45 4.46 5390 40200 (2020) 956 (2003) 17000 1150 1510 3890 4000 13500 30000 31300 38000 40200
2026-03-24 02:45 4.45 5360 40200 (2020) 956 (2003) 17000 1150 1510 3890 4000 13500 30000 31300 38000 40200
2026-03-24 01:45 4.44 5330 40200 (2020) 956 (2003) 17000 1150 1510 3890 4000 13500 30000 31300 38000 40200
2026-03-24 00:45 4.45 5360 40200 (2020) 956 (2003) 17000 1150 1510 3890 4000 13500 30000 31300 38000 40200
2026-03-23 23:45 4.47 5410 40200 (2020) 956 (2003) 17000 1150 1510 3890 4000 13500 30000 31300 38000 40200
2026-03-23 22:45 4.47 5410 40000 (2012) 1160 (2003) 16800 1170 2220 3920 4240 13700 30300 31700 35600 39400
2026-03-23 21:45 4.49 5470 40000 (2012) 1160 (2003) 16800 1170 2220 3920 4240 13700 30300 31700 35600 39400
2026-03-23 20:45 4.51 5520 40000 (2012) 1160 (2003) 16800 1170 2220 3920 4240 13700 30300 31700 35600 39400
2026-03-23 19:45 4.52 5550 40000 (2012) 1160 (2003) 16800 1170 2220 3920 4240 13700 30300 31700 35600 39400
2026-03-23 18:45 4.54 5600 40000 (2012) 1160 (2003) 16800 1170 2220 3920 4240 13700 30300 31700 35600 39400
2026-03-23 17:45 4.55 5630 40000 (2012) 1160 (2003) 16800 1170 2220 3920 4240 13700 30300 31700 35600 39400
2026-03-23 16:45 4.56 5660 40000 (2012) 1160 (2003) 16800 1170 2220 3920 4240 13700 30300 31700 35600 39400
2026-03-23 15:45 4.57 5690 40000 (2012) 1160 (2003) 16800 1170 2220 3920 4240 13700 30300 31700 35600 39400
2026-03-23 14:45 4.59 5740 40000 (2012) 1160 (2003) 16800 1170 2220 3920 4240 13700 30300 31700 35600 39400
2026-03-23 13:45 4.60 5770 40000 (2012) 1160 (2003) 16800 1170 2220 3920 4240 13700 30300 31700 35600 39400
2026-03-23 12:45 4.61 5800 40000 (2012) 1160 (2003) 16800 1170 2220 3920 4240 13700 30300 31700 35600 39400
2026-03-23 11:45 4.62 5830 40000 (2012) 1160 (2003) 16800 1170 2220 3920 4240 13700 30300 31700 35600 39400
2026-03-23 10:45 4.63 5850 40000 (2012) 1160 (2003) 16800 1170 2220 3920 4240 13700 30300 31700 35600 39400
2026-03-23 09:45 4.63 5850 40000 (2012) 1160 (2003) 16800 1170 2220 3920 4240 13700 30300 31700 35600 39400
2026-03-23 08:45 4.63 5850 40000 (2012) 1160 (2003) 16800 1170 2220 3920 4240 13700 30300 31700 35600 39400
2026-03-23 07:45 4.63 5850 40000 (2012) 1160 (2003) 16800 1170 2220 3920 4240 13700 30300 31700 35600 39400
2026-03-23 06:45 4.61 5800 40000 (2012) 1160 (2003) 16800 1170 2220 3920 4240 13700 30300 31700 35600 39400
2026-03-23 05:45 4.60 5770 40000 (2012) 1160 (2003) 16800 1170 2220 3920 4240 13700 30300 31700 35600 39400
2026-03-23 04:45 4.58 5710 40000 (2012) 1160 (2003) 16800 1170 2220 3920 4240 13700 30300 31700 35600 39400
2026-03-23 03:45 4.56 5660 40000 (2012) 1160 (2003) 16800 1170 2220 3920 4240 13700 30300 31700 35600 39400
2026-03-23 02:45 4.56 5660 40000 (2012) 1160 (2003) 16800 1170 2220 3920 4240 13700 30300 31700 35600 39400
2026-03-23 01:45 4.57 5690 40000 (2012) 1160 (2003) 16800 1170 2220 3920 4240 13700 30300 31700 35600 39400
2026-03-23 00:45 4.56 5660 40000 (2012) 1160 (2003) 16800 1170 2220 3920 4240 13700 30300 31700 35600 39400
2026-03-22 23:45 4.60 5770 40000 (2012) 1160 (2003) 16800 1170 2220 3920 4240 13700 30300 31700 35600 39400
2026-03-22 22:45 4.60 5770 40700 (2012) 1210 (2017) 15000 1500 3510 4320 4720 10700 26500 28300 32600 38300
2026-03-22 21:45 4.62 5830 40700 (2012) 1210 (2017) 15000 1500 3510 4320 4720 10700 26500 28300 32600 38300
2026-03-22 20:45 4.63 5850 40700 (2012) 1210 (2017) 15000 1500 3510 4320 4720 10700 26500 28300 32600 38300
2026-03-22 19:45 4.66 5940 40700 (2012) 1210 (2017) 15000 1500 3510 4320 4720 10700 26500 28300 32600 38300
2026-03-22 18:45 4.66 5940 40700 (2012) 1210 (2017) 15000 1500 3510 4320 4720 10700 26500 28300 32600 38300
2026-03-22 17:45 4.67 5960 40700 (2012) 1210 (2017) 15000 1500 3510 4320 4720 10700 26500 28300 32600 38300
2026-03-22 16:45 4.69 6010 40700 (2012) 1210 (2017) 15000 1500 3510 4320 4720 10700 26500 28300 32600 38300
2026-03-22 15:45 4.74 6150 40700 (2012) 1210 (2017) 15000 1500 3510 4320 4720 10700 26500 28300 32600 38300
2026-03-22 14:45 4.78 6250 40700 (2012) 1210 (2017) 15000 1500 3510 4320 4720 10700 26500 28300 32600 38300
2026-03-22 13:45 4.80 6310 40700 (2012) 1210 (2017) 15000 1500 3510 4320 4720 10700 26500 28300 32600 38300
2026-03-22 12:45 4.82 6360 40700 (2012) 1210 (2017) 15000 1500 3510 4320 4720 10700 26500 28300 32600 38300
2026-03-22 11:45 4.85 6440 40700 (2012) 1210 (2017) 15000 1500 3510 4320 4720 10700 26500 28300 32600 38300
2026-03-22 10:45 4.86 6470 40700 (2012) 1210 (2017) 15000 1500 3510 4320 4720 10700 26500 28300 32600 38300
2026-03-22 09:45 4.87 6500 40700 (2012) 1210 (2017) 15000 1500 3510 4320 4720 10700 26500 28300 32600 38300
2026-03-22 08:45 4.88 6530 40700 (2012) 1210 (2017) 15000 1500 3510 4320 4720 10700 26500 28300 32600 38300
2026-03-22 07:45 4.88 6530 40700 (2012) 1210 (2017) 15000 1500 3510 4320 4720 10700 26500 28300 32600 38300
2026-03-22 06:45 4.87 6500 40700 (2012) 1210 (2017) 15000 1500 3510 4320 4720 10700 26500 28300 32600 38300
2026-03-22 05:45 4.86 6470 40700 (2012) 1210 (2017) 15000 1500 3510 4320 4720 10700 26500 28300 32600 38300
2026-03-22 04:45 4.85 6440 40700 (2012) 1210 (2017) 15000 1500 3510 4320 4720 10700 26500 28300 32600 38300
2026-03-22 03:45 4.84 6420 40700 (2012) 1210 (2017) 15000 1500 3510 4320 4720 10700 26500 28300 32600 38300
2026-03-22 02:45 4.82 6360 40700 (2012) 1210 (2017) 15000 1500 3510 4320 4720 10700 26500 28300 32600 38300
2026-03-22 01:45 4.81 6340 40700 (2012) 1210 (2017) 15000 1500 3510 4320 4720 10700 26500 28300 32600 38300
2026-03-22 00:45 4.81 6340 40700 (2012) 1210 (2017) 15000 1500 3510 4320 4720 10700 26500 28300 32600 38300
2026-03-21 23:45 4.81 6340 40700 (2012) 1210 (2017) 15000 1500 3510 4320 4720 10700 26500 28300 32600 38300
2026-03-21 22:45 4.83 6390 42900 (1998) 1420 (2017) 15100 1590 2780 3950 4110 7250 28500 31000 34300 39600
2026-03-21 21:45 4.84 6420 42900 (1998) 1420 (2017) 15100 1590 2780 3950 4110 7250 28500 31000 34300 39600
2026-03-21 20:45 4.86 6470 42900 (1998) 1420 (2017) 15100 1590 2780 3950 4110 7250 28500 31000 34300 39600
2026-03-21 19:45 4.87 6500 42900 (1998) 1420 (2017) 15100 1590 2780 3950 4110 7250 28500 31000 34300 39600
2026-03-21 18:45 4.88 6530 42900 (1998) 1420 (2017) 15100 1590 2780 3950 4110 7250 28500 31000 34300 39600
2026-03-21 17:45 4.89 6560 42900 (1998) 1420 (2017) 15100 1590 2780 3950 4110 7250 28500 31000 34300 39600
2026-03-21 16:45 4.89 6560 42900 (1998) 1420 (2017) 15100 1590 2780 3950 4110 7250 28500 31000 34300 39600
2026-03-21 15:45 4.90 6580 42900 (1998) 1420 (2017) 15100 1590 2780 3950 4110 7250 28500 31000 34300 39600
2026-03-21 14:45 4.91 6610 42900 (1998) 1420 (2017) 15100 1590 2780 3950 4110 7250 28500 31000 34300 39600
2026-03-21 13:45 4.91 6610 42900 (1998) 1420 (2017) 15100 1590 2780 3950 4110 7250 28500 31000 34300 39600
2026-03-21 12:45 4.91 6610 42900 (1998) 1420 (2017) 15100 1590 2780 3950 4110 7250 28500 31000 34300 39600
2026-03-21 11:45 4.91 6610 42900 (1998) 1420 (2017) 15100 1590 2780 3950 4110 7250 28500 31000 34300 39600
2026-03-21 10:45 4.92 6640 42900 (1998) 1420 (2017) 15100 1590 2780 3950 4110 7250 28500 31000 34300 39600
2026-03-21 09:45 4.92 6640 42900 (1998) 1420 (2017) 15100 1590 2780 3950 4110 7250 28500 31000 34300 39600
2026-03-21 08:45 4.93 6670 42900 (1998) 1420 (2017) 15100 1590 2780 3950 4110 7250 28500 31000 34300 39600
2026-03-21 07:45 4.93 6670 42900 (1998) 1420 (2017) 15100 1590 2780 3950 4110 7250 28500 31000 34300 39600
2026-03-21 06:45 4.94 6700 42900 (1998) 1420 (2017) 15100 1590 2780 3950 4110 7250 28500 31000 34300 39600
2026-03-21 05:45 4.95 6720 42900 (1998) 1420 (2017) 15100 1590 2780 3950 4110 7250 28500 31000 34300 39600
2026-03-21 04:45 4.96 6750 42900 (1998) 1420 (2017) 15100 1590 2780 3950 4110 7250 28500 31000 34300 39600
2026-03-21 03:45 4.98 6800 42900 (1998) 1420 (2017) 15100 1590 2780 3950 4110 7250 28500 31000 34300 39600
2026-03-21 02:45 4.99 6830 42900 (1998) 1420 (2017) 15100 1590 2780 3950 4110 7250 28500 31000 34300 39600
2026-03-21 01:45 5.02 6910 42900 (1998) 1420 (2017) 15100 1590 2780 3950 4110 7250 28500 31000 34300 39600
2026-03-21 00:45 5.03 6930 42900 (1998) 1420 (2017) 15100 1590 2780 3950 4110 7250 28500 31000 34300 39600
2026-03-20 23:45 5.06 7010 42900 (1998) 1420 (2017) 15100 1590 2780 3950 4110 7250 28500 31000 34300 39600
2026-03-20 22:45 5.08 7070 47800 (1998) 1240 (2017) 14600 1410 2080 3570 3850 7850 26200 30200 38800 47300
2026-03-20 21:45 5.11 7150 47800 (1998) 1240 (2017) 14600 1410 2080 3570 3850 7850 26200 30200 38800 47300
2026-03-20 20:45 5.13 7200 47800 (1998) 1240 (2017) 14600 1410 2080 3570 3850 7850 26200 30200 38800 47300
2026-03-20 19:45 5.16 7280 47800 (1998) 1240 (2017) 14600 1410 2080 3570 3850 7850 26200 30200 38800 47300
2026-03-20 18:45 5.18 7330 47800 (1998) 1240 (2017) 14600 1410 2080 3570 3850 7850 26200 30200 38800 47300
2026-03-20 17:45 5.20 7390 47800 (1998) 1240 (2017) 14600 1410 2080 3570 3850 7850 26200 30200 38800 47300
2026-03-20 16:45 5.21 7420 47800 (1998) 1240 (2017) 14600 1410 2080 3570 3850 7850 26200 30200 38800 47300
2026-03-20 15:45 5.23 7470 47800 (1998) 1240 (2017) 14600 1410 2080 3570 3850 7850 26200 30200 38800 47300
2026-03-20 14:45 5.26 7550 47800 (1998) 1240 (2017) 14600 1410 2080 3570 3850 7850 26200 30200 38800 47300
2026-03-20 13:45 5.27 7580 47800 (1998) 1240 (2017) 14600 1410 2080 3570 3850 7850 26200 30200 38800 47300
2026-03-20 12:45 5.28 7610 47800 (1998) 1240 (2017) 14600 1410 2080 3570 3850 7850 26200 30200 38800 47300
2026-03-20 11:45 5.29 7640 47800 (1998) 1240 (2017) 14600 1410 2080 3570 3850 7850 26200 30200 38800 47300
2026-03-20 10:45 5.30 7660 47800 (1998) 1240 (2017) 14600 1410 2080 3570 3850 7850 26200 30200 38800 47300
2026-03-20 09:45 5.31 7690 47800 (1998) 1240 (2017) 14600 1410 2080 3570 3850 7850 26200 30200 38800 47300
2026-03-20 08:45 5.32 7720 47800 (1998) 1240 (2017) 14600 1410 2080 3570 3850 7850 26200 30200 38800 47300
2026-03-20 07:45 5.34 7770 47800 (1998) 1240 (2017) 14600 1410 2080 3570 3850 7850 26200 30200 38800 47300
2026-03-20 06:45 5.37 7860 47800 (1998) 1240 (2017) 14600 1410 2080 3570 3850 7850 26200 30200 38800 47300
2026-03-20 05:45 5.39 7920 47800 (1998) 1240 (2017) 14600 1410 2080 3570 3850 7850 26200 30200 38800 47300
2026-03-20 04:45 5.42 8000 47800 (1998) 1240 (2017) 14600 1410 2080 3570 3850 7850 26200 30200 38800 47300
2026-03-20 03:45 5.46 8120 47800 (1998) 1240 (2017) 14600 1410 2080 3570 3850 7850 26200 30200 38800 47300
2026-03-20 02:45 5.50 8230 47800 (1998) 1240 (2017) 14600 1410 2080 3570 3850 7850 26200 30200 38800 47300
2026-03-20 01:45 5.54 8350 47800 (1998) 1240 (2017) 14600 1410 2080 3570 3850 7850 26200 30200 38800 47300
2026-03-20 00:45 5.59 8490 47800 (1998) 1240 (2017) 14600 1410 2080 3570 3850 7850 26200 30200 38800 47300
2026-03-19 23:45 5.65 8660 47800 (1998) 1240 (2017) 14600 1410 2080 3570 3850 7850 26200 30200 38800 47300
2026-03-19 22:45 5.71 8820 52500 (2008) 828 (2006) 14900 1010 1360 3730 3940 6770 27400 32100 39500 48600
2026-03-19 21:45 5.79 9050 52500 (2008) 828 (2006) 14900 1010 1360 3730 3940 6770 27400 32100 39500 48600
2026-03-19 20:45 5.86 9240 52500 (2008) 828 (2006) 14900 1010 1360 3730 3940 6770 27400 32100 39500 48600
2026-03-19 19:45 5.95 9490 52500 (2008) 828 (2006) 14900 1010 1360 3730 3940 6770 27400 32100 39500 48600
2026-03-19 18:45 6.04 9740 52500 (2008) 828 (2006) 14900 1010 1360 3730 3940 6770 27400 32100 39500 48600
2026-03-19 17:45 6.13 10000 52500 (2008) 828 (2006) 14900 1010 1360 3730 3940 6770 27400 32100 39500 48600
2026-03-19 16:45 6.23 10300 52500 (2008) 828 (2006) 14900 1010 1360 3730 3940 6770 27400 32100 39500 48600
2026-03-19 15:45 6.33 10600 52500 (2008) 828 (2006) 14900 1010 1360 3730 3940 6770 27400 32100 39500 48600
2026-03-19 14:45 6.45 10900 52500 (2008) 828 (2006) 14900 1010 1360 3730 3940 6770 27400 32100 39500 48600
2026-03-19 13:45 6.56 11300 52500 (2008) 828 (2006) 14900 1010 1360 3730 3940 6770 27400 32100 39500 48600
2026-03-19 12:45 6.67 11600 52500 (2008) 828 (2006) 14900 1010 1360 3730 3940 6770 27400 32100 39500 48600
2026-03-19 11:45 6.79 12000 52500 (2008) 828 (2006) 14900 1010 1360 3730 3940 6770 27400 32100 39500 48600
2026-03-19 10:45 6.89 12300 52500 (2008) 828 (2006) 14900 1010 1360 3730 3940 6770 27400 32100 39500 48600
2026-03-19 09:45 7.02 12700 52500 (2008) 828 (2006) 14900 1010 1360 3730 3940 6770 27400 32100 39500 48600
2026-03-19 08:45 7.11 13000 52500 (2008) 828 (2006) 14900 1010 1360 3730 3940 6770 27400 32100 39500 48600
2026-03-19 07:45 7.22 13300 52500 (2008) 828 (2006) 14900 1010 1360 3730 3940 6770 27400 32100 39500 48600
2026-03-19 06:45 7.30 13600 52500 (2008) 828 (2006) 14900 1010 1360 3730 3940 6770 27400 32100 39500 48600
2026-03-19 05:45 7.37 13800 52500 (2008) 828 (2006) 14900 1010 1360 3730 3940 6770 27400 32100 39500 48600
2026-03-19 04:45 7.40 13900 52500 (2008) 828 (2006) 14900 1010 1360 3730 3940 6770 27400 32100 39500 48600
2026-03-19 03:45 7.42 14000 52500 (2008) 828 (2006) 14900 1010 1360 3730 3940 6770 27400 32100 39500 48600
2026-03-19 02:45 7.44 14000 52500 (2008) 828 (2006) 14900 1010 1360 3730 3940 6770 27400 32100 39500 48600
2026-03-19 01:45 7.48 14200 52500 (2008) 828 (2006) 14900 1010 1360 3730 3940 6770 27400 32100 39500 48600
2026-03-19 00:45 7.52 14300 52500 (2008) 828 (2006) 14900 1010 1360 3730 3940 6770 27400 32100 39500 48600
2026-03-18 23:45 7.64 14700 52500 (2008) 828 (2006) 14900 1010 1360 3730 3940 6770 27400 32100 39500 48600
2026-03-18 22:45 7.78 15200 38800 (1998) 803 (2003) 15000 1010 1380 1820 3830 7210 30700 33600 36600 38800
2026-03-18 21:45 7.98 15900 38800 (1998) 803 (2003) 15000 1010 1380 1820 3830 7210 30700 33600 36600 38800
2026-03-18 20:45 8.19 16600 38800 (1998) 803 (2003) 15000 1010 1380 1820 3830 7210 30700 33600 36600 38800
2026-03-18 19:45 8.37 17300 38800 (1998) 803 (2003) 15000 1010 1380 1820 3830 7210 30700 33600 36600 38800
2026-03-18 18:45 8.55 17900 38800 (1998) 803 (2003) 15000 1010 1380 1820 3830 7210 30700 33600 36600 38800
2026-03-18 17:45 8.70 18500 38800 (1998) 803 (2003) 15000 1010 1380 1820 3830 7210 30700 33600 36600 38800
2026-03-18 16:45 8.85 19100 38800 (1998) 803 (2003) 15000 1010 1380 1820 3830 7210 30700 33600 36600 38800
2026-03-18 15:45 8.99 19600 38800 (1998) 803 (2003) 15000 1010 1380 1820 3830 7210 30700 33600 36600 38800
2026-03-18 14:45 9.12 20200 38800 (1998) 803 (2003) 15000 1010 1380 1820 3830 7210 30700 33600 36600 38800
2026-03-18 13:45 9.27 20800 38800 (1998) 803 (2003) 15000 1010 1380 1820 3830 7210 30700 33600 36600 38800
2026-03-18 12:45 9.41 21400 38800 (1998) 803 (2003) 15000 1010 1380 1820 3830 7210 30700 33600 36600 38800
2026-03-18 11:45 9.60 22100 38800 (1998) 803 (2003) 15000 1010 1380 1820 3830 7210 30700 33600 36600 38800
2026-03-18 10:45 9.83 22900 38800 (1998) 803 (2003) 15000 1010 1380 1820 3830 7210 30700 33600 36600 38800
2026-03-18 09:45 10.09 23800 38800 (1998) 803 (2003) 15000 1010 1380 1820 3830 7210 30700 33600 36600 38800
2026-03-18 08:45 10.35 24700 38800 (1998) 803 (2003) 15000 1010 1380 1820 3830 7210 30700 33600 36600 38800
2026-03-18 07:45 10.59 25600 38800 (1998) 803 (2003) 15000 1010 1380 1820 3830 7210 30700 33600 36600 38800
2026-03-18 06:45 10.84 26400 38800 (1998) 803 (2003) 15000 1010 1380 1820 3830 7210 30700 33600 36600 38800
2026-03-18 05:45 11.02 27100 38800 (1998) 803 (2003) 15000 1010 1380 1820 3830 7210 30700 33600 36600 38800
2026-03-18 04:45 11.17 27700 38800 (1998) 803 (2003) 15000 1010 1380 1820 3830 7210 30700 33600 36600 38800
2026-03-18 03:45 11.27 28000 38800 (1998) 803 (2003) 15000 1010 1380 1820 3830 7210 30700 33600 36600 38800
2026-03-18 02:45 11.30 28100 38800 (1998) 803 (2003) 15000 1010 1380 1820 3830 7210 30700 33600 36600 38800
2026-03-18 01:45 11.32 28200 38800 (1998) 803 (2003) 15000 1010 1380 1820 3830 7210 30700 33600 36600 38800
2026-03-18 00:45 11.32 28200 38800 (1998) 803 (2003) 15000 1010 1380 1820 3830 7210 30700 33600 36600 38800
2026-03-17 23:45 11.31 28200 38800 (1998) 803 (2003) 15000 1010 1380 1820 3830 7210 30700 33600 36600 38800
2026-03-17 22:45 11.32 28200 38900 (1998) 883 (2003) 14100 1120 1410 3500 3930 5460 28400 31900 35600 38000
2026-03-17 21:45 11.30 28100 38900 (1998) 883 (2003) 14100 1120 1410 3500 3930 5460 28400 31900 35600 38000
2026-03-17 20:45 11.33 28200 38900 (1998) 883 (2003) 14100 1120 1410 3500 3930 5460 28400 31900 35600 38000
2026-03-17 19:45 11.30 28100 38900 (1998) 883 (2003) 14100 1120 1410 3500 3930 5460 28400 31900 35600 38000
2026-03-17 18:45 11.34 28300 38900 (1998) 883 (2003) 14100 1120 1410 3500 3930 5460 28400 31900 35600 38000
2026-03-17 17:45 11.33 28200 38900 (1998) 883 (2003) 14100 1120 1410 3500 3930 5460 28400 31900 35600 38000
2026-03-17 16:45 11.32 28200 38900 (1998) 883 (2003) 14100 1120 1410 3500 3930 5460 28400 31900 35600 38000
2026-03-17 15:45 11.33 28200 38900 (1998) 883 (2003) 14100 1120 1410 3500 3930 5460 28400 31900 35600 38000
2026-03-17 14:45 11.31 28200 38900 (1998) 883 (2003) 14100 1120 1410 3500 3930 5460 28400 31900 35600 38000
2026-03-17 13:45 11.31 28200 38900 (1998) 883 (2003) 14100 1120 1410 3500 3930 5460 28400 31900 35600 38000
2026-03-17 12:45 11.32 28200 38900 (1998) 883 (2003) 14100 1120 1410 3500 3930 5460 28400 31900 35600 38000
2026-03-17 11:45 11.32 28200 38900 (1998) 883 (2003) 14100 1120 1410 3500 3930 5460 28400 31900 35600 38000
2026-03-17 10:45 11.29 28100 38900 (1998) 883 (2003) 14100 1120 1410 3500 3930 5460 28400 31900 35600 38000
2026-03-17 09:45 11.31 28200 38900 (1998) 883 (2003) 14100 1120 1410 3500 3930 5460 28400 31900 35600 38000
2026-03-17 08:45 11.29 28100 38900 (1998) 883 (2003) 14100 1120 1410 3500 3930 5460 28400 31900 35600 38000
2026-03-17 07:45 11.29 28100 38900 (1998) 883 (2003) 14100 1120 1410 3500 3930 5460 28400 31900 35600 38000
2026-03-17 06:45 11.26 28000 38900 (1998) 883 (2003) 14100 1120 1410 3500 3930 5460 28400 31900 35600 38000
2026-03-17 05:45 11.26 28000 38900 (1998) 883 (2003) 14100 1120 1410 3500 3930 5460 28400 31900 35600 38000
2026-03-17 04:45 11.23 27900 38900 (1998) 883 (2003) 14100 1120 1410 3500 3930 5460 28400 31900 35600 38000
2026-03-17 03:45 11.21 27800 38900 (1998) 883 (2003) 14100 1120 1410 3500 3930 5460 28400 31900 35600 38000
2026-03-17 02:45 11.20 27800 38900 (1998) 883 (2003) 14100 1120 1410 3500 3930 5460 28400 31900 35600 38000
2026-03-17 01:45 11.16 27600 38900 (1998) 883 (2003) 14100 1120 1410 3500 3930 5460 28400 31900 35600 38000
2026-03-17 00:45 11.15 27600 38900 (1998) 883 (2003) 14100 1120 1410 3500 3930 5460 28400 31900 35600 38000
2026-03-16 23:45 11.12 27500 38900 (1998) 883 (2003) 14100 1120 1410 3500 3930 5460 28400 31900 35600 38000
2026-03-16 22:45 11.05 27200 35800 (1997) 822 (2002) 14000 952 1290 1850 2710 6080 29100 31500 34000 35100
2026-03-16 21:45 11.03 27100 35800 (1997) 822 (2002) 14000 952 1290 1850 2710 6080 29100 31500 34000 35100
2026-03-16 20:45 11.02 27100 35800 (1997) 822 (2002) 14000 952 1290 1850 2710 6080 29100 31500 34000 35100
2026-03-16 19:45 10.97 26900 35800 (1997) 822 (2002) 14000 952 1290 1850 2710 6080 29100 31500 34000 35100
2026-03-16 18:45 10.91 26700 35800 (1997) 822 (2002) 14000 952 1290 1850 2710 6080 29100 31500 34000 35100
2026-03-16 17:45 10.85 26500 35800 (1997) 822 (2002) 14000 952 1290 1850 2710 6080 29100 31500 34000 35100
2026-03-16 16:45 10.78 26300 35800 (1997) 822 (2002) 14000 952 1290 1850 2710 6080 29100 31500 34000 35100
2026-03-16 15:45 10.70 26000 35800 (1997) 822 (2002) 14000 952 1290 1850 2710 6080 29100 31500 34000 35100
2026-03-16 14:45 10.61 25600 35800 (1997) 822 (2002) 14000 952 1290 1850 2710 6080 29100 31500 34000 35100
2026-03-16 13:45 10.50 25200 35800 (1997) 822 (2002) 14000 952 1290 1850 2710 6080 29100 31500 34000 35100
2026-03-16 12:45 10.37 24800 35800 (1997) 822 (2002) 14000 952 1290 1850 2710 6080 29100 31500 34000 35100
2026-03-16 11:45 10.25 24400 35800 (1997) 822 (2002) 14000 952 1290 1850 2710 6080 29100 31500 34000 35100
2026-03-16 10:45 10.05 23700 35800 (1997) 822 (2002) 14000 952 1290 1850 2710 6080 29100 31500 34000 35100
2026-03-16 09:45 9.89 23200 35800 (1997) 822 (2002) 14000 952 1290 1850 2710 6080 29100 31500 34000 35100
2026-03-16 08:45 9.65 22300 35800 (1997) 822 (2002) 14000 952 1290 1850 2710 6080 29100 31500 34000 35100
2026-03-16 07:45 9.43 21400 35800 (1997) 822 (2002) 14000 952 1290 1850 2710 6080 29100 31500 34000 35100
2026-03-16 06:45 9.14 20300 35800 (1997) 822 (2002) 14000 952 1290 1850 2710 6080 29100 31500 34000 35100
2026-03-16 05:45 8.85 19100 35800 (1997) 822 (2002) 14000 952 1290 1850 2710 6080 29100 31500 34000 35100
2026-03-16 04:45 8.53 17800 35800 (1997) 822 (2002) 14000 952 1290 1850 2710 6080 29100 31500 34000 35100
2026-03-16 03:45 8.19 16600 35800 (1997) 822 (2002) 14000 952 1290 1850 2710 6080 29100 31500 34000 35100
2026-03-16 02:45 7.86 15400 35800 (1997) 822 (2002) 14000 952 1290 1850 2710 6080 29100 31500 34000 35100
2026-03-16 01:45 7.53 14300 35800 (1997) 822 (2002) 14000 952 1290 1850 2710 6080 29100 31500 34000 35100
2026-03-16 00:45 7.29 13500 35800 (1997) 822 (2002) 14000 952 1290 1850 2710 6080 29100 31500 34000 35100
2026-03-15 23:45 7.17 13100 35800 (1997) 822 (2002) 14000 952 1290 1850 2710 6080 29100 31500 34000 35100
2026-03-15 22:45 7.12 13000 39300 (2011) 903 (2002) 13700 1110 1450 3090 3610 5730 26400 33000 34500 38200
2026-03-15 21:45 7.20 13200 39300 (2011) 903 (2002) 13700 1110 1450 3090 3610 5730 26400 33000 34500 38200
2026-03-15 20:45 7.31 13600 39300 (2011) 903 (2002) 13700 1110 1450 3090 3610 5730 26400 33000 34500 38200
2026-03-15 19:45 7.46 14100 39300 (2011) 903 (2002) 13700 1110 1450 3090 3610 5730 26400 33000 34500 38200
2026-03-15 18:45 7.63 14700 39300 (2011) 903 (2002) 13700 1110 1450 3090 3610 5730 26400 33000 34500 38200
2026-03-15 17:45 7.83 15300 39300 (2011) 903 (2002) 13700 1110 1450 3090 3610 5730 26400 33000 34500 38200
2026-03-15 16:45 8.01 16000 39300 (2011) 903 (2002) 13700 1110 1450 3090 3610 5730 26400 33000 34500 38200
2026-03-15 15:45 8.21 16700 39300 (2011) 903 (2002) 13700 1110 1450 3090 3610 5730 26400 33000 34500 38200
2026-03-15 14:45 8.42 17400 39300 (2011) 903 (2002) 13700 1110 1450 3090 3610 5730 26400 33000 34500 38200
2026-03-15 13:45 8.67 18400 39300 (2011) 903 (2002) 13700 1110 1450 3090 3610 5730 26400 33000 34500 38200
2026-03-15 12:45 8.92 19400 39300 (2011) 903 (2002) 13700 1110 1450 3090 3610 5730 26400 33000 34500 38200
2026-03-15 11:45 9.16 20400 39300 (2011) 903 (2002) 13700 1110 1450 3090 3610 5730 26400 33000 34500 38200
2026-03-15 10:45 9.39 21300 39300 (2011) 903 (2002) 13700 1110 1450 3090 3610 5730 26400 33000 34500 38200
2026-03-15 09:45 9.64 22300 39300 (2011) 903 (2002) 13700 1110 1450 3090 3610 5730 26400 33000 34500 38200
2026-03-15 08:45 9.87 23100 39300 (2011) 903 (2002) 13700 1110 1450 3090 3610 5730 26400 33000 34500 38200
2026-03-15 07:45 10.07 23800 39300 (2011) 903 (2002) 13700 1110 1450 3090 3610 5730 26400 33000 34500 38200
2026-03-15 06:45 10.26 24400 39300 (2011) 903 (2002) 13700 1110 1450 3090 3610 5730 26400 33000 34500 38200
2026-03-15 05:45 10.40 24900 39300 (2011) 903 (2002) 13700 1110 1450 3090 3610 5730 26400 33000 34500 38200
2026-03-15 04:45 10.53 25400 39300 (2011) 903 (2002) 13700 1110 1450 3090 3610 5730 26400 33000 34500 38200
2026-03-15 03:45 10.60 25600 39300 (2011) 903 (2002) 13700 1110 1450 3090 3610 5730 26400 33000 34500 38200
2026-03-15 02:45 10.66 25800 39300 (2011) 903 (2002) 13700 1110 1450 3090 3610 5730 26400 33000 34500 38200
2026-03-15 01:45 10.72 26000 39300 (2011) 903 (2002) 13700 1110 1450 3090 3610 5730 26400 33000 34500 38200
2026-03-15 00:45 10.79 26300 39300 (2011) 903 (2002) 13700 1110 1450 3090 3610 5730 26400 33000 34500 38200
2026-03-14 23:45 10.84 26400 39300 (2011) 903 (2002) 13700 1110 1450 3090 3610 5730 26400 33000 34500 38200
2026-03-14 22:45 10.91 26700 38700 (1997) 1330 (2002) 13700 1340 1410 2230 2840 6520 26300 27900 34600 38000
2026-03-14 21:45 10.99 27000 38700 (1997) 1330 (2002) 13700 1340 1410 2230 2840 6520 26300 27900 34600 38000
2026-03-14 20:45 11.04 27200 38700 (1997) 1330 (2002) 13700 1340 1410 2230 2840 6520 26300 27900 34600 38000
2026-03-14 19:45 11.08 27300 38700 (1997) 1330 (2002) 13700 1340 1410 2230 2840 6520 26300 27900 34600 38000
2026-03-14 18:45 11.07 27300 38700 (1997) 1330 (2002) 13700 1340 1410 2230 2840 6520 26300 27900 34600 38000
2026-03-14 17:45 11.04 27200 38700 (1997) 1330 (2002) 13700 1340 1410 2230 2840 6520 26300 27900 34600 38000
2026-03-14 16:45 10.99 27000 38700 (1997) 1330 (2002) 13700 1340 1410 2230 2840 6520 26300 27900 34600 38000
2026-03-14 15:45 10.96 26900 38700 (1997) 1330 (2002) 13700 1340 1410 2230 2840 6520 26300 27900 34600 38000
2026-03-14 14:45 10.90 26700 38700 (1997) 1330 (2002) 13700 1340 1410 2230 2840 6520 26300 27900 34600 38000
2026-03-14 13:45 10.84 26400 38700 (1997) 1330 (2002) 13700 1340 1410 2230 2840 6520 26300 27900 34600 38000
2026-03-14 12:45 10.77 26200 38700 (1997) 1330 (2002) 13700 1340 1410 2230 2840 6520 26300 27900 34600 38000
2026-03-14 11:45 10.72 26000 38700 (1997) 1330 (2002) 13700 1340 1410 2230 2840 6520 26300 27900 34600 38000
2026-03-14 10:45 10.62 25700 38700 (1997) 1330 (2002) 13700 1340 1410 2230 2840 6520 26300 27900 34600 38000
2026-03-14 09:45 10.56 25500 38700 (1997) 1330 (2002) 13700 1340 1410 2230 2840 6520 26300 27900 34600 38000
2026-03-14 08:45 10.46 25100 38700 (1997) 1330 (2002) 13700 1340 1410 2230 2840 6520 26300 27900 34600 38000
2026-03-14 07:45 10.33 24700 38700 (1997) 1330 (2002) 13700 1340 1410 2230 2840 6520 26300 27900 34600 38000
2026-03-14 06:45 10.27 24500 38700 (1997) 1330 (2002) 13700 1340 1410 2230 2840 6520 26300 27900 34600 38000
2026-03-14 05:45 10.16 24100 38700 (1997) 1330 (2002) 13700 1340 1410 2230 2840 6520 26300 27900 34600 38000
2026-03-14 04:45 10.06 23700 38700 (1997) 1330 (2002) 13700 1340 1410 2230 2840 6520 26300 27900 34600 38000
2026-03-14 03:45 9.93 23300 38700 (1997) 1330 (2002) 13700 1340 1410 2230 2840 6520 26300 27900 34600 38000
2026-03-14 02:45 9.78 22800 38700 (1997) 1330 (2002) 13700 1340 1410 2230 2840 6520 26300 27900 34600 38000
2026-03-14 01:45 9.75 22700 38700 (1997) 1330 (2002) 13700 1340 1410 2230 2840 6520 26300 27900 34600 38000
2026-03-14 00:45 9.69 22400 38700 (1997) 1330 (2002) 13700 1340 1410 2230 2840 6520 26300 27900 34600 38000
2026-03-13 23:45 9.64 22300 38700 (1997) 1330 (2002) 13700 1340 1410 2230 2840 6520 26300 27900 34600 38000
2026-03-13 22:45 9.64 22300 35900 (1997) 1200 (2017) 12700 1280 1490 1790 1940 4790 24300 28100 34500 35500
2026-03-13 21:45 9.68 22400 35900 (1997) 1200 (2017) 12700 1280 1490 1790 1940 4790 24300 28100 34500 35500
2026-03-13 20:45 9.74 22600 35900 (1997) 1200 (2017) 12700 1280 1490 1790 1940 4790 24300 28100 34500 35500
2026-03-13 19:45 9.83 22900 35900 (1997) 1200 (2017) 12700 1280 1490 1790 1940 4790 24300 28100 34500 35500
2026-03-13 18:45 9.96 23400 35900 (1997) 1200 (2017) 12700 1280 1490 1790 1940 4790 24300 28100 34500 35500
2026-03-13 17:45 10.08 23800 35900 (1997) 1200 (2017) 12700 1280 1490 1790 1940 4790 24300 28100 34500 35500
2026-03-13 16:45 10.19 24200 35900 (1997) 1200 (2017) 12700 1280 1490 1790 1940 4790 24300 28100 34500 35500
2026-03-13 15:45 10.27 24500 35900 (1997) 1200 (2017) 12700 1280 1490 1790 1940 4790 24300 28100 34500 35500
2026-03-13 14:45 10.34 24700 35900 (1997) 1200 (2017) 12700 1280 1490 1790 1940 4790 24300 28100 34500 35500
2026-03-13 13:45 10.44 25000 35900 (1997) 1200 (2017) 12700 1280 1490 1790 1940 4790 24300 28100 34500 35500
2026-03-13 12:45 10.51 25300 35900 (1997) 1200 (2017) 12700 1280 1490 1790 1940 4790 24300 28100 34500 35500
2026-03-13 11:45 10.56 25500 35900 (1997) 1200 (2017) 12700 1280 1490 1790 1940 4790 24300 28100 34500 35500
2026-03-13 10:45 10.55 25400 35900 (1997) 1200 (2017) 12700 1280 1490 1790 1940 4790 24300 28100 34500 35500
2026-03-13 09:45 10.56 25500 35900 (1997) 1200 (2017) 12700 1280 1490 1790 1940 4790 24300 28100 34500 35500
2026-03-13 08:45 10.51 25300 35900 (1997) 1200 (2017) 12700 1280 1490 1790 1940 4790 24300 28100 34500 35500
2026-03-13 07:45 10.50 25200 35900 (1997) 1200 (2017) 12700 1280 1490 1790 1940 4790 24300 28100 34500 35500
2026-03-13 06:45 10.45 25100 35900 (1997) 1200 (2017) 12700 1280 1490 1790 1940 4790 24300 28100 34500 35500
2026-03-13 05:45 10.33 24700 35900 (1997) 1200 (2017) 12700 1280 1490 1790 1940 4790 24300 28100 34500 35500
2026-03-13 04:45 10.26 24400 35900 (1997) 1200 (2017) 12700 1280 1490 1790 1940 4790 24300 28100 34500 35500
2026-03-13 03:45 10.21 24200 35900 (1997) 1200 (2017) 12700 1280 1490 1790 1940 4790 24300 28100 34500 35500
2026-03-13 02:45 10.11 23900 35900 (1997) 1200 (2017) 12700 1280 1490 1790 1940 4790 24300 28100 34500 35500
2026-03-13 01:45 10.06 23700 35900 (1997) 1200 (2017) 12700 1280 1490 1790 1940 4790 24300 28100 34500 35500
2026-03-13 00:45 9.99 23500 35900 (1997) 1200 (2017) 12700 1280 1490 1790 1940 4790 24300 28100 34500 35500
2026-03-12 23:45 9.95 23400 35900 (1997) 1200 (2017) 12700 1280 1490 1790 1940 4790 24300 28100 34500 35500
2026-03-12 22:45 9.92 23300 35500 (1997) 737 (2003) 12200 981 1330 2020 2340 5970 22600 30900 33900 35400
2026-03-12 21:45 9.90 23200 35500 (1997) 737 (2003) 12200 981 1330 2020 2340 5970 22600 30900 33900 35400
2026-03-12 20:45 9.92 23300 35500 (1997) 737 (2003) 12200 981 1330 2020 2340 5970 22600 30900 33900 35400
2026-03-12 19:45 9.92 23300 35500 (1997) 737 (2003) 12200 981 1330 2020 2340 5970 22600 30900 33900 35400
2026-03-12 18:45 9.94 23300 35500 (1997) 737 (2003) 12200 981 1330 2020 2340 5970 22600 30900 33900 35400
2026-03-12 17:45 9.93 23300 35500 (1997) 737 (2003) 12200 981 1330 2020 2340 5970 22600 30900 33900 35400
2026-03-12 16:45 9.95 23400 35500 (1997) 737 (2003) 12200 981 1330 2020 2340 5970 22600 30900 33900 35400
2026-03-12 15:45 9.94 23300 35500 (1997) 737 (2003) 12200 981 1330 2020 2340 5970 22600 30900 33900 35400
2026-03-12 14:45 9.95 23400 35500 (1997) 737 (2003) 12200 981 1330 2020 2340 5970 22600 30900 33900 35400
2026-03-12 13:45 9.96 23400 35500 (1997) 737 (2003) 12200 981 1330 2020 2340 5970 22600 30900 33900 35400
2026-03-12 12:45 9.95 23400 35500 (1997) 737 (2003) 12200 981 1330 2020 2340 5970 22600 30900 33900 35400
2026-03-12 11:45 9.96 23400 35500 (1997) 737 (2003) 12200 981 1330 2020 2340 5970 22600 30900 33900 35400
2026-03-12 10:45 9.98 23500 35500 (1997) 737 (2003) 12200 981 1330 2020 2340 5970 22600 30900 33900 35400
2026-03-12 09:45 9.97 23400 35500 (1997) 737 (2003) 12200 981 1330 2020 2340 5970 22600 30900 33900 35400
2026-03-12 08:45 9.96 23400 35500 (1997) 737 (2003) 12200 981 1330 2020 2340 5970 22600 30900 33900 35400
2026-03-12 07:45 9.96 23400 35500 (1997) 737 (2003) 12200 981 1330 2020 2340 5970 22600 30900 33900 35400
2026-03-12 06:45 9.97 23400 35500 (1997) 737 (2003) 12200 981 1330 2020 2340 5970 22600 30900 33900 35400
2026-03-12 05:45 9.98 23500 35500 (1997) 737 (2003) 12200 981 1330 2020 2340 5970 22600 30900 33900 35400
2026-03-12 04:45 9.97 23400 35500 (1997) 737 (2003) 12200 981 1330 2020 2340 5970 22600 30900 33900 35400
2026-03-12 03:45 9.96 23400 35500 (1997) 737 (2003) 12200 981 1330 2020 2340 5970 22600 30900 33900 35400
2026-03-12 02:45 9.95 23400 35500 (1997) 737 (2003) 12200 981 1330 2020 2340 5970 22600 30900 33900 35400
2026-03-12 01:45 9.97 23400 35500 (1997) 737 (2003) 12200 981 1330 2020 2340 5970 22600 30900 33900 35400
2026-03-12 00:45 9.96 23400 35500 (1997) 737 (2003) 12200 981 1330 2020 2340 5970 22600 30900 33900 35400
2026-03-11 23:45 9.95 23400 35500 (1997) 737 (2003) 12200 981 1330 2020 2340 5970 22600 30900 33900 35400
2026-03-11 22:45 9.96 23400 35800 (1997) 642 (2003) 12300 781 1220 1490 1530 7500 22800 26200 34400 35700
2026-03-11 21:45 9.96 23400 35800 (1997) 642 (2003) 12300 781 1220 1490 1530 7500 22800 26200 34400 35700
2026-03-11 20:45 9.97 23400 35800 (1997) 642 (2003) 12300 781 1220 1490 1530 7500 22800 26200 34400 35700
2026-03-11 19:45 9.93 23300 35800 (1997) 642 (2003) 12300 781 1220 1490 1530 7500 22800 26200 34400 35700
2026-03-11 18:45 9.95 23400 35800 (1997) 642 (2003) 12300 781 1220 1490 1530 7500 22800 26200 34400 35700
2026-03-11 17:45 9.94 23300 35800 (1997) 642 (2003) 12300 781 1220 1490 1530 7500 22800 26200 34400 35700
2026-03-11 16:45 9.92 23300 35800 (1997) 642 (2003) 12300 781 1220 1490 1530 7500 22800 26200 34400 35700
2026-03-11 15:45 9.95 23400 35800 (1997) 642 (2003) 12300 781 1220 1490 1530 7500 22800 26200 34400 35700
2026-03-11 14:45 9.94 23300 35800 (1997) 642 (2003) 12300 781 1220 1490 1530 7500 22800 26200 34400 35700
2026-03-11 13:45 9.96 23400 35800 (1997) 642 (2003) 12300 781 1220 1490 1530 7500 22800 26200 34400 35700
2026-03-11 12:45 9.95 23400 35800 (1997) 642 (2003) 12300 781 1220 1490 1530 7500 22800 26200 34400 35700
2026-03-11 11:45 9.94 23300 35800 (1997) 642 (2003) 12300 781 1220 1490 1530 7500 22800 26200 34400 35700
2026-03-11 10:45 9.97 23400 35800 (1997) 642 (2003) 12300 781 1220 1490 1530 7500 22800 26200 34400 35700
2026-03-11 09:45 9.95 23400 35800 (1997) 642 (2003) 12300 781 1220 1490 1530 7500 22800 26200 34400 35700
2026-03-11 08:45 9.99 23500 35800 (1997) 642 (2003) 12300 781 1220 1490 1530 7500 22800 26200 34400 35700
2026-03-11 07:45 9.94 23300 35800 (1997) 642 (2003) 12300 781 1220 1490 1530 7500 22800 26200 34400 35700
2026-03-11 06:45 9.96 23400 35800 (1997) 642 (2003) 12300 781 1220 1490 1530 7500 22800 26200 34400 35700
2026-03-11 05:45 9.95 23400 35800 (1997) 642 (2003) 12300 781 1220 1490 1530 7500 22800 26200 34400 35700
2026-03-11 04:45 9.95 23400 35800 (1997) 642 (2003) 12300 781 1220 1490 1530 7500 22800 26200 34400 35700
2026-03-11 03:45 9.93 23300 35800 (1997) 642 (2003) 12300 781 1220 1490 1530 7500 22800 26200 34400 35700
2026-03-11 02:45 9.90 23200 35800 (1997) 642 (2003) 12300 781 1220 1490 1530 7500 22800 26200 34400 35700
2026-03-11 01:45 9.85 23000 35800 (1997) 642 (2003) 12300 781 1220 1490 1530 7500 22800 26200 34400 35700
2026-03-11 00:45 9.87 23100 35800 (1997) 642 (2003) 12300 781 1220 1490 1530 7500 22800 26200 34400 35700
2026-03-10 23:45 9.85 23000 35800 (1997) 642 (2003) 12300 781 1220 1490 1530 7500 22800 26200 34400 35700
2026-03-10 22:45 9.89 23200 36600 (2011) 673 (2003) 12600 843 1230 1490 1950 7670 22200 25700 33600 36500
2026-03-10 21:45 9.88 23100 36600 (2011) 673 (2003) 12600 843 1230 1490 1950 7670 22200 25700 33600 36500
2026-03-10 20:45 9.90 23200 36600 (2011) 673 (2003) 12600 843 1230 1490 1950 7670 22200 25700 33600 36500
2026-03-10 19:45 9.90 23200 36600 (2011) 673 (2003) 12600 843 1230 1490 1950 7670 22200 25700 33600 36500
2026-03-10 18:45 9.93 23300 36600 (2011) 673 (2003) 12600 843 1230 1490 1950 7670 22200 25700 33600 36500
2026-03-10 17:45 9.94 23300 36600 (2011) 673 (2003) 12600 843 1230 1490 1950 7670 22200 25700 33600 36500
2026-03-10 16:45 9.96 23400 36600 (2011) 673 (2003) 12600 843 1230 1490 1950 7670 22200 25700 33600 36500
2026-03-10 15:45 9.99 23500 36600 (2011) 673 (2003) 12600 843 1230 1490 1950 7670 22200 25700 33600 36500
2026-03-10 14:45 1 23500 36600 (2011) 673 (2003) 12600 843 1230 1490 1950 7670 22200 25700 33600 36500
2026-03-10 13:45 10.01 23600 36600 (2011) 673 (2003) 12600 843 1230 1490 1950 7670 22200 25700 33600 36500
2026-03-10 12:45 10.05 23700 36600 (2011) 673 (2003) 12600 843 1230 1490 1950 7670 22200 25700 33600 36500
2026-03-10 11:45 10.10 23900 36600 (2011) 673 (2003) 12600 843 1230 1490 1950 7670 22200 25700 33600 36500
2026-03-10 10:45 10.12 23900 36600 (2011) 673 (2003) 12600 843 1230 1490 1950 7670 22200 25700 33600 36500
2026-03-10 09:45 10.16 24100 36600 (2011) 673 (2003) 12600 843 1230 1490 1950 7670 22200 25700 33600 36500
2026-03-10 08:45 10.21 24200 36600 (2011) 673 (2003) 12600 843 1230 1490 1950 7670 22200 25700 33600 36500
2026-03-10 07:45 10.26 24400 36600 (2011) 673 (2003) 12600 843 1230 1490 1950 7670 22200 25700 33600 36500
2026-03-10 06:45 10.31 24600 36600 (2011) 673 (2003) 12600 843 1230 1490 1950 7670 22200 25700 33600 36500
2026-03-10 05:45 10.37 24800 36600 (2011) 673 (2003) 12600 843 1230 1490 1950 7670 22200 25700 33600 36500
2026-03-10 04:45 10.47 25100 36600 (2011) 673 (2003) 12600 843 1230 1490 1950 7670 22200 25700 33600 36500
2026-03-10 03:45 10.53 25400 36600 (2011) 673 (2003) 12600 843 1230 1490 1950 7670 22200 25700 33600 36500
2026-03-10 02:45 10.60 25600 36600 (2011) 673 (2003) 12600 843 1230 1490 1950 7670 22200 25700 33600 36500
2026-03-10 01:45 10.71 26000 36600 (2011) 673 (2003) 12600 843 1230 1490 1950 7670 22200 25700 33600 36500
2026-03-10 00:45 10.81 26400 36600 (2011) 673 (2003) 12600 843 1230 1490 1950 7670 22200 25700 33600 36500
2026-03-09 23:45 10.91 26700 36600 (2011) 673 (2003) 12600 843 1230 1490 1950 7670 22200 25700 33600 36500
2026-03-09 22:45 11.02 27100 39000 (2011) 804 (2003) 12600 928 1170 1450 1500 11200 20200 23500 33000 37400
2026-03-09 21:45 11.16 27600 39000 (2011) 804 (2003) 12600 928 1170 1450 1500 11200 20200 23500 33000 37400
2026-03-09 20:45 11.32 28200 39000 (2011) 804 (2003) 12600 928 1170 1450 1500 11200 20200 23500 33000 37400
2026-03-09 19:45 11.41 28500 39000 (2011) 804 (2003) 12600 928 1170 1450 1500 11200 20200 23500 33000 37400
2026-03-09 18:45 11.61 29300 39000 (2011) 804 (2003) 12600 928 1170 1450 1500 11200 20200 23500 33000 37400
2026-03-09 17:45 11.77 29900 39000 (2011) 804 (2003) 12600 928 1170 1450 1500 11200 20200 23500 33000 37400
2026-03-09 16:45 11.92 30500 39000 (2011) 804 (2003) 12600 928 1170 1450 1500 11200 20200 23500 33000 37400
2026-03-09 15:45 12.05 31000 39000 (2011) 804 (2003) 12600 928 1170 1450 1500 11200 20200 23500 33000 37400
2026-03-09 14:45 12.22 31600 39000 (2011) 804 (2003) 12600 928 1170 1450 1500 11200 20200 23500 33000 37400
2026-03-09 13:45 12.35 32100 39000 (2011) 804 (2003) 12600 928 1170 1450 1500 11200 20200 23500 33000 37400
2026-03-09 12:45 12.48 32600 39000 (2011) 804 (2003) 12600 928 1170 1450 1500 11200 20200 23500 33000 37400
2026-03-09 11:45 12.55 32900 39000 (2011) 804 (2003) 12600 928 1170 1450 1500 11200 20200 23500 33000 37400
2026-03-09 10:45 12.64 33200 39000 (2011) 804 (2003) 12600 928 1170 1450 1500 11200 20200 23500 33000 37400
2026-03-09 09:45 12.72 33500 39000 (2011) 804 (2003) 12600 928 1170 1450 1500 11200 20200 23500 33000 37400
2026-03-09 08:45 12.79 33800 39000 (2011) 804 (2003) 12600 928 1170 1450 1500 11200 20200 23500 33000 37400
2026-03-09 07:45 12.82 34000 39000 (2011) 804 (2003) 12600 928 1170 1450 1500 11200 20200 23500 33000 37400
2026-03-09 06:45 12.82 34000 39000 (2011) 804 (2003) 12600 928 1170 1450 1500 11200 20200 23500 33000 37400
2026-03-09 05:45 12.93 34400 39000 (2011) 804 (2003) 12600 928 1170 1450 1500 11200 20200 23500 33000 37400
2026-03-09 04:45 12.89 34200 39000 (2011) 804 (2003) 12600 928 1170 1450 1500 11200 20200 23500 33000 37400
2026-03-09 03:45 12.84 34000 39000 (2011) 804 (2003) 12600 928 1170 1450 1500 11200 20200 23500 33000 37400
2026-03-09 02:45 12.77 33700 39000 (2011) 804 (2003) 12600 928 1170 1450 1500 11200 20200 23500 33000 37400
2026-03-09 01:45 12.71 33500 39000 (2011) 804 (2003) 12600 928 1170 1450 1500 11200 20200 23500 33000 37400
2026-03-09 00:45 12.60 33100 39000 (2011) 804 (2003) 12600 928 1170 1450 1500 11200 20200 23500 33000 37400
2026-03-08 23:45 12.46 32500 39000 (2011) 804 (2003) 12600 928 1170 1450 1500 11200 20200 23500 33000 37400
2026-03-08 22:45 12.37 32200 35100 (1997) 1180 (2006) 11800 1250 1470 2010 2260 7340 20400 23100 30900 34900
2026-03-08 21:45 12.23 31600 35100 (1997) 1180 (2006) 11800 1250 1470 2010 2260 7340 20400 23100 30900 34900
2026-03-08 20:45 12.08 31000 35100 (1997) 1180 (2006) 11800 1250 1470 2010 2260 7340 20400 23100 30900 34900
2026-03-08 19:45 11.91 30400 35100 (1997) 1180 (2006) 11800 1250 1470 2010 2260 7340 20400 23100 30900 34900
2026-03-08 18:45 11.69 29600 35100 (1997) 1180 (2006) 11800 1250 1470 2010 2260 7340 20400 23100 30900 34900
2026-03-08 17:45 11.52 29000 35100 (1997) 1180 (2006) 11800 1250 1470 2010 2260 7340 20400 23100 30900 34900
2026-03-08 16:45 11.29 28100 35100 (1997) 1180 (2006) 11800 1250 1470 2010 2260 7340 20400 23100 30900 34900
2026-03-08 15:45 11.02 27100 35100 (1997) 1180 (2006) 11800 1250 1470 2010 2260 7340 20400 23100 30900 34900
2026-03-08 14:45 10.69 25900 35100 (1997) 1180 (2006) 11800 1250 1470 2010 2260 7340 20400 23100 30900 34900
2026-03-08 13:45 10.40 24900 35100 (1997) 1180 (2006) 11800 1250 1470 2010 2260 7340 20400 23100 30900 34900
2026-03-08 12:45 1 23500 35100 (1997) 1180 (2006) 11800 1250 1470 2010 2260 7340 20400 23100 30900 34900
2026-03-08 11:45 9.55 21900 35100 (1997) 1180 (2006) 11800 1250 1470 2010 2260 7340 20400 23100 30900 34900
2026-03-08 10:45 9.10 20100 35100 (1997) 1180 (2006) 11800 1250 1470 2010 2260 7340 20400 23100 30900 34900
2026-03-08 09:45 8.61 18100 35100 (1997) 1180 (2006) 11800 1250 1470 2010 2260 7340 20400 23100 30900 34900
2026-03-08 08:45 8.22 16700 35100 (1997) 1180 (2006) 11800 1250 1470 2010 2260 7340 20400 23100 30900 34900
2026-03-08 07:45 7.93 15700 35100 (1997) 1180 (2006) 11800 1250 1470 2010 2260 7340 20400 23100 30900 34900
2026-03-08 06:45 7.76 15100 35100 (1997) 1180 (2006) 11800 1250 1470 2010 2260 7340 20400 23100 30900 34900
2026-03-08 05:45 7.70 14900 35100 (1997) 1180 (2006) 11800 1250 1470 2010 2260 7340 20400 23100 30900 34900
2026-03-08 04:45 7.71 14900 35100 (1997) 1180 (2006) 11800 1250 1470 2010 2260 7340 20400 23100 30900 34900
2026-03-08 03:45 7.71 14900 35100 (1997) 1180 (2006) 11800 1250 1470 2010 2260 7340 20400 23100 30900 34900
2026-03-08 01:45 7.65 14700 35100 (1997) 1180 (2006) 11800 1250 1470 2010 2260 7340 20400 23100 30900 34900
2026-03-08 00:45 7.56 14400 35100 (1997) 1180 (2006) 11800 1250 1470 2010 2260 7340 20400 23100 30900 34900
2026-03-07 23:45 7.43 14000 35100 (1997) 1180 (2006) 11800 1250 1470 2010 2260 7340 20400 23100 30900 34900
2026-03-07 22:45 7.31 13600 35200 (1997) 1240 (2017) 11800 1270 1350 1710 2870 7150 20600 25000 32000 34300
2026-03-07 21:45 7.15 13100 35200 (1997) 1240 (2017) 11800 1270 1350 1710 2870 7150 20600 25000 32000 34300
2026-03-07 20:45 6.93 12400 35200 (1997) 1240 (2017) 11800 1270 1350 1710 2870 7150 20600 25000 32000 34300
2026-03-07 19:45 6.58 11300 35200 (1997) 1240 (2017) 11800 1270 1350 1710 2870 7150 20600 25000 32000 34300
2026-03-07 18:45 6.09 9880 35200 (1997) 1240 (2017) 11800 1270 1350 1710 2870 7150 20600 25000 32000 34300
2026-03-07 17:45 5.50 8230 35200 (1997) 1240 (2017) 11800 1270 1350 1710 2870 7150 20600 25000 32000 34300
2026-03-07 16:45 4.97 6780 35200 (1997) 1240 (2017) 11800 1270 1350 1710 2870 7150 20600 25000 32000 34300
2026-03-07 15:45 4.66 5940 35200 (1997) 1240 (2017) 11800 1270 1350 1710 2870 7150 20600 25000 32000 34300
2026-03-07 14:45 4.49 5470 35200 (1997) 1240 (2017) 11800 1270 1350 1710 2870 7150 20600 25000 32000 34300
2026-03-07 13:45 4.39 5200 35200 (1997) 1240 (2017) 11800 1270 1350 1710 2870 7150 20600 25000 32000 34300
2026-03-07 12:45 4.30 4970 35200 (1997) 1240 (2017) 11800 1270 1350 1710 2870 7150 20600 25000 32000 34300
2026-03-07 11:45 4.20 4700 35200 (1997) 1240 (2017) 11800 1270 1350 1710 2870 7150 20600 25000 32000 34300
2026-03-07 10:45 4.10 4430 35200 (1997) 1240 (2017) 11800 1270 1350 1710 2870 7150 20600 25000 32000 34300
2026-03-07 09:45 3.99 4150 35200 (1997) 1240 (2017) 11800 1270 1350 1710 2870 7150 20600 25000 32000 34300
2026-03-07 08:45 3.89 3890 35200 (1997) 1240 (2017) 11800 1270 1350 1710 2870 7150 20600 25000 32000 34300
2026-03-07 07:45 3.79 3640 35200 (1997) 1240 (2017) 11800 1270 1350 1710 2870 7150 20600 25000 32000 34300
2026-03-07 06:45 3.71 3440 35200 (1997) 1240 (2017) 11800 1270 1350 1710 2870 7150 20600 25000 32000 34300
2026-03-07 05:45 3.63 3230 35200 (1997) 1240 (2017) 11800 1270 1350 1710 2870 7150 20600 25000 32000 34300
2026-03-07 04:45 3.54 3000 35200 (1997) 1240 (2017) 11800 1270 1350 1710 2870 7150 20600 25000 32000 34300
2026-03-07 03:45 3.46 2810 35200 (1997) 1240 (2017) 11800 1270 1350 1710 2870 7150 20600 25000 32000 34300
2026-03-07 02:45 3.41 2700 35200 (1997) 1240 (2017) 11800 1270 1350 1710 2870 7150 20600 25000 32000 34300
2026-03-07 01:45 3.34 2540 35200 (1997) 1240 (2017) 11800 1270 1350 1710 2870 7150 20600 25000 32000 34300
2026-03-07 00:45 3.28 2420 35200 (1997) 1240 (2017) 11800 1270 1350 1710 2870 7150 20600 25000 32000 34300
2026-03-06 23:45 3.25 2360 35200 (1997) 1240 (2017) 11800 1270 1350 1710 2870 7150 20600 25000 32000 34300
2026-03-06 22:45 3.23 2320 35700 (2011) 951 (2006) 12400 1060 1350 1730 2690 9340 20000 23200 35000 35500
2026-03-06 21:45 3.23 2320 35700 (2011) 951 (2006) 12400 1060 1350 1730 2690 9340 20000 23200 35000 35500
2026-03-06 20:45 3.22 2300 35700 (2011) 951 (2006) 12400 1060 1350 1730 2690 9340 20000 23200 35000 35500
2026-03-06 19:45 3.23 2320 35700 (2011) 951 (2006) 12400 1060 1350 1730 2690 9340 20000 23200 35000 35500
2026-03-06 18:45 3.24 2340 35700 (2011) 951 (2006) 12400 1060 1350 1730 2690 9340 20000 23200 35000 35500
2026-03-06 17:45 3.26 2380 35700 (2011) 951 (2006) 12400 1060 1350 1730 2690 9340 20000 23200 35000 35500
2026-03-06 16:45 3.28 2420 35700 (2011) 951 (2006) 12400 1060 1350 1730 2690 9340 20000 23200 35000 35500
2026-03-06 15:45 3.30 2460 35700 (2011) 951 (2006) 12400 1060 1350 1730 2690 9340 20000 23200 35000 35500
2026-03-06 14:45 3.32 2500 35700 (2011) 951 (2006) 12400 1060 1350 1730 2690 9340 20000 23200 35000 35500
2026-03-06 13:45 3.35 2570 35700 (2011) 951 (2006) 12400 1060 1350 1730 2690 9340 20000 23200 35000 35500
2026-03-06 12:45 3.37 2610 35700 (2011) 951 (2006) 12400 1060 1350 1730 2690 9340 20000 23200 35000 35500
2026-03-06 11:45 3.40 2670 35700 (2011) 951 (2006) 12400 1060 1350 1730 2690 9340 20000 23200 35000 35500
2026-03-06 10:45 3.42 2720 35700 (2011) 951 (2006) 12400 1060 1350 1730 2690 9340 20000 23200 35000 35500
2026-03-06 09:45 3.43 2740 35700 (2011) 951 (2006) 12400 1060 1350 1730 2690 9340 20000 23200 35000 35500
2026-03-06 08:45 3.45 2790 35700 (2011) 951 (2006) 12400 1060 1350 1730 2690 9340 20000 23200 35000 35500
2026-03-06 07:45 3.48 2860 35700 (2011) 951 (2006) 12400 1060 1350 1730 2690 9340 20000 23200 35000 35500
2026-03-06 06:45 3.50 2900 35700 (2011) 951 (2006) 12400 1060 1350 1730 2690 9340 20000 23200 35000 35500
2026-03-06 05:45 3.53 2980 35700 (2011) 951 (2006) 12400 1060 1350 1730 2690 9340 20000 23200 35000 35500
2026-03-06 04:45 3.55 3030 35700 (2011) 951 (2006) 12400 1060 1350 1730 2690 9340 20000 23200 35000 35500
2026-03-06 03:45 3.57 3080 35700 (2011) 951 (2006) 12400 1060 1350 1730 2690 9340 20000 23200 35000 35500
2026-03-06 02:45 3.60 3150 35700 (2011) 951 (2006) 12400 1060 1350 1730 2690 9340 20000 23200 35000 35500
2026-03-06 01:45 3.62 3200 35700 (2011) 951 (2006) 12400 1060 1350 1730 2690 9340 20000 23200 35000 35500
2026-03-06 00:45 3.64 3250 35700 (2011) 951 (2006) 12400 1060 1350 1730 2690 9340 20000 23200 35000 35500
2026-03-05 23:45 3.66 3310 35700 (2011) 951 (2006) 12400 1060 1350 1730 2690 9340 20000 23200 35000 35500
2026-03-05 22:45 3.67 3330 35800 (2011) 1320 (2017) 12300 1350 1450 3360 3780 9350 19400 22700 31500 35700
2026-03-05 21:45 3.67 3330 35800 (2011) 1320 (2017) 12300 1350 1450 3360 3780 9350 19400 22700 31500 35700
2026-03-05 20:45 3.66 3310 35800 (2011) 1320 (2017) 12300 1350 1450 3360 3780 9350 19400 22700 31500 35700
2026-03-05 19:45 3.64 3250 35800 (2011) 1320 (2017) 12300 1350 1450 3360 3780 9350 19400 22700 31500 35700
2026-03-05 18:45 3.61 3180 35800 (2011) 1320 (2017) 12300 1350 1450 3360 3780 9350 19400 22700 31500 35700
2026-03-05 17:45 3.58 3100 35800 (2011) 1320 (2017) 12300 1350 1450 3360 3780 9350 19400 22700 31500 35700
2026-03-05 16:45 3.56 3050 35800 (2011) 1320 (2017) 12300 1350 1450 3360 3780 9350 19400 22700 31500 35700
2026-03-05 15:45 3.54 3000 35800 (2011) 1320 (2017) 12300 1350 1450 3360 3780 9350 19400 22700 31500 35700
2026-03-05 14:45 3.51 2930 35800 (2011) 1320 (2017) 12300 1350 1450 3360 3780 9350 19400 22700 31500 35700
2026-03-05 13:45 3.49 2880 35800 (2011) 1320 (2017) 12300 1350 1450 3360 3780 9350 19400 22700 31500 35700
2026-03-05 12:45 3.46 2810 35800 (2011) 1320 (2017) 12300 1350 1450 3360 3780 9350 19400 22700 31500 35700
2026-03-05 11:45 3.43 2740 35800 (2011) 1320 (2017) 12300 1350 1450 3360 3780 9350 19400 22700 31500 35700
2026-03-05 10:45 3.40 2670 35800 (2011) 1320 (2017) 12300 1350 1450 3360 3780 9350 19400 22700 31500 35700
2026-03-05 09:45 3.38 2630 35800 (2011) 1320 (2017) 12300 1350 1450 3360 3780 9350 19400 22700 31500 35700
2026-03-05 08:45 3.36 2590 35800 (2011) 1320 (2017) 12300 1350 1450 3360 3780 9350 19400 22700 31500 35700
2026-03-05 07:45 3.33 2520 35800 (2011) 1320 (2017) 12300 1350 1450 3360 3780 9350 19400 22700 31500 35700
2026-03-05 06:45 3.29 2440 35800 (2011) 1320 (2017) 12300 1350 1450 3360 3780 9350 19400 22700 31500 35700
2026-03-05 05:45 3.27 2400 35800 (2011) 1320 (2017) 12300 1350 1450 3360 3780 9350 19400 22700 31500 35700
2026-03-05 04:45 3.27 2400 35800 (2011) 1320 (2017) 12300 1350 1450 3360 3780 9350 19400 22700 31500 35700
2026-03-05 03:45 3.28 2420 35800 (2011) 1320 (2017) 12300 1350 1450 3360 3780 9350 19400 22700 31500 35700
2026-03-05 02:45 3.29 2440 35800 (2011) 1320 (2017) 12300 1350 1450 3360 3780 9350 19400 22700 31500 35700
2026-03-05 01:45 3.31 2480 35800 (2011) 1320 (2017) 12300 1350 1450 3360 3780 9350 19400 22700 31500 35700
2026-03-05 00:45 3.33 2520 35800 (2011) 1320 (2017) 12300 1350 1450 3360 3780 9350 19400 22700 31500 35700
2026-03-04 23:45 3.37 2610 35800 (2011) 1320 (2017) 12300 1350 1450 3360 3780 9350 19400 22700 31500 35700
2026-03-04 22:45 3.38 2630 35900 (1997) 1440 (2024) 13500 1440 2150 3860 4230 13100 21000 21500 31400 35100
2026-03-04 21:45 3.40 2670 35900 (1997) 1440 (2024) 13500 1440 2150 3860 4230 13100 21000 21500 31400 35100
2026-03-04 20:45 3.44 2760 35900 (1997) 1440 (2024) 13500 1440 2150 3860 4230 13100 21000 21500 31400 35100
2026-03-04 19:45 3.48 2860 35900 (1997) 1440 (2024) 13500 1440 2150 3860 4230 13100 21000 21500 31400 35100
2026-03-04 18:45 3.52 2950 35900 (1997) 1440 (2024) 13500 1440 2150 3860 4230 13100 21000 21500 31400 35100
2026-03-04 17:45 3.56 3050 35900 (1997) 1440 (2024) 13500 1440 2150 3860 4230 13100 21000 21500 31400 35100
2026-03-04 16:45 3.60 3150 35900 (1997) 1440 (2024) 13500 1440 2150 3860 4230 13100 21000 21500 31400 35100
2026-03-04 15:45 3.63 3230 35900 (1997) 1440 (2024) 13500 1440 2150 3860 4230 13100 21000 21500 31400 35100
2026-03-04 14:45 3.66 3310 35900 (1997) 1440 (2024) 13500 1440 2150 3860 4230 13100 21000 21500 31400 35100
2026-03-04 13:45 3.70 3410 35900 (1997) 1440 (2024) 13500 1440 2150 3860 4230 13100 21000 21500 31400 35100
2026-03-04 12:45 3.73 3490 35900 (1997) 1440 (2024) 13500 1440 2150 3860 4230 13100 21000 21500 31400 35100
2026-03-04 11:45 3.74 3520 35900 (1997) 1440 (2024) 13500 1440 2150 3860 4230 13100 21000 21500 31400 35100
2026-03-04 10:45 3.73 3490 35900 (1997) 1440 (2024) 13500 1440 2150 3860 4230 13100 21000 21500 31400 35100
2026-03-04 09:45 3.74 3520 35900 (1997) 1440 (2024) 13500 1440 2150 3860 4230 13100 21000 21500 31400 35100
2026-03-04 08:45 3.74 3520 35900 (1997) 1440 (2024) 13500 1440 2150 3860 4230 13100 21000 21500 31400 35100
2026-03-04 07:45 3.74 3520 35900 (1997) 1440 (2024) 13500 1440 2150 3860 4230 13100 21000 21500 31400 35100
2026-03-04 06:45 3.74 3520 35900 (1997) 1440 (2024) 13500 1440 2150 3860 4230 13100 21000 21500 31400 35100
2026-03-04 05:45 3.74 3520 35900 (1997) 1440 (2024) 13500 1440 2150 3860 4230 13100 21000 21500 31400 35100
2026-03-04 04:45 3.74 3520 35900 (1997) 1440 (2024) 13500 1440 2150 3860 4230 13100 21000 21500 31400 35100
2026-03-04 03:45 3.74 3520 35900 (1997) 1440 (2024) 13500 1440 2150 3860 4230 13100 21000 21500 31400 35100
2026-03-04 02:45 3.74 3520 35900 (1997) 1440 (2024) 13500 1440 2150 3860 4230 13100 21000 21500 31400 35100
2026-03-04 01:45 3.74 3520 35900 (1997) 1440 (2024) 13500 1440 2150 3860 4230 13100 21000 21500 31400 35100
2026-03-04 00:45 3.73 3490 35900 (1997) 1440 (2024) 13500 1440 2150 3860 4230 13100 21000 21500 31400 35100
2026-03-03 23:45 3.73 3490 35900 (1997) 1440 (2024) 13500 1440 2150 3860 4230 13100 21000 21500 31400 35100
2026-03-03 22:45 3.73 3490 36500 (1997) 1500 (2024) 13000 1550 1670 3050 3310 8280 24000 26200 30300 35600
2026-03-03 21:45 3.74 3520 36500 (1997) 1500 (2024) 13000 1550 1670 3050 3310 8280 24000 26200 30300 35600
2026-03-03 20:45 3.74 3520 36500 (1997) 1500 (2024) 13000 1550 1670 3050 3310 8280 24000 26200 30300 35600
2026-03-03 19:45 3.74 3520 36500 (1997) 1500 (2024) 13000 1550 1670 3050 3310 8280 24000 26200 30300 35600
2026-03-03 18:45 3.74 3520 36500 (1997) 1500 (2024) 13000 1550 1670 3050 3310 8280 24000 26200 30300 35600
2026-03-03 17:45 3.74 3520 36500 (1997) 1500 (2024) 13000 1550 1670 3050 3310 8280 24000 26200 30300 35600
2026-03-03 16:45 3.74 3520 36500 (1997) 1500 (2024) 13000 1550 1670 3050 3310 8280 24000 26200 30300 35600
2026-03-03 15:45 3.74 3520 36500 (1997) 1500 (2024) 13000 1550 1670 3050 3310 8280 24000 26200 30300 35600
2026-03-03 14:45 3.74 3520 36500 (1997) 1500 (2024) 13000 1550 1670 3050 3310 8280 24000 26200 30300 35600
2026-03-03 13:45 3.74 3520 36500 (1997) 1500 (2024) 13000 1550 1670 3050 3310 8280 24000 26200 30300 35600
2026-03-03 12:45 3.75 3540 36500 (1997) 1500 (2024) 13000 1550 1670 3050 3310 8280 24000 26200 30300 35600
2026-03-03 11:45 3.74 3520 36500 (1997) 1500 (2024) 13000 1550 1670 3050 3310 8280 24000 26200 30300 35600
2026-03-03 10:45 3.74 3520 36500 (1997) 1500 (2024) 13000 1550 1670 3050 3310 8280 24000 26200 30300 35600
2026-03-03 09:45 3.74 3520 36500 (1997) 1500 (2024) 13000 1550 1670 3050 3310 8280 24000 26200 30300 35600
2026-03-03 08:45 3.74 3520 36500 (1997) 1500 (2024) 13000 1550 1670 3050 3310 8280 24000 26200 30300 35600
2026-03-03 07:45 3.74 3520 36500 (1997) 1500 (2024) 13000 1550 1670 3050 3310 8280 24000 26200 30300 35600
2026-03-03 06:45 3.74 3520 36500 (1997) 1500 (2024) 13000 1550 1670 3050 3310 8280 24000 26200 30300 35600
2026-03-03 05:45 3.74 3520 36500 (1997) 1500 (2024) 13000 1550 1670 3050 3310 8280 24000 26200 30300 35600
2026-03-03 04:45 3.74 3520 36500 (1997) 1500 (2024) 13000 1550 1670 3050 3310 8280 24000 26200 30300 35600
2026-03-03 03:45 3.74 3520 36500 (1997) 1500 (2024) 13000 1550 1670 3050 3310 8280 24000 26200 30300 35600
2026-03-03 02:45 3.74 3520 36500 (1997) 1500 (2024) 13000 1550 1670 3050 3310 8280 24000 26200 30300 35600
2026-03-03 01:45 3.74 3520 36500 (1997) 1500 (2024) 13000 1550 1670 3050 3310 8280 24000 26200 30300 35600
2026-03-03 00:45 3.74 3520 36500 (1997) 1500 (2024) 13000 1550 1670 3050 3310 8280 24000 26200 30300 35600
2026-03-02 23:45 3.74 3520 36500 (1997) 1500 (2024) 13000 1550 1670 3050 3310 8280 24000 26200 30300 35600
2026-03-02 22:45 3.75 3540 37500 (1997) 710 (2006) 13500 717 1270 3110 3800 8700 26800 28500 32700 36900
2026-03-02 21:45 3.74 3520 37500 (1997) 710 (2006) 13500 717 1270 3110 3800 8700 26800 28500 32700 36900
2026-03-02 20:45 3.75 3540 37500 (1997) 710 (2006) 13500 717 1270 3110 3800 8700 26800 28500 32700 36900
2026-03-02 19:45 3.74 3520 37500 (1997) 710 (2006) 13500 717 1270 3110 3800 8700 26800 28500 32700 36900
2026-03-02 18:45 3.74 3520 37500 (1997) 710 (2006) 13500 717 1270 3110 3800 8700 26800 28500 32700 36900
2026-03-02 17:45 3.74 3520 37500 (1997) 710 (2006) 13500 717 1270 3110 3800 8700 26800 28500 32700 36900
2026-03-02 16:45 3.74 3520 37500 (1997) 710 (2006) 13500 717 1270 3110 3800 8700 26800 28500 32700 36900
2026-03-02 15:45 3.75 3540 37500 (1997) 710 (2006) 13500 717 1270 3110 3800 8700 26800 28500 32700 36900
2026-03-02 14:45 3.75 3540 37500 (1997) 710 (2006) 13500 717 1270 3110 3800 8700 26800 28500 32700 36900
2026-03-02 13:45 3.75 3540 37500 (1997) 710 (2006) 13500 717 1270 3110 3800 8700 26800 28500 32700 36900
2026-03-02 12:45 3.75 3540 37500 (1997) 710 (2006) 13500 717 1270 3110 3800 8700 26800 28500 32700 36900
2026-03-02 11:45 3.75 3540 37500 (1997) 710 (2006) 13500 717 1270 3110 3800 8700 26800 28500 32700 36900
2026-03-02 10:45 3.76 3570 37500 (1997) 710 (2006) 13500 717 1270 3110 3800 8700 26800 28500 32700 36900
2026-03-02 09:45 3.75 3540 37500 (1997) 710 (2006) 13500 717 1270 3110 3800 8700 26800 28500 32700 36900
2026-03-02 08:45 3.75 3540 37500 (1997) 710 (2006) 13500 717 1270 3110 3800 8700 26800 28500 32700 36900
2026-03-02 07:45 3.75 3540 37500 (1997) 710 (2006) 13500 717 1270 3110 3800 8700 26800 28500 32700 36900
2026-03-02 06:45 3.75 3540 37500 (1997) 710 (2006) 13500 717 1270 3110 3800 8700 26800 28500 32700 36900
2026-03-02 05:45 3.75 3540 37500 (1997) 710 (2006) 13500 717 1270 3110 3800 8700 26800 28500 32700 36900
2026-03-02 04:45 3.75 3540 37500 (1997) 710 (2006) 13500 717 1270 3110 3800 8700 26800 28500 32700 36900
2026-03-02 02:45 3.74 3520 37500 (1997) 710 (2006) 13500 717 1270 3110 3800 8700 26800 28500 32700 36900
2026-03-02 01:45 3.74 3520 37500 (1997) 710 (2006) 13500 717 1270 3110 3800 8700 26800 28500 32700 36900
2026-03-02 00:45 3.74 3520 37500 (1997) 710 (2006) 13500 717 1270 3110 3800 8700 26800 28500 32700 36900
2026-03-01 23:45 3.75 3540 37500 (1997) 710 (2006) 13500 717 1270 3110 3800 8700 26800 28500 32700 36900
2026-03-01 22:45 3.75 3540 38800 (1997) 1130 (2003) 12200 1170 1270 2130 3540 7040 24300 27600 33600 37400
2026-03-01 21:45 3.75 3540 38800 (1997) 1130 (2003) 12200 1170 1270 2130 3540 7040 24300 27600 33600 37400
2026-03-01 20:45 3.75 3540 38800 (1997) 1130 (2003) 12200 1170 1270 2130 3540 7040 24300 27600 33600 37400
2026-03-01 19:45 3.74 3520 38800 (1997) 1130 (2003) 12200 1170 1270 2130 3540 7040 24300 27600 33600 37400
2026-03-01 18:45 3.73 3490 38800 (1997) 1130 (2003) 12200 1170 1270 2130 3540 7040 24300 27600 33600 37400
2026-03-01 17:45 3.72 3470 38800 (1997) 1130 (2003) 12200 1170 1270 2130 3540 7040 24300 27600 33600 37400
2026-03-01 16:45 3.72 3470 38800 (1997) 1130 (2003) 12200 1170 1270 2130 3540 7040 24300 27600 33600 37400
2026-03-01 15:45 3.73 3490 38800 (1997) 1130 (2003) 12200 1170 1270 2130 3540 7040 24300 27600 33600 37400
2026-03-01 14:45 3.72 3470 38800 (1997) 1130 (2003) 12200 1170 1270 2130 3540 7040 24300 27600 33600 37400
2026-03-01 13:45 3.73 3490 38800 (1997) 1130 (2003) 12200 1170 1270 2130 3540 7040 24300 27600 33600 37400
2026-03-01 12:45 3.72 3470 38800 (1997) 1130 (2003) 12200 1170 1270 2130 3540 7040 24300 27600 33600 37400
2026-03-01 11:45 3.73 3490 38800 (1997) 1130 (2003) 12200 1170 1270 2130 3540 7040 24300 27600 33600 37400
2026-03-01 10:45 3.74 3520 38800 (1997) 1130 (2003) 12200 1170 1270 2130 3540 7040 24300 27600 33600 37400
2026-03-01 09:45 3.75 3540 38800 (1997) 1130 (2003) 12200 1170 1270 2130 3540 7040 24300 27600 33600 37400
2026-03-01 08:45 3.76 3570 38800 (1997) 1130 (2003) 12200 1170 1270 2130 3540 7040 24300 27600 33600 37400
2026-03-01 07:45 3.76 3570 38800 (1997) 1130 (2003) 12200 1170 1270 2130 3540 7040 24300 27600 33600 37400
2026-03-01 06:45 3.77 3590 38800 (1997) 1130 (2003) 12200 1170 1270 2130 3540 7040 24300 27600 33600 37400
2026-03-01 05:45 3.78 3620 38800 (1997) 1130 (2003) 12200 1170 1270 2130 3540 7040 24300 27600 33600 37400
2026-03-01 04:45 3.80 3660 38800 (1997) 1130 (2003) 12200 1170 1270 2130 3540 7040 24300 27600 33600 37400
2026-03-01 03:45 3.81 3690 38800 (1997) 1130 (2003) 12200 1170 1270 2130 3540 7040 24300 27600 33600 37400
2026-03-01 02:45 3.82 3710 38800 (1997) 1130 (2003) 12200 1170 1270 2130 3540 7040 24300 27600 33600 37400
2026-03-01 01:45 3.83 3740 38800 (1997) 1130 (2003) 12200 1170 1270 2130 3540 7040 24300 27600 33600 37400
2026-03-01 00:45 3.84 3760 38800 (1997) 1130 (2003) 12200 1170 1270 2130 3540 7040 24300 27600 33600 37400
2026-02-28 23:45 3.85 3790 38800 (1997) 1130 (2003) 12200 1170 1270 2130 3540 7040 24300 27600 33600 37400
2026-02-28 22:45 3.87 3840 40400 (1997) 1350 (2017) 12200 1360 1560 3520 3940 9500 18800 23800 30400 36500
2026-02-28 21:45 3.88 3870 40400 (1997) 1350 (2017) 12200 1360 1560 3520 3940 9500 18800 23800 30400 36500
2026-02-28 20:45 3.89 3890 40400 (1997) 1350 (2017) 12200 1360 1560 3520 3940 9500 18800 23800 30400 36500
2026-02-28 19:45 3.91 3950 40400 (1997) 1350 (2017) 12200 1360 1560 3520 3940 9500 18800 23800 30400 36500
2026-02-28 18:45 3.92 3970 40400 (1997) 1350 (2017) 12200 1360 1560 3520 3940 9500 18800 23800 30400 36500
2026-02-28 17:45 3.93 4000 40400 (1997) 1350 (2017) 12200 1360 1560 3520 3940 9500 18800 23800 30400 36500
2026-02-28 16:45 3.94 4020 40400 (1997) 1350 (2017) 12200 1360 1560 3520 3940 9500 18800 23800 30400 36500
2026-02-28 15:45 3.94 4020 40400 (1997) 1350 (2017) 12200 1360 1560 3520 3940 9500 18800 23800 30400 36500
2026-02-28 14:45 3.94 4020 40400 (1997) 1350 (2017) 12200 1360 1560 3520 3940 9500 18800 23800 30400 36500
2026-02-28 13:45 3.95 4050 40400 (1997) 1350 (2017) 12200 1360 1560 3520 3940 9500 18800 23800 30400 36500
2026-02-28 12:45 3.95 4050 40400 (1997) 1350 (2017) 12200 1360 1560 3520 3940 9500 18800 23800 30400 36500
2026-02-28 11:45 3.96 4080 40400 (1997) 1350 (2017) 12200 1360 1560 3520 3940 9500 18800 23800 30400 36500
2026-02-28 10:45 3.97 4100 40400 (1997) 1350 (2017) 12200 1360 1560 3520 3940 9500 18800 23800 30400 36500
2026-02-28 09:45 3.96 4080 40400 (1997) 1350 (2017) 12200 1360 1560 3520 3940 9500 18800 23800 30400 36500
2026-02-28 08:45 3.98 4130 40400 (1997) 1350 (2017) 12200 1360 1560 3520 3940 9500 18800 23800 30400 36500
2026-02-28 07:45 3.99 4150 40400 (1997) 1350 (2017) 12200 1360 1560 3520 3940 9500 18800 23800 30400 36500
2026-02-28 06:45 4.00 4180 40400 (1997) 1350 (2017) 12200 1360 1560 3520 3940 9500 18800 23800 30400 36500
2026-02-28 05:45 4.02 4230 40400 (1997) 1350 (2017) 12200 1360 1560 3520 3940 9500 18800 23800 30400 36500
2026-02-28 04:45 4.04 4280 40400 (1997) 1350 (2017) 12200 1360 1560 3520 3940 9500 18800 23800 30400 36500
2026-02-28 03:45 4.06 4330 40400 (1997) 1350 (2017) 12200 1360 1560 3520 3940 9500 18800 23800 30400 36500
2026-02-28 02:45 4.09 4410 40400 (1997) 1350 (2017) 12200 1360 1560 3520 3940 9500 18800 23800 30400 36500
2026-02-28 01:45 4.12 4480 40400 (1997) 1350 (2017) 12200 1360 1560 3520 3940 9500 18800 23800 30400 36500
2026-02-28 00:45 4.16 4590 40400 (1997) 1350 (2017) 12200 1360 1560 3520 3940 9500 18800 23800 30400 36500
2026-02-27 23:45 4.19 4670 40400 (1997) 1350 (2017) 12200 1360 1560 3520 3940 9500 18800 23800 30400 36500
2026-02-27 22:45 4.24 4800 45200 (1997) 1310 (2014) 12900 1380 2240 3810 4000 8770 18500 22200 28700 38300
2026-02-27 21:45 4.29 4940 45200 (1997) 1310 (2014) 12900 1380 2240 3810 4000 8770 18500 22200 28700 38300
2026-02-27 20:45 4.34 5070 45200 (1997) 1310 (2014) 12900 1380 2240 3810 4000 8770 18500 22200 28700 38300
2026-02-27 19:45 4.40 5230 45200 (1997) 1310 (2014) 12900 1380 2240 3810 4000 8770 18500 22200 28700 38300
2026-02-27 18:45 4.47 5410 45200 (1997) 1310 (2014) 12900 1380 2240 3810 4000 8770 18500 22200 28700 38300
2026-02-27 17:45 4.53 5580 45200 (1997) 1310 (2014) 12900 1380 2240 3810 4000 8770 18500 22200 28700 38300
2026-02-27 16:45 4.61 5800 45200 (1997) 1310 (2014) 12900 1380 2240 3810 4000 8770 18500 22200 28700 38300
2026-02-27 15:45 4.68 5990 45200 (1997) 1310 (2014) 12900 1380 2240 3810 4000 8770 18500 22200 28700 38300
2026-02-27 14:45 4.76 6200 45200 (1997) 1310 (2014) 12900 1380 2240 3810 4000 8770 18500 22200 28700 38300
2026-02-27 13:45 4.85 6440 45200 (1997) 1310 (2014) 12900 1380 2240 3810 4000 8770 18500 22200 28700 38300
2026-02-27 12:45 4.92 6640 45200 (1997) 1310 (2014) 12900 1380 2240 3810 4000 8770 18500 22200 28700 38300
2026-02-27 11:45 4.99 6830 45200 (1997) 1310 (2014) 12900 1380 2240 3810 4000 8770 18500 22200 28700 38300
2026-02-27 10:45 5.05 6990 45200 (1997) 1310 (2014) 12900 1380 2240 3810 4000 8770 18500 22200 28700 38300
2026-02-27 09:45 5.11 7150 45200 (1997) 1310 (2014) 12900 1380 2240 3810 4000 8770 18500 22200 28700 38300
2026-02-27 08:45 5.17 7310 45200 (1997) 1310 (2014) 12900 1380 2240 3810 4000 8770 18500 22200 28700 38300
2026-02-27 07:45 5.20 7390 45200 (1997) 1310 (2014) 12900 1380 2240 3810 4000 8770 18500 22200 28700 38300
2026-02-27 06:45 5.24 7500 45200 (1997) 1310 (2014) 12900 1380 2240 3810 4000 8770 18500 22200 28700 38300
2026-02-27 05:45 5.28 7610 45200 (1997) 1310 (2014) 12900 1380 2240 3810 4000 8770 18500 22200 28700 38300
2026-02-27 04:45 5.30 7660 45200 (1997) 1310 (2014) 12900 1380 2240 3810 4000 8770 18500 22200 28700 38300
2026-02-27 03:45 5.35 7800 45200 (1997) 1310 (2014) 12900 1380 2240 3810 4000 8770 18500 22200 28700 38300
2026-02-27 02:45 5.42 8000 45200 (1997) 1310 (2014) 12900 1380 2240 3810 4000 8770 18500 22200 28700 38300
2026-02-27 01:45 5.50 8230 45200 (1997) 1310 (2014) 12900 1380 2240 3810 4000 8770 18500 22200 28700 38300
2026-02-27 00:45 5.61 8550 45200 (1997) 1310 (2014) 12900 1380 2240 3810 4000 8770 18500 22200 28700 38300
2026-02-26 23:45 5.74 8910 45200 (1997) 1310 (2014) 12900 1380 2240 3810 4000 8770 18500 22200 28700 38300
2026-02-26 22:45 5.88 9300 36700 (1997) 961 (2006) 13500 1110 2800 4220 4460 8040 26400 29100 31500 34700
2026-02-26 21:45 6.04 9740 36700 (1997) 961 (2006) 13500 1110 2800 4220 4460 8040 26400 29100 31500 34700
2026-02-26 20:45 6.18 10100 36700 (1997) 961 (2006) 13500 1110 2800 4220 4460 8040 26400 29100 31500 34700
2026-02-26 19:45 6.33 10600 36700 (1997) 961 (2006) 13500 1110 2800 4220 4460 8040 26400 29100 31500 34700
2026-02-26 18:45 6.47 11000 36700 (1997) 961 (2006) 13500 1110 2800 4220 4460 8040 26400 29100 31500 34700
2026-02-26 17:45 6.58 11300 36700 (1997) 961 (2006) 13500 1110 2800 4220 4460 8040 26400 29100 31500 34700
2026-02-26 16:45 6.69 11700 36700 (1997) 961 (2006) 13500 1110 2800 4220 4460 8040 26400 29100 31500 34700
2026-02-26 15:45 6.78 11900 36700 (1997) 961 (2006) 13500 1110 2800 4220 4460 8040 26400 29100 31500 34700
2026-02-26 14:45 6.85 12100 36700 (1997) 961 (2006) 13500 1110 2800 4220 4460 8040 26400 29100 31500 34700
2026-02-26 13:45 6.91 12300 36700 (1997) 961 (2006) 13500 1110 2800 4220 4460 8040 26400 29100 31500 34700
2026-02-26 12:45 6.99 12600 36700 (1997) 961 (2006) 13500 1110 2800 4220 4460 8040 26400 29100 31500 34700
2026-02-26 11:45 7.08 12900 36700 (1997) 961 (2006) 13500 1110 2800 4220 4460 8040 26400 29100 31500 34700
2026-02-26 10:45 7.20 13200 36700 (1997) 961 (2006) 13500 1110 2800 4220 4460 8040 26400 29100 31500 34700
2026-02-26 09:45 7.32 13600 36700 (1997) 961 (2006) 13500 1110 2800 4220 4460 8040 26400 29100 31500 34700
2026-02-26 08:45 7.40 13900 36700 (1997) 961 (2006) 13500 1110 2800 4220 4460 8040 26400 29100 31500 34700
2026-02-26 07:45 7.47 14100 36700 (1997) 961 (2006) 13500 1110 2800 4220 4460 8040 26400 29100 31500 34700
2026-02-26 06:45 7.47 14100 36700 (1997) 961 (2006) 13500 1110 2800 4220 4460 8040 26400 29100 31500 34700
2026-02-26 05:45 7.42 14000 36700 (1997) 961 (2006) 13500 1110 2800 4220 4460 8040 26400 29100 31500 34700
2026-02-26 04:45 7.32 13600 36700 (1997) 961 (2006) 13500 1110 2800 4220 4460 8040 26400 29100 31500 34700
2026-02-26 03:45 7.17 13100 36700 (1997) 961 (2006) 13500 1110 2800 4220 4460 8040 26400 29100 31500 34700
2026-02-26 02:45 7.01 12600 36700 (1997) 961 (2006) 13500 1110 2800 4220 4460 8040 26400 29100 31500 34700
2026-02-26 01:45 6.82 12000 36700 (1997) 961 (2006) 13500 1110 2800 4220 4460 8040 26400 29100 31500 34700
2026-02-26 00:45 6.66 11600 36700 (1997) 961 (2006) 13500 1110 2800 4220 4460 8040 26400 29100 31500 34700
2026-02-25 23:45 6.53 11200 36700 (1997) 961 (2006) 13500 1110 2800 4220 4460 8040 26400 29100 31500 34700
2026-02-25 22:45 6.47 11000 34300 (2018) 1320 (2014) 13800 1470 1690 3250 3760 8740 24600 27200 32400 33900
2026-02-25 21:45 6.48 11000 34300 (2018) 1320 (2014) 13800 1470 1690 3250 3760 8740 24600 27200 32400 33900
2026-02-25 20:45 6.55 11200 34300 (2018) 1320 (2014) 13800 1470 1690 3250 3760 8740 24600 27200 32400 33900
2026-02-25 19:45 6.61 11400 34300 (2018) 1320 (2014) 13800 1470 1690 3250 3760 8740 24600 27200 32400 33900
2026-02-25 18:45 6.67 11600 34300 (2018) 1320 (2014) 13800 1470 1690 3250 3760 8740 24600 27200 32400 33900
2026-02-25 17:45 6.71 11700 34300 (2018) 1320 (2014) 13800 1470 1690 3250 3760 8740 24600 27200 32400 33900
2026-02-25 16:45 6.76 11900 34300 (2018) 1320 (2014) 13800 1470 1690 3250 3760 8740 24600 27200 32400 33900
2026-02-25 15:45 6.83 12100 34300 (2018) 1320 (2014) 13800 1470 1690 3250 3760 8740 24600 27200 32400 33900
2026-02-25 14:45 6.92 12400 34300 (2018) 1320 (2014) 13800 1470 1690 3250 3760 8740 24600 27200 32400 33900
2026-02-25 13:45 7.05 12800 34300 (2018) 1320 (2014) 13800 1470 1690 3250 3760 8740 24600 27200 32400 33900
2026-02-25 12:45 7.21 13300 34300 (2018) 1320 (2014) 13800 1470 1690 3250 3760 8740 24600 27200 32400 33900
2026-02-25 11:45 7.40 13900 34300 (2018) 1320 (2014) 13800 1470 1690 3250 3760 8740 24600 27200 32400 33900
2026-02-25 10:45 7.59 14500 34300 (2018) 1320 (2014) 13800 1470 1690 3250 3760 8740 24600 27200 32400 33900
2026-02-25 09:45 7.81 15300 34300 (2018) 1320 (2014) 13800 1470 1690 3250 3760 8740 24600 27200 32400 33900
2026-02-25 08:45 8.01 16000 34300 (2018) 1320 (2014) 13800 1470 1690 3250 3760 8740 24600 27200 32400 33900
2026-02-25 07:45 8.17 16500 34300 (2018) 1320 (2014) 13800 1470 1690 3250 3760 8740 24600 27200 32400 33900
2026-02-25 06:45 8.29 17000 34300 (2018) 1320 (2014) 13800 1470 1690 3250 3760 8740 24600 27200 32400 33900
2026-02-25 05:45 8.36 17200 34300 (2018) 1320 (2014) 13800 1470 1690 3250 3760 8740 24600 27200 32400 33900
2026-02-25 04:45 8.37 17300 34300 (2018) 1320 (2014) 13800 1470 1690 3250 3760 8740 24600 27200 32400 33900
2026-02-25 03:45 8.31 17000 34300 (2018) 1320 (2014) 13800 1470 1690 3250 3760 8740 24600 27200 32400 33900
2026-02-25 02:45 8.19 16600 34300 (2018) 1320 (2014) 13800 1470 1690 3250 3760 8740 24600 27200 32400 33900
2026-02-25 01:45 8.09 16200 34300 (2018) 1320 (2014) 13800 1470 1690 3250 3760 8740 24600 27200 32400 33900
2026-02-25 00:45 8.04 16100 34300 (2018) 1320 (2014) 13800 1470 1690 3250 3760 8740 24600 27200 32400 33900
2026-02-24 23:45 8.13 16400 34300 (2018) 1320 (2014) 13800 1470 1690 3250 3760 8740 24600 27200 32400 33900
2026-02-24 22:45 8.31 17000 32900 (2005) 1340 (2014) 13200 1630 2120 4120 4400 11600 21500 22800 26500 32800
2026-02-24 21:45 8.59 18100 32900 (2005) 1340 (2014) 13200 1630 2120 4120 4400 11600 21500 22800 26500 32800
2026-02-24 20:45 8.92 19400 32900 (2005) 1340 (2014) 13200 1630 2120 4120 4400 11600 21500 22800 26500 32800
2026-02-24 19:45 9.27 20800 32900 (2005) 1340 (2014) 13200 1630 2120 4120 4400 11600 21500 22800 26500 32800
2026-02-24 18:45 9.62 22200 32900 (2005) 1340 (2014) 13200 1630 2120 4120 4400 11600 21500 22800 26500 32800
2026-02-24 17:45 9.96 23400 32900 (2005) 1340 (2014) 13200 1630 2120 4120 4400 11600 21500 22800 26500 32800
2026-02-24 16:45 10.28 24500 32900 (2005) 1340 (2014) 13200 1630 2120 4120 4400 11600 21500 22800 26500 32800
2026-02-24 15:45 10.58 25500 32900 (2005) 1340 (2014) 13200 1630 2120 4120 4400 11600 21500 22800 26500 32800
2026-02-24 14:45 10.81 26400 32900 (2005) 1340 (2014) 13200 1630 2120 4120 4400 11600 21500 22800 26500 32800
2026-02-24 13:45 10.98 27000 32900 (2005) 1340 (2014) 13200 1630 2120 4120 4400 11600 21500 22800 26500 32800
2026-02-24 12:45 11.09 27400 32900 (2005) 1340 (2014) 13200 1630 2120 4120 4400 11600 21500 22800 26500 32800
2026-02-24 11:45 11.10 27400 32900 (2005) 1340 (2014) 13200 1630 2120 4120 4400 11600 21500 22800 26500 32800
2026-02-24 10:45 11.09 27400 32900 (2005) 1340 (2014) 13200 1630 2120 4120 4400 11600 21500 22800 26500 32800
2026-02-24 09:45 11.07 27300 32900 (2005) 1340 (2014) 13200 1630 2120 4120 4400 11600 21500 22800 26500 32800
2026-02-24 08:45 11.04 27200 32900 (2005) 1340 (2014) 13200 1630 2120 4120 4400 11600 21500 22800 26500 32800
2026-02-24 07:45 11.00 27000 32900 (2005) 1340 (2014) 13200 1630 2120 4120 4400 11600 21500 22800 26500 32800
2026-02-24 06:45 10.94 26800 32900 (2005) 1340 (2014) 13200 1630 2120 4120 4400 11600 21500 22800 26500 32800
2026-02-24 05:45 10.89 26600 32900 (2005) 1340 (2014) 13200 1630 2120 4120 4400 11600 21500 22800 26500 32800
2026-02-24 04:45 10.81 26400 32900 (2005) 1340 (2014) 13200 1630 2120 4120 4400 11600 21500 22800 26500 32800
2026-02-24 03:45 10.76 26200 32900 (2005) 1340 (2014) 13200 1630 2120 4120 4400 11600 21500 22800 26500 32800
2026-02-24 02:45 10.68 25900 32900 (2005) 1340 (2014) 13200 1630 2120 4120 4400 11600 21500 22800 26500 32800
2026-02-24 01:45 10.59 25600 32900 (2005) 1340 (2014) 13200 1630 2120 4120 4400 11600 21500 22800 26500 32800
2026-02-24 00:45 10.51 25300 32900 (2005) 1340 (2014) 13200 1630 2120 4120 4400 11600 21500 22800 26500 32800
2026-02-23 23:45 10.40 24900 32900 (2005) 1340 (2014) 13200 1630 2120 4120 4400 11600 21500 22800 26500 32800
2026-02-23 22:45 10.25 24400 33800 (2005) 1330 (2014) 12400 2220 4020 4440 4960 9230 20100 23400 26300 32400
2026-02-23 21:45 10.13 24000 33800 (2005) 1330 (2014) 12400 2220 4020 4440 4960 9230 20100 23400 26300 32400
2026-02-23 20:45 9.99 23500 33800 (2005) 1330 (2014) 12400 2220 4020 4440 4960 9230 20100 23400 26300 32400
2026-02-23 19:45 9.81 22900 33800 (2005) 1330 (2014) 12400 2220 4020 4440 4960 9230 20100 23400 26300 32400
2026-02-23 18:45 9.62 22200 33800 (2005) 1330 (2014) 12400 2220 4020 4440 4960 9230 20100 23400 26300 32400
2026-02-23 17:45 9.36 21200 33800 (2005) 1330 (2014) 12400 2220 4020 4440 4960 9230 20100 23400 26300 32400
2026-02-23 16:45 9.11 20100 33800 (2005) 1330 (2014) 12400 2220 4020 4440 4960 9230 20100 23400 26300 32400
2026-02-23 15:45 8.82 19000 33800 (2005) 1330 (2014) 12400 2220 4020 4440 4960 9230 20100 23400 26300 32400
2026-02-23 14:45 8.45 17500 33800 (2005) 1330 (2014) 12400 2220 4020 4440 4960 9230 20100 23400 26300 32400
2026-02-23 13:45 8.08 16200 33800 (2005) 1330 (2014) 12400 2220 4020 4440 4960 9230 20100 23400 26300 32400
2026-02-23 12:45 7.63 14700 33800 (2005) 1330 (2014) 12400 2220 4020 4440 4960 9230 20100 23400 26300 32400
2026-02-23 11:45 7.11 13000 33800 (2005) 1330 (2014) 12400 2220 4020 4440 4960 9230 20100 23400 26300 32400
2026-02-23 10:45 6.55 11200 33800 (2005) 1330 (2014) 12400 2220 4020 4440 4960 9230 20100 23400 26300 32400
2026-02-23 09:45 5.96 9520 33800 (2005) 1330 (2014) 12400 2220 4020 4440 4960 9230 20100 23400 26300 32400
2026-02-23 08:45 5.41 7970 33800 (2005) 1330 (2014) 12400 2220 4020 4440 4960 9230 20100 23400 26300 32400
2026-02-23 07:45 4.97 6780 33800 (2005) 1330 (2014) 12400 2220 4020 4440 4960 9230 20100 23400 26300 32400
2026-02-23 06:45 4.67 5960 33800 (2005) 1330 (2014) 12400 2220 4020 4440 4960 9230 20100 23400 26300 32400
2026-02-23 05:45 4.51 5520 33800 (2005) 1330 (2014) 12400 2220 4020 4440 4960 9230 20100 23400 26300 32400
2026-02-23 04:45 4.41 5260 33800 (2005) 1330 (2014) 12400 2220 4020 4440 4960 9230 20100 23400 26300 32400
2026-02-23 03:45 4.35 5100 33800 (2005) 1330 (2014) 12400 2220 4020 4440 4960 9230 20100 23400 26300 32400
2026-02-23 02:45 4.31 5000 33800 (2005) 1330 (2014) 12400 2220 4020 4440 4960 9230 20100 23400 26300 32400
2026-02-23 01:45 4.30 4970 33800 (2005) 1330 (2014) 12400 2220 4020 4440 4960 9230 20100 23400 26300 32400
2026-02-23 00:45 4.33 5050 33800 (2005) 1330 (2014) 12400 2220 4020 4440 4960 9230 20100 23400 26300 32400
2026-02-22 23:45 4.37 5150 33800 (2005) 1330 (2014) 12400 2220 4020 4440 4960 9230 20100 23400 26300 32400
2026-02-22 22:45 4.42 5280 34100 (2005) 1370 (2014) 11400 1690 3460 5010 5140 7490 17600 19400 25600 33200
2026-02-22 21:45 4.48 5440 34100 (2005) 1370 (2014) 11400 1690 3460 5010 5140 7490 17600 19400 25600 33200
2026-02-22 20:45 4.54 5600 34100 (2005) 1370 (2014) 11400 1690 3460 5010 5140 7490 17600 19400 25600 33200
2026-02-22 19:45 4.58 5710 34100 (2005) 1370 (2014) 11400 1690 3460 5010 5140 7490 17600 19400 25600 33200
2026-02-22 18:45 4.62 5830 34100 (2005) 1370 (2014) 11400 1690 3460 5010 5140 7490 17600 19400 25600 33200
2026-02-22 17:45 4.65 5910 34100 (2005) 1370 (2014) 11400 1690 3460 5010 5140 7490 17600 19400 25600 33200
2026-02-22 16:45 4.67 5960 34100 (2005) 1370 (2014) 11400 1690 3460 5010 5140 7490 17600 19400 25600 33200
2026-02-22 15:45 4.71 6070 34100 (2005) 1370 (2014) 11400 1690 3460 5010 5140 7490 17600 19400 25600 33200
2026-02-22 14:45 4.75 6170 34100 (2005) 1370 (2014) 11400 1690 3460 5010 5140 7490 17600 19400 25600 33200
2026-02-22 13:45 4.78 6250 34100 (2005) 1370 (2014) 11400 1690 3460 5010 5140 7490 17600 19400 25600 33200
2026-02-22 12:45 4.81 6340 34100 (2005) 1370 (2014) 11400 1690 3460 5010 5140 7490 17600 19400 25600 33200
2026-02-22 11:45 4.81 6340 34100 (2005) 1370 (2014) 11400 1690 3460 5010 5140 7490 17600 19400 25600 33200
2026-02-22 10:45 4.81 6340 34100 (2005) 1370 (2014) 11400 1690 3460 5010 5140 7490 17600 19400 25600 33200
2026-02-22 09:45 4.77 6230 34100 (2005) 1370 (2014) 11400 1690 3460 5010 5140 7490 17600 19400 25600 33200
2026-02-22 08:45 4.69 6010 34100 (2005) 1370 (2014) 11400 1690 3460 5010 5140 7490 17600 19400 25600 33200
2026-02-22 07:45 4.59 5740 34100 (2005) 1370 (2014) 11400 1690 3460 5010 5140 7490 17600 19400 25600 33200
2026-02-22 06:45 4.46 5390 34100 (2005) 1370 (2014) 11400 1690 3460 5010 5140 7490 17600 19400 25600 33200
2026-02-22 05:45 4.32 5020 34100 (2005) 1370 (2014) 11400 1690 3460 5010 5140 7490 17600 19400 25600 33200
2026-02-22 04:45 4.20 4700 34100 (2005) 1370 (2014) 11400 1690 3460 5010 5140 7490 17600 19400 25600 33200
2026-02-22 03:45 4.14 4540 34100 (2005) 1370 (2014) 11400 1690 3460 5010 5140 7490 17600 19400 25600 33200
2026-02-22 02:45 4.13 4510 34100 (2005) 1370 (2014) 11400 1690 3460 5010 5140 7490 17600 19400 25600 33200
2026-02-22 01:45 4.16 4590 34100 (2005) 1370 (2014) 11400 1690 3460 5010 5140 7490 17600 19400 25600 33200
2026-02-22 00:45 4.23 4780 34100 (2005) 1370 (2014) 11400 1690 3460 5010 5140 7490 17600 19400 25600 33200
2026-02-21 23:45 4.30 4970 34100 (2005) 1370 (2014) 11400 1690 3460 5010 5140 7490 17600 19400 25600 33200
2026-02-21 22:45 4.41 5260 34900 (2005) 1370 (2014) 10900 1460 3430 5080 5720 8260 17100 17700 20700 28500
2026-02-21 21:45 4.52 5550 34900 (2005) 1370 (2014) 10900 1460 3430 5080 5720 8260 17100 17700 20700 28500
2026-02-21 20:45 4.63 5850 34900 (2005) 1370 (2014) 10900 1460 3430 5080 5720 8260 17100 17700 20700 28500
2026-02-21 19:45 4.76 6200 34900 (2005) 1370 (2014) 10900 1460 3430 5080 5720 8260 17100 17700 20700 28500
2026-02-21 18:45 4.89 6560 34900 (2005) 1370 (2014) 10900 1460 3430 5080 5720 8260 17100 17700 20700 28500
2026-02-21 17:45 5.04 6960 34900 (2005) 1370 (2014) 10900 1460 3430 5080 5720 8260 17100 17700 20700 28500
2026-02-21 16:45 5.20 7390 34900 (2005) 1370 (2014) 10900 1460 3430 5080 5720 8260 17100 17700 20700 28500
2026-02-21 15:45 5.38 7890 34900 (2005) 1370 (2014) 10900 1460 3430 5080 5720 8260 17100 17700 20700 28500
2026-02-21 14:45 5.56 8410 34900 (2005) 1370 (2014) 10900 1460 3430 5080 5720 8260 17100 17700 20700 28500
2026-02-21 13:45 5.73 8880 34900 (2005) 1370 (2014) 10900 1460 3430 5080 5720 8260 17100 17700 20700 28500
2026-02-21 12:45 5.92 9410 34900 (2005) 1370 (2014) 10900 1460 3430 5080 5720 8260 17100 17700 20700 28500
2026-02-21 11:45 6.09 9880 34900 (2005) 1370 (2014) 10900 1460 3430 5080 5720 8260 17100 17700 20700 28500
2026-02-21 10:45 6.25 10300 34900 (2005) 1370 (2014) 10900 1460 3430 5080 5720 8260 17100 17700 20700 28500
2026-02-21 09:45 6.38 10700 34900 (2005) 1370 (2014) 10900 1460 3430 5080 5720 8260 17100 17700 20700 28500
2026-02-21 08:45 6.48 11000 34900 (2005) 1370 (2014) 10900 1460 3430 5080 5720 8260 17100 17700 20700 28500
2026-02-21 07:45 6.54 11200 34900 (2005) 1370 (2014) 10900 1460 3430 5080 5720 8260 17100 17700 20700 28500
2026-02-21 06:45 6.53 11200 34900 (2005) 1370 (2014) 10900 1460 3430 5080 5720 8260 17100 17700 20700 28500
2026-02-21 05:45 6.48 11000 34900 (2005) 1370 (2014) 10900 1460 3430 5080 5720 8260 17100 17700 20700 28500
2026-02-21 04:45 6.36 10700 34900 (2005) 1370 (2014) 10900 1460 3430 5080 5720 8260 17100 17700 20700 28500
2026-02-21 03:45 6.23 10300 34900 (2005) 1370 (2014) 10900 1460 3430 5080 5720 8260 17100 17700 20700 28500
2026-02-21 02:45 6.07 9830 34900 (2005) 1370 (2014) 10900 1460 3430 5080 5720 8260 17100 17700 20700 28500
2026-02-21 01:45 5.96 9520 34900 (2005) 1370 (2014) 10900 1460 3430 5080 5720 8260 17100 17700 20700 28500
2026-02-21 00:45 5.89 9330 34900 (2005) 1370 (2014) 10900 1460 3430 5080 5720 8260 17100 17700 20700 28500
2026-02-20 23:45 5.84 9190 34900 (2005) 1370 (2014) 10900 1460 3430 5080 5720 8260 17100 17700 20700 28500
2026-02-20 22:45 5.82 9130 35100 (2005) 1390 (2014) 12100 1790 2280 3770 3980 11200 19600 21100 24100 31700
2026-02-20 21:45 5.80 9070 35100 (2005) 1390 (2014) 12100 1790 2280 3770 3980 11200 19600 21100 24100 31700
2026-02-20 20:45 5.74 8910 35100 (2005) 1390 (2014) 12100 1790 2280 3770 3980 11200 19600 21100 24100 31700
2026-02-20 19:45 5.64 8630 35100 (2005) 1390 (2014) 12100 1790 2280 3770 3980 11200 19600 21100 24100 31700
2026-02-20 18:45 5.42 8000 35100 (2005) 1390 (2014) 12100 1790 2280 3770 3980 11200 19600 21100 24100 31700
2026-02-20 17:45 5.10 7120 35100 (2005) 1390 (2014) 12100 1790 2280 3770 3980 11200 19600 21100 24100 31700
2026-02-20 16:45 4.64 5880 35100 (2005) 1390 (2014) 12100 1790 2280 3770 3980 11200 19600 21100 24100 31700
2026-02-20 15:45 4.10 4430 35100 (2005) 1390 (2014) 12100 1790 2280 3770 3980 11200 19600 21100 24100 31700
2026-02-20 14:45 3.64 3250 35100 (2005) 1390 (2014) 12100 1790 2280 3770 3980 11200 19600 21100 24100 31700
2026-02-20 13:45 3.41 2700 35100 (2005) 1390 (2014) 12100 1790 2280 3770 3980 11200 19600 21100 24100 31700
2026-02-20 12:45 3.34 2540 35100 (2005) 1390 (2014) 12100 1790 2280 3770 3980 11200 19600 21100 24100 31700
2026-02-20 11:45 3.36 2590 35100 (2005) 1390 (2014) 12100 1790 2280 3770 3980 11200 19600 21100 24100 31700
2026-02-20 10:45 3.40 2670 35100 (2005) 1390 (2014) 12100 1790 2280 3770 3980 11200 19600 21100 24100 31700
2026-02-20 09:45 3.46 2810 35100 (2005) 1390 (2014) 12100 1790 2280 3770 3980 11200 19600 21100 24100 31700
2026-02-20 08:45 3.52 2950 35100 (2005) 1390 (2014) 12100 1790 2280 3770 3980 11200 19600 21100 24100 31700
2026-02-20 07:45 3.59 3130 35100 (2005) 1390 (2014) 12100 1790 2280 3770 3980 11200 19600 21100 24100 31700
2026-02-20 06:45 3.65 3280 35100 (2005) 1390 (2014) 12100 1790 2280 3770 3980 11200 19600 21100 24100 31700
2026-02-20 05:45 3.71 3440 35100 (2005) 1390 (2014) 12100 1790 2280 3770 3980 11200 19600 21100 24100 31700
2026-02-20 04:45 3.77 3590 35100 (2005) 1390 (2014) 12100 1790 2280 3770 3980 11200 19600 21100 24100 31700
2026-02-20 03:45 3.83 3740 35100 (2005) 1390 (2014) 12100 1790 2280 3770 3980 11200 19600 21100 24100 31700
2026-02-20 02:45 3.87 3840 35100 (2005) 1390 (2014) 12100 1790 2280 3770 3980 11200 19600 21100 24100 31700
2026-02-20 01:45 3.91 3950 35100 (2005) 1390 (2014) 12100 1790 2280 3770 3980 11200 19600 21100 24100 31700
2026-02-20 00:45 3.92 3970 35100 (2005) 1390 (2014) 12100 1790 2280 3770 3980 11200 19600 21100 24100 31700
2026-02-19 23:45 3.92 3970 35100 (2005) 1390 (2014) 12100 1790 2280 3770 3980 11200 19600 21100 24100 31700
2026-02-19 22:45 3.87 3840 35300 (2005) 1380 (2014) 12300 1470 2230 3780 4390 9270 18900 21700 27600 34900
2026-02-19 21:45 3.77 3590 35300 (2005) 1380 (2014) 12300 1470 2230 3780 4390 9270 18900 21700 27600 34900
2026-02-19 20:45 3.62 3200 35300 (2005) 1380 (2014) 12300 1470 2230 3780 4390 9270 18900 21700 27600 34900
2026-02-19 19:45 3.43 2740 35300 (2005) 1380 (2014) 12300 1470 2230 3780 4390 9270 18900 21700 27600 34900
2026-02-19 18:45 3.20 2260 35300 (2005) 1380 (2014) 12300 1470 2230 3780 4390 9270 18900 21700 27600 34900
2026-02-19 17:45 2.98 1860 35300 (2005) 1380 (2014) 12300 1470 2230 3780 4390 9270 18900 21700 27600 34900
2026-02-19 16:45 2.83 1620 35300 (2005) 1380 (2014) 12300 1470 2230 3780 4390 9270 18900 21700 27600 34900
2026-02-19 15:45 2.78 1540 35300 (2005) 1380 (2014) 12300 1470 2230 3780 4390 9270 18900 21700 27600 34900
2026-02-19 14:45 2.75 1500 35300 (2005) 1380 (2014) 12300 1470 2230 3780 4390 9270 18900 21700 27600 34900
2026-02-19 13:45 2.76 1520 35300 (2005) 1380 (2014) 12300 1470 2230 3780 4390 9270 18900 21700 27600 34900
2026-02-19 12:45 2.73 1470 35300 (2005) 1380 (2014) 12300 1470 2230 3780 4390 9270 18900 21700 27600 34900
2026-02-19 11:45 2.73 1470 35300 (2005) 1380 (2014) 12300 1470 2230 3780 4390 9270 18900 21700 27600 34900
2026-02-19 10:45 2.72 1460 35300 (2005) 1380 (2014) 12300 1470 2230 3780 4390 9270 18900 21700 27600 34900
2026-02-19 09:45 2.73 1470 35300 (2005) 1380 (2014) 12300 1470 2230 3780 4390 9270 18900 21700 27600 34900
2026-02-19 08:45 2.72 1460 35300 (2005) 1380 (2014) 12300 1470 2230 3780 4390 9270 18900 21700 27600 34900
2026-02-19 07:45 2.72 1460 35300 (2005) 1380 (2014) 12300 1470 2230 3780 4390 9270 18900 21700 27600 34900
2026-02-19 06:45 2.71 1450 35300 (2005) 1380 (2014) 12300 1470 2230 3780 4390 9270 18900 21700 27600 34900
2026-02-19 05:45 2.72 1460 35300 (2005) 1380 (2014) 12300 1470 2230 3780 4390 9270 18900 21700 27600 34900
2026-02-19 04:45 2.72 1460 35300 (2005) 1380 (2014) 12300 1470 2230 3780 4390 9270 18900 21700 27600 34900
2026-02-19 03:45 2.72 1460 35300 (2005) 1380 (2014) 12300 1470 2230 3780 4390 9270 18900 21700 27600 34900
2026-02-19 02:45 2.72 1460 35300 (2005) 1380 (2014) 12300 1470 2230 3780 4390 9270 18900 21700 27600 34900
2026-02-19 01:45 2.72 1460 35300 (2005) 1380 (2014) 12300 1470 2230 3780 4390 9270 18900 21700 27600 34900
2026-02-19 00:45 2.72 1460 35300 (2005) 1380 (2014) 12300 1470 2230 3780 4390 9270 18900 21700 27600 34900
2026-02-18 23:45 2.72 1460 35300 (2005) 1380 (2014) 12300 1470 2230 3780 4390 9270 18900 21700 27600 34900
2026-02-18 22:45 2.72 1460 35700 (2005) 1180 (2018) 11700 1270 1590 2450 3200 8090 17800 20200 30900 35200
2026-02-18 21:45 2.72 1460 35700 (2005) 1180 (2018) 11700 1270 1590 2450 3200 8090 17800 20200 30900 35200
2026-02-18 20:45 2.73 1470 35700 (2005) 1180 (2018) 11700 1270 1590 2450 3200 8090 17800 20200 30900 35200
2026-02-18 19:45 2.73 1470 35700 (2005) 1180 (2018) 11700 1270 1590 2450 3200 8090 17800 20200 30900 35200
2026-02-18 18:45 2.73 1470 35700 (2005) 1180 (2018) 11700 1270 1590 2450 3200 8090 17800 20200 30900 35200
2026-02-18 17:45 2.74 1490 35700 (2005) 1180 (2018) 11700 1270 1590 2450 3200 8090 17800 20200 30900 35200
2026-02-18 16:45 2.74 1490 35700 (2005) 1180 (2018) 11700 1270 1590 2450 3200 8090 17800 20200 30900 35200
2026-02-18 15:45 2.75 1500 35700 (2005) 1180 (2018) 11700 1270 1590 2450 3200 8090 17800 20200 30900 35200
2026-02-18 14:45 2.75 1500 35700 (2005) 1180 (2018) 11700 1270 1590 2450 3200 8090 17800 20200 30900 35200
2026-02-18 13:45 2.76 1520 35700 (2005) 1180 (2018) 11700 1270 1590 2450 3200 8090 17800 20200 30900 35200
2026-02-18 12:45 2.76 1520 35700 (2005) 1180 (2018) 11700 1270 1590 2450 3200 8090 17800 20200 30900 35200
2026-02-18 11:45 2.77 1530 35700 (2005) 1180 (2018) 11700 1270 1590 2450 3200 8090 17800 20200 30900 35200
2026-02-18 10:45 2.76 1520 35700 (2005) 1180 (2018) 11700 1270 1590 2450 3200 8090 17800 20200 30900 35200
2026-02-18 09:45 2.77 1530 35700 (2005) 1180 (2018) 11700 1270 1590 2450 3200 8090 17800 20200 30900 35200
2026-02-18 08:45 2.77 1530 35700 (2005) 1180 (2018) 11700 1270 1590 2450 3200 8090 17800 20200 30900 35200
2026-02-18 07:45 2.76 1520 35700 (2005) 1180 (2018) 11700 1270 1590 2450 3200 8090 17800 20200 30900 35200
2026-02-18 06:45 2.76 1520 35700 (2005) 1180 (2018) 11700 1270 1590 2450 3200 8090 17800 20200 30900 35200
2026-02-18 05:45 2.77 1530 35700 (2005) 1180 (2018) 11700 1270 1590 2450 3200 8090 17800 20200 30900 35200
2026-02-18 04:45 2.78 1540 35700 (2005) 1180 (2018) 11700 1270 1590 2450 3200 8090 17800 20200 30900 35200
2026-02-18 03:45 2.78 1540 35700 (2005) 1180 (2018) 11700 1270 1590 2450 3200 8090 17800 20200 30900 35200
2026-02-18 02:45 2.78 1540 35700 (2005) 1180 (2018) 11700 1270 1590 2450 3200 8090 17800 20200 30900 35200
2026-02-18 01:45 2.79 1560 35700 (2005) 1180 (2018) 11700 1270 1590 2450 3200 8090 17800 20200 30900 35200
2026-02-18 00:45 2.79 1560 35700 (2005) 1180 (2018) 11700 1270 1590 2450 3200 8090 17800 20200 30900 35200
2026-02-17 23:45 2.79 1560 35700 (2005) 1180 (2018) 11700 1270 1590 2450 3200 8090 17800 20200 30900 35200
2026-02-17 22:45 2.80 1570 36200 (2005) 949 (2006) 11900 1120 1390 2300 2970 7860 17100 22800 33000 35000
2026-02-17 21:45 2.80 1570 36200 (2005) 949 (2006) 11900 1120 1390 2300 2970 7860 17100 22800 33000 35000
2026-02-17 20:45 2.80 1570 36200 (2005) 949 (2006) 11900 1120 1390 2300 2970 7860 17100 22800 33000 35000
2026-02-17 19:45 2.82 1600 36200 (2005) 949 (2006) 11900 1120 1390 2300 2970 7860 17100 22800 33000 35000
2026-02-17 18:45 2.81 1590 36200 (2005) 949 (2006) 11900 1120 1390 2300 2970 7860 17100 22800 33000 35000
2026-02-17 17:45 2.81 1590 36200 (2005) 949 (2006) 11900 1120 1390 2300 2970 7860 17100 22800 33000 35000
2026-02-17 16:45 2.82 1600 36200 (2005) 949 (2006) 11900 1120 1390 2300 2970 7860 17100 22800 33000 35000
2026-02-17 15:45 2.81 1590 36200 (2005) 949 (2006) 11900 1120 1390 2300 2970 7860 17100 22800 33000 35000
2026-02-17 14:45 2.82 1600 36200 (2005) 949 (2006) 11900 1120 1390 2300 2970 7860 17100 22800 33000 35000
2026-02-17 13:45 2.82 1600 36200 (2005) 949 (2006) 11900 1120 1390 2300 2970 7860 17100 22800 33000 35000
2026-02-17 12:45 2.83 1620 36200 (2005) 949 (2006) 11900 1120 1390 2300 2970 7860 17100 22800 33000 35000
2026-02-17 11:45 2.83 1620 36200 (2005) 949 (2006) 11900 1120 1390 2300 2970 7860 17100 22800 33000 35000
2026-02-17 10:45 2.83 1620 36200 (2005) 949 (2006) 11900 1120 1390 2300 2970 7860 17100 22800 33000 35000
2026-02-17 09:45 2.83 1620 36200 (2005) 949 (2006) 11900 1120 1390 2300 2970 7860 17100 22800 33000 35000
2026-02-17 08:45 2.83 1620 36200 (2005) 949 (2006) 11900 1120 1390 2300 2970 7860 17100 22800 33000 35000
2026-02-17 07:45 2.83 1620 36200 (2005) 949 (2006) 11900 1120 1390 2300 2970 7860 17100 22800 33000 35000
2026-02-17 06:45 2.83 1620 36200 (2005) 949 (2006) 11900 1120 1390 2300 2970 7860 17100 22800 33000 35000
2026-02-17 05:45 2.83 1620 36200 (2005) 949 (2006) 11900 1120 1390 2300 2970 7860 17100 22800 33000 35000
2026-02-17 04:45 2.83 1620 36200 (2005) 949 (2006) 11900 1120 1390 2300 2970 7860 17100 22800 33000 35000
2026-02-17 03:45 2.84 1630 36200 (2005) 949 (2006) 11900 1120 1390 2300 2970 7860 17100 22800 33000 35000
2026-02-17 02:45 2.84 1630 36200 (2005) 949 (2006) 11900 1120 1390 2300 2970 7860 17100 22800 33000 35000
2026-02-17 01:45 2.84 1630 36200 (2005) 949 (2006) 11900 1120 1390 2300 2970 7860 17100 22800 33000 35000
2026-02-17 00:45 2.85 1650 36200 (2005) 949 (2006) 11900 1120 1390 2300 2970 7860 17100 22800 33000 35000
2026-02-16 23:45 2.85 1650 36200 (2005) 949 (2006) 11900 1120 1390 2300 2970 7860 17100 22800 33000 35000
2026-02-16 22:45 2.85 1650 36200 (2005) 1420 (2018) 10900 1510 1720 2780 3660 6040 18100 22100 26800 36000
2026-02-16 21:45 2.85 1650 36200 (2005) 1420 (2018) 10900 1510 1720 2780 3660 6040 18100 22100 26800 36000
2026-02-16 20:45 2.85 1650 36200 (2005) 1420 (2018) 10900 1510 1720 2780 3660 6040 18100 22100 26800 36000
2026-02-16 19:45 2.85 1650 36200 (2005) 1420 (2018) 10900 1510 1720 2780 3660 6040 18100 22100 26800 36000
2026-02-16 18:45 2.86 1660 36200 (2005) 1420 (2018) 10900 1510 1720 2780 3660 6040 18100 22100 26800 36000
2026-02-16 17:45 2.86 1660 36200 (2005) 1420 (2018) 10900 1510 1720 2780 3660 6040 18100 22100 26800 36000
2026-02-16 16:45 2.87 1680 36200 (2005) 1420 (2018) 10900 1510 1720 2780 3660 6040 18100 22100 26800 36000
2026-02-16 15:45 2.86 1660 36200 (2005) 1420 (2018) 10900 1510 1720 2780 3660 6040 18100 22100 26800 36000
2026-02-16 14:45 2.87 1680 36200 (2005) 1420 (2018) 10900 1510 1720 2780 3660 6040 18100 22100 26800 36000
2026-02-16 13:45 2.87 1680 36200 (2005) 1420 (2018) 10900 1510 1720 2780 3660 6040 18100 22100 26800 36000
2026-02-16 12:45 2.88 1700 36200 (2005) 1420 (2018) 10900 1510 1720 2780 3660 6040 18100 22100 26800 36000
2026-02-16 11:45 2.88 1700 36200 (2005) 1420 (2018) 10900 1510 1720 2780 3660 6040 18100 22100 26800 36000
2026-02-16 10:45 2.88 1700 36200 (2005) 1420 (2018) 10900 1510 1720 2780 3660 6040 18100 22100 26800 36000
2026-02-16 09:45 2.88 1700 36200 (2005) 1420 (2018) 10900 1510 1720 2780 3660 6040 18100 22100 26800 36000
2026-02-16 08:45 2.88 1700 36200 (2005) 1420 (2018) 10900 1510 1720 2780 3660 6040 18100 22100 26800 36000
2026-02-16 07:45 2.89 1710 36200 (2005) 1420 (2018) 10900 1510 1720 2780 3660 6040 18100 22100 26800 36000
2026-02-16 06:45 2.89 1710 36200 (2005) 1420 (2018) 10900 1510 1720 2780 3660 6040 18100 22100 26800 36000
2026-02-16 05:45 2.89 1710 36200 (2005) 1420 (2018) 10900 1510 1720 2780 3660 6040 18100 22100 26800 36000
2026-02-16 04:45 2.89 1710 36200 (2005) 1420 (2018) 10900 1510 1720 2780 3660 6040 18100 22100 26800 36000
2026-02-16 03:45 2.90 1730 36200 (2005) 1420 (2018) 10900 1510 1720 2780 3660 6040 18100 22100 26800 36000
2026-02-16 02:45 2.90 1730 36200 (2005) 1420 (2018) 10900 1510 1720 2780 3660 6040 18100 22100 26800 36000
2026-02-16 01:45 2.90 1730 36200 (2005) 1420 (2018) 10900 1510 1720 2780 3660 6040 18100 22100 26800 36000
2026-02-16 00:45 2.90 1730 36200 (2005) 1420 (2018) 10900 1510 1720 2780 3660 6040 18100 22100 26800 36000
2026-02-15 23:45 2.90 1730 36200 (2005) 1420 (2018) 10900 1510 1720 2780 3660 6040 18100 22100 26800 36000
2026-02-15 22:45 2.90 1730 35700 (2021) 691 (2003) 9850 1020 1430 2500 3230 6450 12900 16300 26700 34800
2026-02-15 21:45 2.90 1730 35700 (2021) 691 (2003) 9850 1020 1430 2500 3230 6450 12900 16300 26700 34800
2026-02-15 20:45 2.90 1730 35700 (2021) 691 (2003) 9850 1020 1430 2500 3230 6450 12900 16300 26700 34800
2026-02-15 19:45 2.90 1730 35700 (2021) 691 (2003) 9850 1020 1430 2500 3230 6450 12900 16300 26700 34800
2026-02-15 18:45 2.89 1710 35700 (2021) 691 (2003) 9850 1020 1430 2500 3230 6450 12900 16300 26700 34800
2026-02-15 17:45 2.89 1710 35700 (2021) 691 (2003) 9850 1020 1430 2500 3230 6450 12900 16300 26700 34800
2026-02-15 16:45 2.89 1710 35700 (2021) 691 (2003) 9850 1020 1430 2500 3230 6450 12900 16300 26700 34800
2026-02-15 15:45 2.89 1710 35700 (2021) 691 (2003) 9850 1020 1430 2500 3230 6450 12900 16300 26700 34800
2026-02-15 14:45 2.88 1700 35700 (2021) 691 (2003) 9850 1020 1430 2500 3230 6450 12900 16300 26700 34800
2026-02-15 13:45 2.88 1700 35700 (2021) 691 (2003) 9850 1020 1430 2500 3230 6450 12900 16300 26700 34800
2026-02-15 12:45 2.88 1700 35700 (2021) 691 (2003) 9850 1020 1430 2500 3230 6450 12900 16300 26700 34800
2026-02-15 11:45 2.87 1680 35700 (2021) 691 (2003) 9850 1020 1430 2500 3230 6450 12900 16300 26700 34800
2026-02-15 10:45 2.85 1650 35700 (2021) 691 (2003) 9850 1020 1430 2500 3230 6450 12900 16300 26700 34800
2026-02-15 09:45 2.84 1630 35700 (2021) 691 (2003) 9850 1020 1430 2500 3230 6450 12900 16300 26700 34800
2026-02-15 08:45 2.84 1630 35700 (2021) 691 (2003) 9850 1020 1430 2500 3230 6450 12900 16300 26700 34800
2026-02-15 07:45 2.83 1620 35700 (2021) 691 (2003) 9850 1020 1430 2500 3230 6450 12900 16300 26700 34800
2026-02-15 06:45 2.82 1600 35700 (2021) 691 (2003) 9850 1020 1430 2500 3230 6450 12900 16300 26700 34800
2026-02-15 05:45 2.81 1590 35700 (2021) 691 (2003) 9850 1020 1430 2500 3230 6450 12900 16300 26700 34800
2026-02-15 04:45 2.80 1570 35700 (2021) 691 (2003) 9850 1020 1430 2500 3230 6450 12900 16300 26700 34800
2026-02-15 03:45 2.79 1560 35700 (2021) 691 (2003) 9850 1020 1430 2500 3230 6450 12900 16300 26700 34800
2026-02-15 02:45 2.78 1540 35700 (2021) 691 (2003) 9850 1020 1430 2500 3230 6450 12900 16300 26700 34800
2026-02-15 01:45 2.78 1540 35700 (2021) 691 (2003) 9850 1020 1430 2500 3230 6450 12900 16300 26700 34800
2026-02-15 00:45 2.77 1530 35700 (2021) 691 (2003) 9850 1020 1430 2500 3230 6450 12900 16300 26700 34800
2026-02-14 23:45 2.77 1530 35700 (2021) 691 (2003) 9850 1020 1430 2500 3230 6450 12900 16300 26700 34800
2026-02-14 22:45 2.76 1520 33800 (2005) 600 (2003) 11000 982 1490 2410 3980 8900 14500 16200 28700 33700
2026-02-14 21:45 2.75 1500 33800 (2005) 600 (2003) 11000 982 1490 2410 3980 8900 14500 16200 28700 33700
2026-02-14 20:45 2.74 1490 33800 (2005) 600 (2003) 11000 982 1490 2410 3980 8900 14500 16200 28700 33700
2026-02-14 19:45 2.74 1490 33800 (2005) 600 (2003) 11000 982 1490 2410 3980 8900 14500 16200 28700 33700
2026-02-14 18:45 2.72 1460 33800 (2005) 600 (2003) 11000 982 1490 2410 3980 8900 14500 16200 28700 33700
2026-02-14 17:45 2.72 1460 33800 (2005) 600 (2003) 11000 982 1490 2410 3980 8900 14500 16200 28700 33700
2026-02-14 16:45 2.71 1450 33800 (2005) 600 (2003) 11000 982 1490 2410 3980 8900 14500 16200 28700 33700
2026-02-14 15:45 2.70 1430 33800 (2005) 600 (2003) 11000 982 1490 2410 3980 8900 14500 16200 28700 33700
2026-02-14 14:45 2.69 1420 33800 (2005) 600 (2003) 11000 982 1490 2410 3980 8900 14500 16200 28700 33700
2026-02-14 13:45 2.67 1390 33800 (2005) 600 (2003) 11000 982 1490 2410 3980 8900 14500 16200 28700 33700
2026-02-14 12:45 2.64 1350 33800 (2005) 600 (2003) 11000 982 1490 2410 3980 8900 14500 16200 28700 33700
2026-02-14 11:45 2.62 1320 33800 (2005) 600 (2003) 11000 982 1490 2410 3980 8900 14500 16200 28700 33700
2026-02-14 10:45 2.62 1320 33800 (2005) 600 (2003) 11000 982 1490 2410 3980 8900 14500 16200 28700 33700
2026-02-14 09:45 2.60 1300 33800 (2005) 600 (2003) 11000 982 1490 2410 3980 8900 14500 16200 28700 33700
2026-02-14 08:45 2.58 1270 33800 (2005) 600 (2003) 11000 982 1490 2410 3980 8900 14500 16200 28700 33700
2026-02-14 07:45 2.57 1260 33800 (2005) 600 (2003) 11000 982 1490 2410 3980 8900 14500 16200 28700 33700
2026-02-14 06:45 2.55 1240 33800 (2005) 600 (2003) 11000 982 1490 2410 3980 8900 14500 16200 28700 33700
2026-02-14 05:45 2.54 1220 33800 (2005) 600 (2003) 11000 982 1490 2410 3980 8900 14500 16200 28700 33700
2026-02-14 04:45 2.53 1210 33800 (2005) 600 (2003) 11000 982 1490 2410 3980 8900 14500 16200 28700 33700
2026-02-14 03:45 2.52 1200 33800 (2005) 600 (2003) 11000 982 1490 2410 3980 8900 14500 16200 28700 33700
2026-02-14 02:45 2.51 1190 33800 (2005) 600 (2003) 11000 982 1490 2410 3980 8900 14500 16200 28700 33700
2026-02-14 01:45 2.50 1180 33800 (2005) 600 (2003) 11000 982 1490 2410 3980 8900 14500 16200 28700 33700
2026-02-14 00:45 2.50 1180 33800 (2005) 600 (2003) 11000 982 1490 2410 3980 8900 14500 16200 28700 33700
2026-02-13 23:45 2.49 1160 33800 (2005) 600 (2003) 11000 982 1490 2410 3980 8900 14500 16200 28700 33700
2026-02-13 22:45 2.49 1160 33600 (1999) 539 (2003) 11600 664 1390 1680 2020 12200 19600 21800 26700 32000
2026-02-13 21:45 2.49 1160 33600 (1999) 539 (2003) 11600 664 1390 1680 2020 12200 19600 21800 26700 32000
2026-02-13 20:45 2.49 1160 33600 (1999) 539 (2003) 11600 664 1390 1680 2020 12200 19600 21800 26700 32000
2026-02-13 19:45 2.49 1160 33600 (1999) 539 (2003) 11600 664 1390 1680 2020 12200 19600 21800 26700 32000
2026-02-13 18:45 2.49 1160 33600 (1999) 539 (2003) 11600 664 1390 1680 2020 12200 19600 21800 26700 32000
2026-02-13 17:45 2.49 1160 33600 (1999) 539 (2003) 11600 664 1390 1680 2020 12200 19600 21800 26700 32000
2026-02-13 16:45 2.49 1160 33600 (1999) 539 (2003) 11600 664 1390 1680 2020 12200 19600 21800 26700 32000
2026-02-13 15:45 2.49 1160 33600 (1999) 539 (2003) 11600 664 1390 1680 2020 12200 19600 21800 26700 32000
2026-02-13 14:45 2.49 1160 33600 (1999) 539 (2003) 11600 664 1390 1680 2020 12200 19600 21800 26700 32000
2026-02-13 13:45 2.49 1160 33600 (1999) 539 (2003) 11600 664 1390 1680 2020 12200 19600 21800 26700 32000
2026-02-13 12:45 2.49 1160 33600 (1999) 539 (2003) 11600 664 1390 1680 2020 12200 19600 21800 26700 32000
2026-02-13 11:45 2.48 1150 33600 (1999) 539 (2003) 11600 664 1390 1680 2020 12200 19600 21800 26700 32000
2026-02-13 10:45 2.48 1150 33600 (1999) 539 (2003) 11600 664 1390 1680 2020 12200 19600 21800 26700 32000
2026-02-13 09:45 2.49 1160 33600 (1999) 539 (2003) 11600 664 1390 1680 2020 12200 19600 21800 26700 32000
2026-02-13 08:45 2.48 1150 33600 (1999) 539 (2003) 11600 664 1390 1680 2020 12200 19600 21800 26700 32000
2026-02-13 07:45 2.48 1150 33600 (1999) 539 (2003) 11600 664 1390 1680 2020 12200 19600 21800 26700 32000
2026-02-13 06:45 2.47 1140 33600 (1999) 539 (2003) 11600 664 1390 1680 2020 12200 19600 21800 26700 32000
2026-02-13 05:45 2.47 1140 33600 (1999) 539 (2003) 11600 664 1390 1680 2020 12200 19600 21800 26700 32000
2026-02-13 04:45 2.48 1150 33600 (1999) 539 (2003) 11600 664 1390 1680 2020 12200 19600 21800 26700 32000
2026-02-13 03:45 2.48 1150 33600 (1999) 539 (2003) 11600 664 1390 1680 2020 12200 19600 21800 26700 32000
2026-02-13 02:45 2.48 1150 33600 (1999) 539 (2003) 11600 664 1390 1680 2020 12200 19600 21800 26700 32000
2026-02-13 01:45 2.48 1150 33600 (1999) 539 (2003) 11600 664 1390 1680 2020 12200 19600 21800 26700 32000
2026-02-13 00:45 2.49 1160 33600 (1999) 539 (2003) 11600 664 1390 1680 2020 12200 19600 21800 26700 32000
2026-02-12 23:45 2.49 1160 33600 (1999) 539 (2003) 11600 664 1390 1680 2020 12200 19600 21800 26700 32000
2026-02-12 22:45 2.49 1160 33600 (1999) 552 (2003) 11000 907 1470 1990 2420 7720 20700 23100 28000 31400
2026-02-12 21:45 2.49 1160 33600 (1999) 552 (2003) 11000 907 1470 1990 2420 7720 20700 23100 28000 31400
2026-02-12 20:45 2.50 1180 33600 (1999) 552 (2003) 11000 907 1470 1990 2420 7720 20700 23100 28000 31400
2026-02-12 19:45 2.50 1180 33600 (1999) 552 (2003) 11000 907 1470 1990 2420 7720 20700 23100 28000 31400
2026-02-12 18:45 2.50 1180 33600 (1999) 552 (2003) 11000 907 1470 1990 2420 7720 20700 23100 28000 31400
2026-02-12 17:45 2.50 1180 33600 (1999) 552 (2003) 11000 907 1470 1990 2420 7720 20700 23100 28000 31400
2026-02-12 16:45 2.51 1190 33600 (1999) 552 (2003) 11000 907 1470 1990 2420 7720 20700 23100 28000 31400
2026-02-12 15:45 2.51 1190 33600 (1999) 552 (2003) 11000 907 1470 1990 2420 7720 20700 23100 28000 31400
2026-02-12 14:45 2.52 1200 33600 (1999) 552 (2003) 11000 907 1470 1990 2420 7720 20700 23100 28000 31400
2026-02-12 13:45 2.53 1210 33600 (1999) 552 (2003) 11000 907 1470 1990 2420 7720 20700 23100 28000 31400
2026-02-12 12:45 2.53 1210 33600 (1999) 552 (2003) 11000 907 1470 1990 2420 7720 20700 23100 28000 31400
2026-02-12 11:45 2.54 1220 33600 (1999) 552 (2003) 11000 907 1470 1990 2420 7720 20700 23100 28000 31400
2026-02-12 10:45 2.53 1210 33600 (1999) 552 (2003) 11000 907 1470 1990 2420 7720 20700 23100 28000 31400
2026-02-12 09:45 2.53 1210 33600 (1999) 552 (2003) 11000 907 1470 1990 2420 7720 20700 23100 28000 31400
2026-02-12 08:45 2.53 1210 33600 (1999) 552 (2003) 11000 907 1470 1990 2420 7720 20700 23100 28000 31400
2026-02-12 07:45 2.53 1210 33600 (1999) 552 (2003) 11000 907 1470 1990 2420 7720 20700 23100 28000 31400
2026-02-12 06:45 2.54 1220 33600 (1999) 552 (2003) 11000 907 1470 1990 2420 7720 20700 23100 28000 31400
2026-02-12 05:45 2.54 1220 33600 (1999) 552 (2003) 11000 907 1470 1990 2420 7720 20700 23100 28000 31400
2026-02-12 03:45 2.54 1220 33600 (1999) 552 (2003) 11000 907 1470 1990 2420 7720 20700 23100 28000 31400
2026-02-12 02:45 2.54 1220 33600 (1999) 552 (2003) 11000 907 1470 1990 2420 7720 20700 23100 28000 31400
2026-02-12 01:45 2.55 1240 33600 (1999) 552 (2003) 11000 907 1470 1990 2420 7720 20700 23100 28000 31400
2026-02-12 00:45 2.55 1240 33600 (1999) 552 (2003) 11000 907 1470 1990 2420 7720 20700 23100 28000 31400
2026-02-11 23:45 2.55 1240 33600 (1999) 552 (2003) 11000 907 1470 1990 2420 7720 20700 23100 28000 31400
2026-02-11 22:45 2.56 1250 34200 (2010) 583 (2003) 10500 1050 1630 3070 4590 7570 13400 16600 28500 32300
2026-02-11 21:45 2.56 1250 34200 (2010) 583 (2003) 10500 1050 1630 3070 4590 7570 13400 16600 28500 32300
2026-02-11 20:45 2.56 1250 34200 (2010) 583 (2003) 10500 1050 1630 3070 4590 7570 13400 16600 28500 32300
2026-02-11 19:45 2.57 1260 34200 (2010) 583 (2003) 10500 1050 1630 3070 4590 7570 13400 16600 28500 32300
2026-02-11 18:45 2.57 1260 34200 (2010) 583 (2003) 10500 1050 1630 3070 4590 7570 13400 16600 28500 32300
2026-02-11 17:45 2.58 1270 34200 (2010) 583 (2003) 10500 1050 1630 3070 4590 7570 13400 16600 28500 32300
2026-02-11 16:45 2.58 1270 34200 (2010) 583 (2003) 10500 1050 1630 3070 4590 7570 13400 16600 28500 32300
2026-02-11 15:45 2.59 1290 34200 (2010) 583 (2003) 10500 1050 1630 3070 4590 7570 13400 16600 28500 32300
2026-02-11 14:45 2.59 1290 34200 (2010) 583 (2003) 10500 1050 1630 3070 4590 7570 13400 16600 28500 32300
2026-02-11 13:45 2.60 1300 34200 (2010) 583 (2003) 10500 1050 1630 3070 4590 7570 13400 16600 28500 32300
2026-02-11 12:45 2.60 1300 34200 (2010) 583 (2003) 10500 1050 1630 3070 4590 7570 13400 16600 28500 32300
2026-02-11 11:45 2.60 1300 34200 (2010) 583 (2003) 10500 1050 1630 3070 4590 7570 13400 16600 28500 32300
2026-02-11 10:45 2.61 1310 34200 (2010) 583 (2003) 10500 1050 1630 3070 4590 7570 13400 16600 28500 32300
2026-02-11 09:45 2.62 1320 34200 (2010) 583 (2003) 10500 1050 1630 3070 4590 7570 13400 16600 28500 32300
2026-02-11 08:45 2.62 1320 34200 (2010) 583 (2003) 10500 1050 1630 3070 4590 7570 13400 16600 28500 32300
2026-02-11 07:45 2.63 1340 34200 (2010) 583 (2003) 10500 1050 1630 3070 4590 7570 13400 16600 28500 32300
2026-02-11 06:45 2.63 1340 34200 (2010) 583 (2003) 10500 1050 1630 3070 4590 7570 13400 16600 28500 32300
2026-02-11 05:45 2.64 1350 34200 (2010) 583 (2003) 10500 1050 1630 3070 4590 7570 13400 16600 28500 32300
2026-02-11 04:45 2.66 1380 34200 (2010) 583 (2003) 10500 1050 1630 3070 4590 7570 13400 16600 28500 32300
2026-02-11 03:45 2.68 1400 34200 (2010) 583 (2003) 10500 1050 1630 3070 4590 7570 13400 16600 28500 32300
2026-02-11 02:45 2.70 1430 34200 (2010) 583 (2003) 10500 1050 1630 3070 4590 7570 13400 16600 28500 32300
2026-02-11 01:45 2.72 1460 34200 (2010) 583 (2003) 10500 1050 1630 3070 4590 7570 13400 16600 28500 32300
2026-02-11 00:45 2.75 1500 34200 (2010) 583 (2003) 10500 1050 1630 3070 4590 7570 13400 16600 28500 32300
2026-02-10 23:45 2.78 1540 34200 (2010) 583 (2003) 10500 1050 1630 3070 4590 7570 13400 16600 28500 32300
2026-02-10 22:45 2.81 1590 34800 (2010) 646 (2003) 11200 1020 1780 2070 2380 7640 16800 21100 33200 34800
2026-02-10 21:45 2.85 1650 34800 (2010) 646 (2003) 11200 1020 1780 2070 2380 7640 16800 21100 33200 34800
2026-02-10 20:45 2.89 1710 34800 (2010) 646 (2003) 11200 1020 1780 2070 2380 7640 16800 21100 33200 34800
2026-02-10 19:45 2.94 1790 34800 (2010) 646 (2003) 11200 1020 1780 2070 2380 7640 16800 21100 33200 34800
2026-02-10 18:45 2.99 1880 34800 (2010) 646 (2003) 11200 1020 1780 2070 2380 7640 16800 21100 33200 34800
2026-02-10 17:45 3.04 1960 34800 (2010) 646 (2003) 11200 1020 1780 2070 2380 7640 16800 21100 33200 34800
2026-02-10 16:45 3.10 2070 34800 (2010) 646 (2003) 11200 1020 1780 2070 2380 7640 16800 21100 33200 34800
2026-02-10 15:45 3.17 2200 34800 (2010) 646 (2003) 11200 1020 1780 2070 2380 7640 16800 21100 33200 34800
2026-02-10 14:45 3.22 2300 34800 (2010) 646 (2003) 11200 1020 1780 2070 2380 7640 16800 21100 33200 34800
2026-02-10 13:45 3.30 2460 34800 (2010) 646 (2003) 11200 1020 1780 2070 2380 7640 16800 21100 33200 34800
2026-02-10 12:45 3.39 2650 34800 (2010) 646 (2003) 11200 1020 1780 2070 2380 7640 16800 21100 33200 34800
2026-02-10 11:45 3.48 2860 34800 (2010) 646 (2003) 11200 1020 1780 2070 2380 7640 16800 21100 33200 34800
2026-02-10 10:45 3.57 3080 34800 (2010) 646 (2003) 11200 1020 1780 2070 2380 7640 16800 21100 33200 34800
2026-02-10 09:45 3.67 3330 34800 (2010) 646 (2003) 11200 1020 1780 2070 2380 7640 16800 21100 33200 34800
2026-02-10 08:45 3.77 3590 34800 (2010) 646 (2003) 11200 1020 1780 2070 2380 7640 16800 21100 33200 34800
2026-02-10 07:45 3.88 3870 34800 (2010) 646 (2003) 11200 1020 1780 2070 2380 7640 16800 21100 33200 34800
2026-02-10 06:45 4.01 4200 34800 (2010) 646 (2003) 11200 1020 1780 2070 2380 7640 16800 21100 33200 34800
2026-02-10 05:45 4.14 4540 34800 (2010) 646 (2003) 11200 1020 1780 2070 2380 7640 16800 21100 33200 34800
2026-02-10 04:45 4.28 4910 34800 (2010) 646 (2003) 11200 1020 1780 2070 2380 7640 16800 21100 33200 34800
2026-02-10 03:45 4.43 5310 34800 (2010) 646 (2003) 11200 1020 1780 2070 2380 7640 16800 21100 33200 34800
2026-02-10 02:45 4.59 5740 34800 (2010) 646 (2003) 11200 1020 1780 2070 2380 7640 16800 21100 33200 34800
2026-02-10 01:45 4.76 6200 34800 (2010) 646 (2003) 11200 1020 1780 2070 2380 7640 16800 21100 33200 34800
2026-02-10 00:45 4.92 6640 34800 (2010) 646 (2003) 11200 1020 1780 2070 2380 7640 16800 21100 33200 34800
2026-02-09 23:45 5.10 7120 34800 (2010) 646 (2003) 11200 1020 1780 2070 2380 7640 16800 21100 33200 34800
2026-02-09 22:45 5.27 7580 37800 (2020) 1010 (2003) 11300 1070 1320 2400 3470 5230 20000 23600 32600 36200
2026-02-09 21:45 5.42 8000 37800 (2020) 1010 (2003) 11300 1070 1320 2400 3470 5230 20000 23600 32600 36200
2026-02-09 20:45 5.57 8440 37800 (2020) 1010 (2003) 11300 1070 1320 2400 3470 5230 20000 23600 32600 36200
2026-02-09 19:45 5.68 8740 37800 (2020) 1010 (2003) 11300 1070 1320 2400 3470 5230 20000 23600 32600 36200
2026-02-09 18:45 5.76 8960 37800 (2020) 1010 (2003) 11300 1070 1320 2400 3470 5230 20000 23600 32600 36200
2026-02-09 17:45 5.79 9050 37800 (2020) 1010 (2003) 11300 1070 1320 2400 3470 5230 20000 23600 32600 36200
2026-02-09 16:45 5.74 8910 37800 (2020) 1010 (2003) 11300 1070 1320 2400 3470 5230 20000 23600 32600 36200
2026-02-09 15:45 5.64 8630 37800 (2020) 1010 (2003) 11300 1070 1320 2400 3470 5230 20000 23600 32600 36200
2026-02-09 14:45 5.41 7970 37800 (2020) 1010 (2003) 11300 1070 1320 2400 3470 5230 20000 23600 32600 36200
2026-02-09 13:45 5.04 6960 37800 (2020) 1010 (2003) 11300 1070 1320 2400 3470 5230 20000 23600 32600 36200
2026-02-09 12:45 4.53 5580 37800 (2020) 1010 (2003) 11300 1070 1320 2400 3470 5230 20000 23600 32600 36200
2026-02-09 11:45 4.01 4200 37800 (2020) 1010 (2003) 11300 1070 1320 2400 3470 5230 20000 23600 32600 36200
2026-02-09 10:45 3.75 3540 37800 (2020) 1010 (2003) 11300 1070 1320 2400 3470 5230 20000 23600 32600 36200
2026-02-09 09:45 3.74 3520 37800 (2020) 1010 (2003) 11300 1070 1320 2400 3470 5230 20000 23600 32600 36200
2026-02-09 08:45 3.83 3740 37800 (2020) 1010 (2003) 11300 1070 1320 2400 3470 5230 20000 23600 32600 36200
2026-02-09 07:45 3.93 4000 37800 (2020) 1010 (2003) 11300 1070 1320 2400 3470 5230 20000 23600 32600 36200
2026-02-09 06:45 4.05 4300 37800 (2020) 1010 (2003) 11300 1070 1320 2400 3470 5230 20000 23600 32600 36200
2026-02-09 05:45 4.16 4590 37800 (2020) 1010 (2003) 11300 1070 1320 2400 3470 5230 20000 23600 32600 36200
2026-02-09 04:45 4.29 4940 37800 (2020) 1010 (2003) 11300 1070 1320 2400 3470 5230 20000 23600 32600 36200
2026-02-09 03:45 4.42 5280 37800 (2020) 1010 (2003) 11300 1070 1320 2400 3470 5230 20000 23600 32600 36200
2026-02-09 02:45 4.55 5630 37800 (2020) 1010 (2003) 11300 1070 1320 2400 3470 5230 20000 23600 32600 36200
2026-02-09 01:45 4.68 5990 37800 (2020) 1010 (2003) 11300 1070 1320 2400 3470 5230 20000 23600 32600 36200
2026-02-09 00:45 4.81 6340 37800 (2020) 1010 (2003) 11300 1070 1320 2400 3470 5230 20000 23600 32600 36200
2026-02-08 23:45 4.92 6640 37800 (2020) 1010 (2003) 11300 1070 1320 2400 3470 5230 20000 23600 32600 36200
2026-02-08 22:45 5.03 6930 38800 (1999) 1010 (2025) 11600 1330 1850 2180 2630 5820 20300 25700 34800 38100
2026-02-08 21:45 5.09 7090 38800 (1999) 1010 (2025) 11600 1330 1850 2180 2630 5820 20300 25700 34800 38100
2026-02-08 20:45 5.13 7200 38800 (1999) 1010 (2025) 11600 1330 1850 2180 2630 5820 20300 25700 34800 38100
2026-02-08 19:45 5.11 7150 38800 (1999) 1010 (2025) 11600 1330 1850 2180 2630 5820 20300 25700 34800 38100
2026-02-08 18:45 5.04 6960 38800 (1999) 1010 (2025) 11600 1330 1850 2180 2630 5820 20300 25700 34800 38100
2026-02-08 17:45 4.88 6530 38800 (1999) 1010 (2025) 11600 1330 1850 2180 2630 5820 20300 25700 34800 38100
2026-02-08 16:45 4.62 5830 38800 (1999) 1010 (2025) 11600 1330 1850 2180 2630 5820 20300 25700 34800 38100
2026-02-08 15:45 4.24 4800 38800 (1999) 1010 (2025) 11600 1330 1850 2180 2630 5820 20300 25700 34800 38100
2026-02-08 14:45 3.82 3710 38800 (1999) 1010 (2025) 11600 1330 1850 2180 2630 5820 20300 25700 34800 38100
2026-02-08 13:45 3.56 3050 38800 (1999) 1010 (2025) 11600 1330 1850 2180 2630 5820 20300 25700 34800 38100
2026-02-08 12:45 3.52 2950 38800 (1999) 1010 (2025) 11600 1330 1850 2180 2630 5820 20300 25700 34800 38100
2026-02-08 11:45 3.58 3100 38800 (1999) 1010 (2025) 11600 1330 1850 2180 2630 5820 20300 25700 34800 38100
2026-02-08 10:45 3.67 3330 38800 (1999) 1010 (2025) 11600 1330 1850 2180 2630 5820 20300 25700 34800 38100
2026-02-08 09:45 3.76 3570 38800 (1999) 1010 (2025) 11600 1330 1850 2180 2630 5820 20300 25700 34800 38100
2026-02-08 08:45 3.87 3840 38800 (1999) 1010 (2025) 11600 1330 1850 2180 2630 5820 20300 25700 34800 38100
2026-02-08 07:45 3.98 4130 38800 (1999) 1010 (2025) 11600 1330 1850 2180 2630 5820 20300 25700 34800 38100
2026-02-08 06:45 4.09 4410 38800 (1999) 1010 (2025) 11600 1330 1850 2180 2630 5820 20300 25700 34800 38100
2026-02-08 05:45 4.21 4720 38800 (1999) 1010 (2025) 11600 1330 1850 2180 2630 5820 20300 25700 34800 38100
2026-02-08 04:45 4.33 5050 38800 (1999) 1010 (2025) 11600 1330 1850 2180 2630 5820 20300 25700 34800 38100
2026-02-08 03:45 4.45 5360 38800 (1999) 1010 (2025) 11600 1330 1850 2180 2630 5820 20300 25700 34800 38100
2026-02-08 02:45 4.58 5710 38800 (1999) 1010 (2025) 11600 1330 1850 2180 2630 5820 20300 25700 34800 38100
2026-02-08 01:45 4.69 6010 38800 (1999) 1010 (2025) 11600 1330 1850 2180 2630 5820 20300 25700 34800 38100
2026-02-08 00:45 4.80 6310 38800 (1999) 1010 (2025) 11600 1330 1850 2180 2630 5820 20300 25700 34800 38100
2026-02-07 23:45 4.88 6530 38800 (1999) 1010 (2025) 11600 1330 1850 2180 2630 5820 20300 25700 34800 38100

A total of 2190 rows are displayed for years 1997 through 2025.